[[{"header":{"parameterUnit":"m.s-1","parameterCategory":1,"la1":30.6,"la2":29.2853,"lo1":-89.7004,"lo2":-87.6739,"dy":0.0162,"dx":0.0183,"nx":112,"ny":82,"refTime":"2024-05-10T06:00:00:Z","depth":0,"parameterNumber":2,"parameterNumberName":"U-component_of_WINDS"},"data":[0.0,0.0,0.0,0.0,0.0,0.0,0.0,0.0,0.0,0.0,0.0,0.0,0.0,0.0,0.0,0.0,0.0,0.0,0.0,0.0,0.0,0.0,0.0,0.0,0.0,0.0,0.0,0.0,0.0,0.0,0.0,0.0,0.0,0.0,0.0,0.0,0.0,0.0,0.0,0.0,0.0,0.0,0.0,0.0,0.0,0.0,0.0,0.0,0.0,0.0,0.0,0.0,0.0,0.0,0.0,0.0,0.0,0.0,0.0,0.0,0.0,0.0,0.0,0.0,0.0,0.0,0.0,0.0,0.0,0.0,0.0,0.0,0.0,0.0,0.0,0.0,0.0,0.0,0.0,0.0,0.0,0.0,0.0,0.0,0.0,0.0,0.0,0.0,0.0,0.0,3.5893,3.8265,4.2321,4.4641,4.4035,4.1831,3.9106,3.5865,0.0,0.0,0.0,0.0,0.0,0.0,0.0,0.0,0.0,0.0,0.0,0.0,0.0,0.0,0.0,0.0,0.0,0.0,0.0,0.0,0.0,0.0,0.0,0.0,0.0,0.0,0.0,0.0,0.0,0.0,0.0,0.0,0.0,0.0,0.0,0.0,0.0,0.0,0.0,0.0,0.0,0.0,0.0,0.0,0.0,0.0,0.0,0.0,0.0,0.0,0.0,0.0,0.0,0.0,0.0,0.0,0.0,0.0,0.0,0.0,0.0,0.0,0.0,0.0,0.0,0.0,0.0,0.0,0.0,0.0,0.0,0.0,0.0,0.0,0.0,0.0,0.0,0.0,0.0,0.0,0.0,0.0,0.0,0.0,0.0,0.0,0.0,0.0,0.0,0.0,0.0,0.0,0.0,0.0,0.0,0.0,0.0,0.0,0.0,0.0,0.0,0.0,0.0,0.0,3.6254,4.08,4.311,4.3925,4.3016,4.1144,3.8571,3.5234,0.0,0.0,0.0,0.0,0.0,0.0,0.0,0.0,0.0,0.0,0.0,0.0,0.0,0.0,0.0,0.0,0.0,0.0,0.0,0.0,0.0,0.0,0.0,0.0,0.0,0.0,0.0,0.0,0.0,0.0,0.0,0.0,0.0,0.0,0.0,0.0,0.0,0.0,0.0,0.0,0.0,0.0,0.0,0.0,0.0,0.0,0.0,0.0,0.0,0.0,0.0,0.0,0.0,0.0,0.0,0.0,0.0,0.0,0.0,0.0,0.0,0.0,0.0,0.0,0.0,0.0,0.0,0.0,0.0,0.0,0.0,0.0,0.0,0.0,0.0,0.0,0.0,0.0,0.0,0.0,0.0,0.0,0.0,0.0,0.0,0.0,0.0,0.0,0.0,0.0,0.0,0.0,0.0,0.0,0.0,0.0,0.0,0.0,0.0,0.0,0.0,0.0,0.0,3.4508,3.729,4.1465,4.2893,4.3139,4.2072,4.0251,3.781,3.451,3.1499,0.0,0.0,0.0,0.0,0.0,0.0,0.0,0.0,0.0,0.0,0.0,0.0,0.0,0.0,0.0,0.0,0.0,0.0,0.0,0.0,0.0,0.0,0.0,0.0,0.0,0.0,0.0,0.0,0.0,0.0,0.0,0.0,0.0,0.0,0.0,0.0,0.0,0.0,0.0,0.0,0.0,0.0,0.0,0.0,0.0,0.0,0.0,0.0,0.0,0.0,0.0,0.0,0.0,0.0,0.0,0.0,0.0,0.0,0.0,0.0,0.0,0.0,0.0,0.0,0.0,0.0,0.0,0.0,0.0,0.0,0.0,0.0,0.0,0.0,0.0,0.0,0.0,0.0,0.0,0.0,0.0,0.0,0.0,0.0,0.0,0.0,0.0,0.0,0.0,0.0,0.0,0.0,0.0,0.0,0.0,0.0,0.0,0.0,0.0,0.0,0.0,0.0,3.6332,3.8015,4.126,4.2247,4.2259,4.1222,3.9264,3.6852,3.3918,3.0371,0.0,0.0,0.0,0.0,0.0,0.0,0.0,0.0,0.0,0.0,0.0,0.0,0.0,0.0,0.0,0.0,0.0,0.0,0.0,0.0,0.0,0.0,0.0,0.0,0.0,0.0,0.0,0.0,0.0,0.0,0.0,0.0,0.0,0.0,0.0,0.0,0.0,0.0,0.0,0.0,0.0,0.0,0.0,0.0,0.0,0.0,0.0,0.0,0.0,0.0,0.0,0.0,0.0,0.0,0.0,0.0,0.0,0.0,0.0,0.0,0.0,0.0,0.0,0.0,0.0,0.0,0.0,0.0,0.0,0.0,0.0,0.0,0.0,0.0,0.0,0.0,0.0,0.0,0.0,0.0,0.0,0.0,0.0,0.0,0.0,0.0,0.0,0.0,0.0,0.0,0.0,0.0,0.0,0.0,0.0,0.0,0.0,0.0,0.0,0.0,0.0,0.0,3.5948,3.7726,4.0417,4.1296,4.1304,4.0346,3.8059,3.5776,3.3729,2.9347,0.0,0.0,0.0,0.0,0.0,0.0,0.0,0.0,0.0,0.0,0.0,0.0,0.0,0.0,0.0,0.0,0.0,0.0,0.0,0.0,0.0,0.0,0.0,0.0,0.0,0.0,0.0,0.0,0.0,0.0,0.0,0.0,0.0,0.0,0.0,0.0,0.0,0.0,0.0,0.0,0.0,0.0,0.0,0.0,0.0,0.0,0.0,0.0,0.0,0.0,0.0,0.0,0.0,0.0,0.0,0.0,0.0,0.0,0.0,0.0,0.0,0.0,0.0,0.0,0.0,0.0,0.0,0.0,0.0,0.0,0.0,0.0,0.0,0.0,0.0,0.0,0.0,0.0,0.0,0.0,0.0,0.0,0.0,0.0,0.0,0.0,0.0,0.0,0.0,0.0,0.0,0.0,0.0,0.0,0.0,0.0,0.0,0.0,0.0,0.0,0.0,0.0,3.4458,3.6067,3.87,3.9058,3.8917,3.8498,3.6594,3.4606,3.2605,0.0,0.0,0.0,0.0,0.0,0.0,0.0,0.0,0.0,0.0,0.0,0.0,0.0,0.0,0.0,0.0,0.0,0.0,0.0,0.0,0.0,0.0,0.0,0.0,0.0,0.0,0.0,0.0,0.0,0.0,0.0,0.0,0.0,0.0,0.0,0.0,0.0,0.0,0.0,0.0,0.0,0.0,0.0,0.0,0.0,0.0,0.0,0.0,0.0,0.0,0.0,0.0,0.0,0.0,0.0,0.0,0.0,0.0,0.0,0.0,0.0,0.0,0.0,0.0,0.0,0.0,0.0,0.0,0.0,0.0,0.0,0.0,0.0,0.0,0.0,0.0,0.0,0.0,0.0,0.0,0.0,0.0,0.0,0.0,0.0,0.0,0.0,0.0,0.0,0.0,0.0,0.0,0.0,0.0,0.0,0.0,0.0,0.0,0.0,0.0,0.0,0.0,3.2674,3.3723,3.5048,3.7571,3.7634,3.7324,3.6942,3.5133,3.3265,3.1482,0.0,0.0,0.0,0.0,0.0,0.0,0.0,0.0,0.0,0.0,0.0,0.0,0.0,0.0,0.0,0.0,0.0,0.0,0.0,0.0,0.0,0.0,0.0,0.0,0.0,0.0,0.0,0.0,0.0,0.0,0.0,0.0,0.0,0.0,0.0,0.0,0.0,0.0,0.0,0.0,0.0,0.0,0.0,0.0,0.0,0.0,0.0,0.0,0.0,0.0,0.0,0.0,0.0,0.0,0.0,0.0,0.0,0.0,0.0,0.0,0.0,0.0,0.0,0.0,0.0,0.0,0.0,0.0,0.0,0.0,0.0,0.0,0.0,0.0,0.0,0.0,0.0,0.0,0.0,0.0,0.0,0.0,0.0,0.0,0.0,0.0,0.0,0.0,0.0,0.0,0.0,0.0,0.0,0.0,0.0,0.0,0.0,0.0,0.0,0.0,0.0,0.0,3.3058,3.391,3.4958,3.7238,3.7278,3.6774,3.586,3.3645,3.1741,0.0,0.0,0.0,0.0,0.0,0.0,0.0,0.0,0.0,0.0,0.0,0.0,0.0,0.0,0.0,0.0,0.0,0.0,0.0,0.0,0.0,0.0,0.0,0.0,0.0,0.0,0.0,0.0,0.0,0.0,0.0,0.0,0.0,0.0,0.0,0.0,0.0,0.0,0.0,0.0,0.0,0.0,0.0,0.0,0.0,0.0,0.0,0.0,0.0,0.0,0.0,0.0,0.0,0.0,0.0,0.0,0.0,0.0,0.0,0.0,0.0,0.0,0.0,0.0,0.0,0.0,0.0,0.0,0.0,0.0,0.0,0.0,0.0,0.0,0.0,0.0,0.0,0.0,0.0,0.0,0.0,0.0,0.0,0.0,0.0,0.0,0.0,0.0,0.0,0.0,0.0,0.0,0.0,0.0,0.0,0.0,0.0,0.0,0.0,0.0,0.0,0.0,0.0,3.245,3.2589,3.3212,3.5484,3.4845,3.4371,3.4643,3.2533,3.0711,2.9599,0.0,0.0,0.0,0.0,0.0,0.0,0.0,0.0,0.0,0.0,0.0,0.0,0.0,0.0,0.0,0.0,0.0,0.0,0.0,0.0,0.0,0.0,0.0,0.0,0.0,0.0,0.0,0.0,0.0,0.0,0.0,0.0,0.0,0.0,0.0,0.0,0.0,0.0,0.0,0.0,0.0,0.0,0.0,0.0,0.0,0.0,0.0,0.0,0.0,0.0,0.0,0.0,0.0,0.0,0.0,0.0,0.0,0.0,0.0,0.0,0.0,0.0,0.0,0.0,0.0,0.0,0.0,0.0,0.0,0.0,0.0,0.0,0.0,0.0,0.0,0.0,0.0,0.0,0.0,0.0,0.0,0.0,0.0,0.0,0.0,0.0,0.0,0.0,0.0,0.0,0.0,0.0,0.0,0.0,0.0,0.0,0.0,0.0,0.0,0.0,0.0,0.0,3.1802,3.1769,3.2016,3.3486,3.278,3.231,3.255,3.1272,2.9864,2.8486,0.0,0.0,0.0,0.0,0.0,0.0,0.0,0.0,0.0,0.0,0.0,0.0,0.0,0.0,0.0,0.0,0.0,0.0,0.0,0.0,0.0,0.0,0.0,0.0,0.0,0.0,0.0,0.0,0.0,0.0,0.0,0.0,0.0,0.0,0.0,0.0,0.0,0.0,0.0,0.0,0.0,0.0,0.0,0.0,0.0,0.0,0.0,0.0,0.0,0.0,0.0,0.0,0.0,0.0,0.0,0.0,0.0,0.0,0.0,0.0,0.0,0.0,0.0,0.0,0.0,0.0,0.0,0.0,0.0,0.0,0.0,0.0,0.0,0.0,0.0,0.0,0.0,0.0,0.0,0.0,0.0,0.0,0.0,0.0,0.0,0.0,0.0,0.0,0.0,0.0,0.0,0.0,0.0,0.0,0.0,0.0,0.0,0.0,0.0,0.0,0.0,0.0,3.1193,3.1271,3.113,3.1483,3.1078,3.0588,3.008,2.9912,2.9082,2.7253,0.0,0.0,0.0,0.0,0.0,0.0,0.0,0.0,0.0,0.0,0.0,0.0,0.0,0.0,0.0,0.0,0.0,0.0,0.0,0.0,0.0,0.0,0.0,0.0,0.0,0.0,0.0,0.0,0.0,0.0,0.0,0.0,0.0,0.0,0.0,0.0,0.0,0.0,0.0,0.0,0.0,0.0,0.0,0.0,0.0,0.0,0.0,0.0,0.0,0.0,0.0,0.0,0.0,0.0,0.0,0.0,0.0,0.0,0.0,0.0,-2.7524,-2.6276,0.0,0.0,0.0,0.0,0.0,0.0,0.0,0.0,0.0,0.0,0.0,0.0,0.0,0.0,0.0,0.0,0.0,0.0,0.0,0.0,0.0,0.0,0.0,0.0,0.0,0.0,0.0,0.0,0.0,0.0,0.0,0.0,0.0,0.0,0.0,0.0,0.0,0.0,0.0,0.0,3.0953,3.0264,2.9847,3.0865,2.9846,2.9257,2.9593,2.8555,2.7558,2.6694,2.4567,0.0,0.0,0.0,0.0,0.0,0.0,0.0,0.0,0.0,0.0,0.0,0.0,0.0,0.0,0.0,0.0,0.0,0.0,0.0,0.0,0.0,0.0,0.0,0.0,0.0,0.0,0.0,0.0,0.0,0.0,0.0,0.0,0.0,0.0,0.0,0.0,0.0,0.0,0.0,0.0,0.0,0.0,0.0,0.0,0.0,0.0,0.0,0.0,0.0,0.0,0.0,0.0,0.0,0.0,0.0,0.0,0.0,0.0,0.0,-3.0555,-2.9333,0.0,0.0,0.0,0.0,0.0,0.0,0.0,0.0,0.0,0.0,0.0,0.0,0.0,0.0,0.0,0.0,0.0,0.0,0.0,0.0,0.0,0.0,0.0,0.0,0.0,0.0,0.0,0.0,0.0,0.0,0.0,0.0,0.0,0.0,0.0,0.0,0.0,0.0,0.0,0.0,2.9848,2.8828,2.8049,2.8647,2.7672,2.708,2.7246,2.6981,2.6329,2.531,2.4018,0.0,0.0,0.0,0.0,0.0,0.0,0.0,0.0,0.0,0.0,0.0,0.0,0.0,0.0,0.0,0.0,0.0,0.0,0.0,0.0,0.0,0.0,0.0,0.0,0.0,0.0,0.0,0.0,0.0,0.0,0.0,0.0,0.0,0.0,0.0,0.0,0.0,0.0,0.0,0.0,0.0,0.0,0.0,0.0,0.0,0.0,0.0,0.0,0.0,0.0,0.0,0.0,0.0,-3.7477,-3.7535,-3.7069,-3.6595,-3.639,-3.6229,-3.3671,-3.2434,-3.2018,-2.9042,0.0,0.0,0.0,0.0,0.0,0.0,0.0,0.0,0.0,0.0,0.0,0.0,0.0,0.0,0.0,0.0,0.0,0.0,0.0,0.0,0.0,0.0,-0.8569,-0.8844,-0.8204,-0.6212,-0.1293,0.0,0.0,0.0,0.0,0.0,0.0,0.0,0.0,0.0,0.0,0.0,2.8521,2.7412,2.6301,2.6051,2.5302,2.4798,2.4667,2.5289,2.5188,2.4007,2.3867,2.3063,0.0,0.0,0.0,0.0,0.0,0.0,0.0,0.0,0.0,0.0,0.0,0.0,0.0,0.0,0.0,0.0,0.0,0.0,0.0,0.0,0.0,0.0,0.0,0.0,0.0,0.0,0.0,0.0,0.0,0.0,0.0,0.0,-3.2968,-3.3528,0.0,0.0,0.0,0.0,0.0,0.0,0.0,0.0,0.0,0.0,0.0,0.0,0.0,-3.5829,-3.6347,-3.7977,-3.8366,-3.76,-3.9483,-3.9634,-3.8287,-3.8561,-3.8672,-3.8599,-3.7326,0.0,-3.4513,-3.1554,0.0,0.0,0.0,0.0,0.0,0.0,0.0,0.0,0.0,0.0,0.0,0.0,0.0,0.0,0.0,0.0,0.0,0.0,0.0,0.0,0.0,0.0,-1.5886,-1.5563,-1.4916,-1.3813,-1.173,-0.6979,-0.2896,-0.2489,-0.0123,0.2855,0.0,0.0,0.0,0.0,0.0,0.0,2.7607,2.6502,2.5268,2.4488,2.3614,2.3206,2.3667,2.3595,2.373,2.4133,2.3004,2.1699,2.0337,1.9143,0.0,0.0,0.0,0.0,0.0,0.0,0.0,0.0,0.0,0.0,0.0,0.0,0.0,0.0,0.0,0.0,0.0,0.0,0.0,0.0,0.0,0.0,0.0,0.0,0.0,0.0,0.0,0.0,0.0,-3.2992,-3.4937,-3.4387,-3.4778,-3.4248,0.0,0.0,0.0,0.0,0.0,0.0,0.0,0.0,0.0,-3.7211,-3.7718,-3.8314,-3.9046,-4.0218,-4.0719,-4.0632,-4.1588,-4.1719,-4.1183,-4.1376,-4.1361,-4.1197,-4.0182,-3.9269,-3.8214,-3.448,-3.1844,-3.0009,0.0,0.0,0.0,0.0,-2.5911,-2.5707,-2.6612,-2.6454,-2.5592,-2.376,0.0,0.0,0.0,0.0,0.0,0.0,0.0,-1.8522,-1.9439,-1.9811,-1.9774,-1.9074,-1.8209,-1.7278,-1.6331,-1.3968,-1.1405,-0.9379,-0.6528,-0.3488,-0.0304,0.6097,0.0,0.0,0.0,2.4965,2.6939,2.5493,2.3988,2.3231,2.2114,2.1508,2.1597,2.1898,2.2058,2.1935,2.1728,2.1001,1.9713,1.8691,1.7957,0.0,0.0,0.0,0.0,0.0,0.0,0.0,0.0,0.0,0.0,0.0,0.0,0.0,0.0,0.0,0.0,0.0,0.0,0.0,0.0,0.0,0.0,0.0,0.0,0.0,0.0,0.0,0.0,-3.4967,-3.6149,-3.5247,-3.6822,-3.6755,0.0,0.0,0.0,0.0,0.0,0.0,-3.8517,-3.8042,-3.83,-3.9539,-4.0196,-4.0929,-4.1736,-4.249,-4.3062,-4.3502,-4.3441,-4.3536,-4.3719,-4.3429,-4.3196,-4.2958,-4.2136,-4.142,-4.0517,-3.6758,-3.4015,-3.2049,-3.0627,-2.9466,-2.8599,-2.8429,-2.8306,-2.8207,-2.8355,-2.8404,-2.8144,-2.6704,-2.5615,-2.4538,-2.2937,0.0,0.0,0.0,0.0,-2.276,-2.2741,-2.2548,-2.2144,-2.1239,-2.0383,-1.9604,-1.9008,-1.8934,-1.8125,-1.5079,-1.257,-0.9975,-0.6817,0.1211,0.0,1.4427,1.9948,2.4153,2.6046,2.4425,2.2776,2.1995,2.0919,2.0122,1.9901,2.0541,2.0724,2.0211,2.0737,2.0519,1.9198,1.8301,1.762,1.7221,0.0,0.0,0.0,0.0,0.0,0.0,0.0,0.0,0.0,0.0,0.0,0.0,0.0,0.0,0.0,0.0,0.0,0.0,0.0,0.0,0.0,0.0,0.0,0.0,0.0,0.0,0.0,0.0,0.0,-3.6989,-3.9077,0.0,0.0,0.0,0.0,-3.9257,-3.8271,-3.8676,-4.1074,-4.011,-4.0553,-4.2975,-4.3088,-4.3501,-4.4327,-4.4864,-4.5134,-4.519,-4.5004,-4.4909,-4.4875,-4.3791,-4.3303,-4.3267,-4.2958,-4.1751,-3.9878,-3.7672,-3.6028,-3.4708,-3.2808,-3.147,-3.0654,-3.0501,-3.0361,-3.0261,-3.0178,-2.9724,-2.9132,-2.9087,-2.7764,-2.6045,-2.5312,-2.4612,0.0,0.0,-2.4271,-2.4364,-2.4009,-2.3779,-2.336,-2.2352,-2.1987,-2.1603,-2.0584,-2.0758,-2.0433,-1.8448,-1.7676,-1.6177,-1.2459,0.0,0.4328,1.0148,1.7428,2.292,2.4661,2.3284,2.1746,2.0698,2.0027,1.9507,1.9188,1.9587,1.9996,2.0298,2.0482,2.0026,1.868,1.7927,1.6807,1.525,1.448,0.0,0.0,0.0,0.0,0.0,0.0,0.0,0.0,0.0,0.0,0.0,0.0,0.0,0.0,0.0,0.0,0.0,0.0,0.0,0.0,0.0,0.0,0.0,0.0,0.0,0.0,0.0,0.0,-4.0447,-4.2229,0.0,-4.0232,-4.0988,-4.1732,-4.2013,-4.2488,-4.3342,-4.4614,-4.3567,-4.3516,-4.4796,-4.4346,-4.4458,-4.5266,-4.5461,-4.5563,-4.5563,-4.5473,-4.5351,-4.5157,-4.4244,-4.3646,-4.3284,-4.2648,-4.1741,-4.0574,-3.8833,-3.7091,-3.5436,-3.4427,-3.3458,-3.2649,-3.256,-3.2092,-3.1491,-3.1449,-3.0883,-2.994,-2.8866,-2.784,-2.6795,-2.5672,-2.5106,-2.4829,-2.4399,-2.4508,-2.4695,-2.4533,-2.4395,-2.4074,-2.336,-2.2931,-2.2395,-2.1175,-2.1336,-2.1226,-1.9867,-1.9569,-1.8734,-1.6247,-0.8854,-0.0863,0.6181,1.5276,2.178,2.311,2.1681,2.0502,2.046,1.9256,1.865,1.9079,1.9093,1.8888,1.8459,1.9141,1.8816,1.7118,1.6644,1.5909,1.4813,1.3409,1.255,0.0,0.0,0.0,0.0,0.0,0.0,0.0,0.0,0.0,0.0,0.0,0.0,0.0,0.0,0.0,0.0,0.0,0.0,0.0,0.0,0.0,0.0,0.0,0.0,0.0,-4.0084,-4.2108,-4.2733,-4.4799,-4.5145,-4.2543,-4.3819,-4.4779,-4.4722,-4.5302,-4.6059,-4.7031,-4.5913,-4.5433,-4.5863,-4.5283,-4.5105,-4.5368,-4.5933,-4.6215,-4.6215,-4.6158,-4.6042,-4.5835,-4.4624,-4.3725,-4.3002,-4.2349,-4.1469,-4.0313,-3.9238,-3.78,-3.6253,-3.5792,-3.5238,-3.4674,-3.4054,-3.3379,-3.2655,-3.1692,-3.0683,-2.9632,-2.8211,-2.7293,-2.6518,-2.5595,-2.5121,-2.486,-2.4399,-2.4508,-2.4815,-2.4815,-2.4735,-2.4614,-2.4292,-2.3598,-2.2803,-2.2062,-2.1873,-2.1583,-2.0713,-2.0617,-2.0134,-1.83,-1.146,-0.4113,0.2142,1.1783,1.8831,2.0287,1.9858,1.9566,2.0062,1.8965,1.8377,1.8805,1.86,1.8097,1.7323,1.7581,1.7246,1.6131,1.5348,1.4693,1.412,1.2366,1.133,1.1066,0.0,0.0,0.0,0.0,0.0,0.0,0.0,0.0,0.0,0.0,0.0,0.0,0.0,0.0,0.0,0.0,0.0,0.0,0.0,0.0,0.0,0.0,0.0,-3.8585,-4.1548,-4.367,-4.3785,-4.6695,-4.7721,-4.5214,-4.6482,-4.7451,-4.7392,-4.6422,-4.6515,-4.8108,-4.6868,-4.6136,-4.6197,-4.5975,-4.5531,-4.4749,-4.6353,-4.7183,-4.7193,-4.7014,-4.6936,-4.6899,-4.4957,-4.3485,-4.2456,-4.2176,-4.0975,-3.9085,-3.8903,-3.8198,-3.7297,-3.693,-3.6811,-3.6561,-3.4866,-3.4198,-3.374,-3.0828,-2.9213,-2.8281,-2.7408,-2.6318,-2.5318,-2.5287,-2.4798,-2.4223,-2.4208,-2.4508,-2.4815,-2.4815,-2.4815,-2.4895,-2.5153,-2.3989,-2.2909,-2.3185,-2.2419,-2.153,-2.1108,-2.1008,-2.0444,-1.8706,-1.1887,-0.5414,-0.1803,0.7026,0.0,1.6326,1.7836,1.8904,1.9427,1.9041,1.8704,1.8484,1.8137,1.7599,1.6984,1.5928,1.5436,1.5698,1.4072,1.3188,1.3164,1.1276,1.005,0.9654,0.0,0.0,0.0,0.0,0.0,0.0,0.0,0.0,0.0,0.0,0.0,0.0,0.0,0.0,0.0,0.0,0.0,0.0,0.0,0.0,0.0,-3.9232,-4.2134,-4.3022,-4.3942,-4.5476,-4.8005,-4.8582,-4.8748,-4.8648,-4.9036,-4.9262,-4.9184,-4.8871,-4.854,-4.8214,-4.7216,-4.659,-4.6409,-4.5681,-4.5494,-4.5874,-4.6222,-4.6687,-4.7174,-4.5922,-4.5603,-4.5998,-4.4308,-4.2903,-4.185,-4.1809,-4.0972,-3.9546,-3.8882,-3.8316,-3.7895,-3.7223,-3.6576,-3.5915,-3.5362,-3.432,-3.2955,-3.1011,-2.9892,-2.9128,-2.7756,-2.6615,-2.5686,-2.5489,-2.4916,-2.4343,-2.4614,-2.4799,-2.4863,-2.4863,-2.5059,-2.523,-2.523,-2.4226,-2.3172,-2.2663,-2.1712,-2.0617,-1.9437,-1.896,-1.8752,-1.8842,-1.4933,-0.974,-0.3535,0.4372,1.0875,1.4558,1.589,1.718,1.902,1.8588,1.8435,1.9209,1.8453,1.745,1.6365,1.5889,1.5097,1.383,1.3428,1.2704,1.1715,1.0636,0.9387,0.0,0.0,0.0,0.0,0.0,0.0,0.0,0.0,0.0,0.0,0.0,0.0,0.0,0.0,0.0,0.0,0.0,0.0,0.0,0.0,0.0,0.0,-4.1961,-4.4702,-4.6312,-4.6538,-4.7411,-4.9829,-4.9325,-4.885,-4.9003,-4.8953,-4.905,-4.9379,-4.8652,-4.8417,-4.8903,-4.7627,-4.6824,-4.6682,-4.609,-4.5816,-4.5886,-4.6138,-4.6434,-4.6814,-4.5387,-4.4885,-4.5218,-4.3528,-4.2333,-4.1632,-4.1297,-4.0492,-3.935,-3.837,-3.7698,0.0,0.0,0.0,0.0,0.0,-3.3457,-3.18,-3.0521,-2.9564,-2.8632,-2.7387,-2.6438,-2.5798,-2.5556,-2.516,-2.4863,-2.5098,-2.502,-2.4918,-2.4922,-2.4858,-2.4718,-2.4673,-2.366,-2.258,-2.2065,-2.0963,-1.9771,-1.8701,-1.7963,0.0,-1.7574,-1.494,-1.0872,-0.4967,0.1484,0.6998,1.0806,1.3367,1.5678,1.7784,1.7684,1.7849,1.885,1.791,0.0,0.0,0.0,1.3872,1.2251,1.2201,0.0,0.0,0.0,0.8717,0.7171,0.0,0.0,0.0,0.3389,0.0957,0.0,0.0,0.0,0.0,0.0,0.0,0.0,0.0,0.0,0.0,0.0,0.0,0.0,0.0,0.0,0.0,-4.4616,-4.6227,-4.8451,-4.8794,-4.9094,-4.9868,-4.9189,-4.844,-4.785,-4.7649,-4.7927,-4.8782,-4.7261,-4.728,-4.9493,-4.7907,0.0,0.0,0.0,-4.6204,-4.5381,-4.607,-4.633,-4.6172,-4.5071,-4.4487,-4.4379,-4.2686,-4.1732,-4.1428,-4.0663,-3.977,-3.8746,-3.7629,-3.6685,-3.5985,-3.634,-3.6335,-3.5864,-3.3739,-3.1982,-3.0594,-2.9679,0.0,0.0,-2.6757,-2.6137,-2.5684,-2.5668,-2.554,-2.5465,-2.554,-2.5249,-2.4904,-2.495,-2.4401,-2.3882,-2.39,-2.2762,-2.1631,-2.1577,-2.0328,-1.9058,-1.8577,-1.7706,-1.6659,-1.5626,-1.3219,-1.0077,-0.6215,-0.1196,0.3265,0.6509,1.0868,1.4351,1.6158,0.0,0.0,1.7879,1.6931,1.5808,1.4606,1.345,1.2254,1.1121,1.094,1.0778,1.0681,0.9344,0.8042,0.6837,0.5051,0.3111,0.0978,0.0691,-0.1323,0.0,0.0,0.0,0.0,0.0,0.0,0.0,0.0,0.0,0.0,0.0,0.0,0.0,0.0,0.0,-4.3034,-4.6387,-4.8768,-4.8584,-4.8702,-4.8853,-4.9035,-4.8326,-4.8291,-4.9469,-4.8944,-4.8879,-4.9688,-4.8769,-4.8068,-4.7822,-4.742,-4.6903,-4.6205,-4.6087,-4.596,-4.5791,-4.5819,-4.5776,-4.5573,-4.4057,0.0,-4.2815,-4.1749,-4.0811,-3.9996,-3.9827,-3.9258,-3.8347,-3.7424,-3.6503,-3.5599,-3.4834,-3.4472,-3.4143,-3.2109,-3.1098,-3.056,-2.9126,-2.8406,-2.8065,-2.7245,-2.6401,-2.5811,-2.6435,-2.5888,0.0,-2.5799,-2.5497,-2.4914,-2.4606,-2.441,-2.4199,-2.3885,-2.2913,-2.1961,-2.1925,-2.0492,-1.9058,-1.8577,-1.745,-1.6108,-1.4722,-1.2842,-1.0493,-0.7309,-0.2118,0.2667,0.5984,1.0226,1.3555,1.5182,1.6043,1.6561,1.6784,1.6238,1.5273,1.3691,1.2241,1.13,1.0892,1.1006,1.0717,0.9779,0.886,0.7726,0.651,0.3855,0.1963,0.0698,-0.0408,-0.2641,0.0,0.0,0.0,0.0,0.0,0.0,0.0,0.0,0.0,0.0,0.0,-3.8328,-4.0077,0.0,-4.4171,-4.5966,-4.814,-4.931,-4.8496,-4.8502,-4.8457,-4.8176,-4.7435,-4.7288,-4.8127,-4.7768,-4.785,-4.8684,-4.7908,-4.7381,-4.7358,-4.6902,-4.6443,-4.6016,-4.5972,-4.5925,-4.5893,-4.5819,-4.5499,-4.4886,-4.3602,-4.2654,-4.1972,-4.1074,-4.0528,-4.0297,-3.9448,-3.8794,-3.8145,-3.6424,-3.5413,-3.484,-3.3743,-3.3142,-3.2723,-3.1389,-3.0352,-2.9488,-2.8694,-2.8128,-2.7717,-2.7255,-2.6758,-2.6435,-2.6775,-2.6133,-2.5346,-2.5747,-2.5179,-2.4331,-2.3801,-2.3621,-2.3386,-2.2524,-2.1939,-2.1453,-2.0806,-1.976,-1.8679,-1.7947,-1.6692,-1.544,-1.4506,-1.2942,-1.0747,-0.757,-0.3464,0.0525,0.4088,0.8235,1.1504,1.3273,1.4387,1.5145,1.556,1.4666,1.3736,1.2822,1.1721,1.0861,1.0197,1.0283,0.9851,0.8877,0.7739,0.6535,0.518,0.293,0.1008,-0.0614,-0.2017,-0.3868,0.0,0.0,0.0,0.0,0.0,0.0,0.0,-3.444,-3.5642,-3.8163,-3.9357,-4.0824,-4.3787,-4.4709,-4.5937,-4.8816,-4.933,-4.9092,-4.8314,-4.8121,-4.7811,-4.7213,-4.6586,-4.6273,-4.6479,-4.6287,-4.6539,-4.7422,-4.6635,-4.6423,-4.7111,-4.6424,-4.5998,-4.5997,-4.5997,-4.5964,-4.5932,-4.5757,-4.5183,-4.4216,-4.3288,-4.2325,-4.1344,-4.0432,-4.0234,-4.0514,-3.8807,-3.7882,-3.7437,-3.5296,-3.4288,-3.3995,-3.2988,-3.2165,-3.1495,-3.0861,-2.9737,-2.8499,-2.831,-2.7846,-2.7282,-2.7184,-2.6952,-2.6687,-2.6737,-2.603,-2.521,-2.5357,-2.456,-2.3586,-2.3038,-2.2789,-2.2386,-2.1183,-2.1007,-2.0846,-1.9737,-1.8968,-1.8196,-1.7168,-1.5819,-1.4732,-1.4216,-1.2797,-1.075,-0.7765,-0.4895,-0.1693,0.2044,0.6034,0.9306,1.1216,1.2589,1.356,1.4195,1.2809,1.1905,1.185,1.1108,1.0296,0.9471,0.9295,0.8712,0.7649,0.6456,0.5091,0.3631,0.2041,0.0264,-0.1725,-0.3234,-0.4684,-2.9981,-2.9676,-3.0057,-3.1525,-3.2581,-3.4074,0.0,-3.8423,-3.9504,-4.1491,-4.2995,-4.4121,-4.4702,-4.6706,-4.8389,-4.8795,-4.9054,-4.8933,-4.8068,-4.7491,-4.6834,-4.599,-4.5859,-4.621,-4.7103,-4.6477,-4.6429,-4.7437,-4.6699,-4.6202,-4.6242,-4.615,-4.6052,-4.6007,-4.5997,-4.5997,-4.5986,-4.5287,-4.448,-4.3596,-4.271,-4.1698,-4.0593,-3.9706,-3.9138,-3.8793,-3.6971,-3.575,-3.4996,-3.463,-3.402,-3.328,-3.2804,-3.1678,-3.0257,-2.9818,-2.939,-2.8893,-2.807,-2.7565,-2.7299,-2.7282,-2.6497,-2.5644,-2.5982,-2.5009,-2.3885,-2.4517,-2.3885,-2.2988,-2.2905,-2.2622,-2.2149,-2.1417,-2.1276,-2.1023,-2.0058,-1.8919,-1.7754,-1.6705,-1.5174,-1.376,-1.2947,-1.146,-0.9952,-0.8626,-0.5873,-0.2617,0.0975,0.4702,0.7753,0.9862,1.1487,1.2442,1.2667,1.1181,1.0394,1.067,0.9653,0.896,0.8705,0.8354,0.7387,0.5681,0.5192,0.4107,0.2314,0.0879,-0.0189,-0.0904,-0.2953,-0.4543,-3.0099,-3.032,-3.0748,-3.103,-3.2761,-3.4865,-3.6795,-3.8592,-4.0317,-4.2099,-4.3793,-4.5132,-4.5686,-4.7046,-4.8348,-4.9108,-4.9292,-4.8979,-4.7892,-4.7526,-4.6916,-4.5572,-4.5472,-4.5738,-4.6368,-4.6173,-4.6166,-4.6605,-4.6368,-4.6191,-4.6165,-4.6113,-4.6092,-4.6066,-4.6107,-4.6093,-4.6066,-4.523,-4.4356,-4.3491,-4.2626,-4.1421,-3.9968,-3.9603,-3.8714,-3.7441,-3.6577,-3.5362,-3.3997,-3.3936,-3.336,-3.2422,-3.1718,-3.1016,-3.0332,-2.9761,-2.904,-2.8288,-2.7895,-2.7243,-2.6609,-2.6609,-2.5922,-2.5135,-2.5322,-2.4486,-2.3572,-2.3922,-2.3308,-2.253,-2.2348,-2.2161,-2.1827,-2.1166,-2.0764,-2.0317,-1.9492,-1.8416,-1.7316,-1.6338,-1.49,-1.3565,-1.2746,-1.1469,-1.0001,-0.8179,-0.5615,-0.275,0.0266,0.3658,0.6773,0.9321,1.0398,1.0913,1.0989,1.0306,0.9775,0.9464,0.9062,0.8324,0.7281,0.7012,0.6233,0.4844,0.4095,0.2935,0.1311,0.0441,-0.0693,-0.2069,-0.3024,-0.4077,-2.9512,-3.0252,-3.0956,-3.0673,-3.2661,-3.4972,-3.6119,-3.8198,-4.0351,-4.1968,-4.356,-4.4934,-4.5834,-4.6698,-4.7616,-4.8778,-4.899,-4.8652,-4.7567,-4.727,-4.6678,-4.5341,-4.5213,-4.5361,-4.5623,-4.5808,-4.593,-4.6007,-4.6128,-4.6195,-4.6204,-4.6149,-4.6128,-4.6108,-4.6153,-4.604,-4.5776,-4.4903,-4.4031,-4.3155,-4.2046,-4.0988,-3.998,-3.9413,-3.8005,-3.5968,-3.579,-3.4802,-3.3311,-3.3259,-3.2676,-3.1709,-3.0988,-3.0553,-3.0265,-2.9734,-2.8925,-2.8002,-2.7723,-2.7016,-2.6194,-2.5897,-2.5269,-2.4591,-2.4591,-2.3898,-2.3112,-2.3141,-2.2682,-2.2106,-2.1705,-2.1751,-2.1738,-2.086,-2.0431,-1.9924,-1.8977,-1.7973,-1.6915,-1.5738,-1.4437,-1.3224,-1.2099,-1.0894,-0.9376,-0.7357,-0.4991,-0.261,-0.027,0.3175,0.6318,0.8637,0.9358,0.9664,0.971,0.9396,0.8944,0.8429,0.8111,0.7335,0.5975,0.569,0.4997,0.383,0.3056,0.1925,0.0425,0.0062,-0.0986,-0.2675,-0.2897,-0.3549,-2.7619,-2.8687,-2.998,-3.0927,-3.2517,-3.4321,-3.6253,-3.814,-3.9966,-4.1512,-4.2591,-4.3628,-4.4813,-4.576,-4.6628,-4.7512,-4.7694,-4.7578,-4.707,-4.6355,-4.5684,-4.5156,-4.517,-4.5213,-4.5213,-4.5522,-4.5783,-4.5988,-4.613,-4.6197,-4.6202,-4.6205,-4.6172,-4.6093,-4.6095,-4.5721,-4.4947,-4.4071,-4.3202,-4.2331,-4.0602,-4.0192,-4.089,-3.8944,-3.6629,-3.4172,-3.4014,-3.3459,-3.2622,-3.2622,-3.206,-3.1219,-3.105,-3.0433,-2.9608,-2.9448,-2.9093,-2.85,-2.7479,-2.689,-2.6409,-2.538,-2.4505,-2.3822,-2.3822,-2.305,-2.213,-2.2089,-2.1986,-2.1735,-2.1007,-2.1556,-2.1961,-2.0628,-2.0499,-2.0252,-1.8736,-1.772,-1.6523,-1.4635,-1.3586,-1.2396,-1.0517,-0.8944,-0.7575,-0.6401,-0.4308,-0.2229,-0.0574,0.3468,0.6519,0.7442,0.8328,0.8871,0.9006,0.8119,0.7545,0.7545,0.648,0.5614,0.4944,0.4401,0.3463,0.2077,0.202,0.1198,-0.0472,-0.04,-0.0915,-0.1942,-0.245,-0.3026,-2.7486,-2.8935,-3.0304,-3.073,-3.24,-3.4182,-3.4815,-3.6319,-3.7724,-3.8241,-3.8267,-3.8507,-3.9698,-4.1089,-4.265,-4.4502,-4.6209,-4.7309,-4.7402,-4.7395,-4.6835,-4.5359,-4.5666,-4.5688,-4.4876,-4.5265,-4.5615,-4.5783,-4.5968,-4.6107,-4.6206,-4.6191,-4.6192,-4.6166,-4.5604,-4.5175,-4.4894,-4.345,-4.2589,-4.2265,-3.9995,-3.9032,-3.9217,-3.7371,-3.5743,-3.4361,-3.4276,-3.3365,-3.193,-3.1884,-3.1288,-3.0396,-3.0201,-2.9907,-2.9589,-2.945,-2.891,-2.814,-2.7554,-2.634,-2.4953,-2.4601,-2.3831,-2.3064,-2.3064,-2.2767,-2.2426,-2.2398,-2.2315,-2.2175,-2.1915,-2.1751,-2.1524,-2.1087,-2.0296,-1.9434,-1.8688,-1.7233,-1.5799,-1.491,-1.3209,-1.1563,-1.033,-0.8807,-0.6963,-0.4607,-0.2635,-0.0757,0.1044,0.332,0.5022,0.5814,0.6327,0.6663,0.6838,0.6745,0.6539,0.6268,0.5937,0.5332,0.4233,0.3569,0.2847,0.1902,0.1456,0.0732,-0.0456,-0.0461,-0.0922,-0.1826,-0.2072,-0.2681,-2.6899,-2.8741,-3.0437,-3.0266,-3.1562,-3.289,-3.3012,-3.4017,-3.5022,-3.5399,-3.5079,-3.5122,-3.6421,-3.7904,-3.9419,-4.0836,-4.3323,-4.5297,-4.577,-4.5974,-4.5811,-4.5257,-4.549,-4.5439,-4.4655,-4.5055,-4.5418,-4.5584,-4.5764,-4.5925,-4.6084,-4.6096,-4.5962,-4.5704,-4.4887,-4.4145,-4.3553,-4.2439,-4.1718,-4.1386,-3.9744,-3.8627,-3.7929,-3.6497,-3.5193,-3.4056,-3.3677,-3.2658,-3.1225,-3.0863,-3.0501,-3.0106,-2.9315,-2.9115,-2.9292,-2.882,-2.8035,-2.7209,-2.7116,-2.5877,-2.4275,-2.3909,-2.3302,-2.2712,-2.2712,-2.2659,-2.2605,-2.2453,-2.2443,-2.2349,-2.1974,-2.1691,-2.1401,-2.1023,-2.0004,-1.8968,-1.8535,-1.686,-1.5239,-1.4541,-1.2731,-1.09,-0.9689,-0.7919,-0.5741,-0.3061,-0.1519,-0.0105,0.1569,0.3106,0.4206,0.4705,0.5187,0.5559,0.5668,0.5782,0.5723,0.5449,0.5171,0.4505,0.3461,0.285,0.2181,0.1511,0.0953,0.028,-0.0393,-0.063,-0.1089,-0.1798,-0.1834,-0.2398,-2.5863,-2.8048,-3.0175,-2.9574,-2.9918,-3.0516,-3.0886,-3.1295,-3.1918,-3.2978,-3.2951,-3.3231,-3.4805,-3.6166,-3.7008,-3.6812,-3.9501,-4.1935,-4.2736,-4.2594,-4.3048,-4.4842,-4.4736,-4.4503,-4.4465,-4.4814,-4.5175,-4.5361,-4.5517,-4.567,-4.5873,-4.5832,-4.5483,-4.4754,-4.3936,-4.2713,-4.1049,-4.0988,-4.0559,-3.9738,-3.9641,-3.8741,-3.7108,-3.619,-3.4832,-3.3184,-3.2246,-3.1333,-3.0477,-2.9605,-2.9699,-3.0201,-2.8403,-2.8166,-2.8702,-2.7675,-2.6666,-2.5871,-2.6232,-2.5552,-2.4409,-2.3428,-2.2944,-2.2712,-2.2712,-2.2712,-2.2615,-2.2237,-2.2298,-2.226,-2.1245,-2.137,-2.154,-2.0545,-1.9671,-1.8881,-1.8196,-1.6608,-1.4923,-1.354,-1.1943,-1.0216,-0.8342,-0.6168,-0.3936,-0.1767,-0.1016,-0.0211,0.1046,0.283,0.3984,0.4154,0.4912,0.5399,0.5399,0.5167,0.5054,0.5054,0.4174,0.3347,0.2736,0.2124,0.1568,0.0898,0.0449,-0.0,-0.0393,-0.0842,-0.1347,-0.1797,-0.1797,-0.2298,-2.5346,-2.6552,-2.7906,-2.8336,-2.8241,-2.8159,-2.8721,-2.8372,-2.8163,-2.9,-2.8538,-2.8308,-2.9549,-3.1929,-3.435,-3.6209,-3.9676,-4.2723,-4.4528,-4.4939,-4.4844,-4.4399,-4.4742,-4.4785,-4.4121,-4.4411,-4.477,-4.5068,-4.5265,-4.5466,-4.5665,-4.5061,-4.4383,-4.3695,-4.2908,-4.1735,-4.014,-3.9429,-3.8981,-3.8741,-3.7493,-3.6696,-3.6259,-3.4687,-3.3394,-3.2356,-3.141,-3.0516,-2.964,-2.8774,-2.8504,-2.8562,-2.7939,-2.7788,-2.7886,-2.75,-2.6775,-2.5954,-2.5945,-2.5092,-2.392,-2.3481,-2.3164,-2.297,-2.2764,-2.2712,-2.2659,-2.2525,-2.2525,-2.2497,-2.2118,-2.1751,-2.1339,-2.0748,-1.9641,-1.8416,-1.7288,-1.5489,-1.3598,-1.2112,-0.9105,-0.6282,-0.4776,-0.3735,-0.2632,-0.1061,-0.0479,0.0109,0.0851,0.2351,0.3357,0.3357,0.3802,0.4135,0.4239,0.4239,0.4349,0.4408,0.4349,0.3793,0.2736,0.2569,0.1958,0.0898,0.0449,-0.0,-0.0393,-0.0505,-0.1121,-0.2074,-0.1792,-0.2291,-2.4403,-2.5259,-2.618,-2.6377,-2.6305,-2.6244,-2.6381,-2.5869,-2.5573,-2.6278,-2.5881,-2.579,-2.6978,-2.9808,-3.2361,-3.3622,-3.7129,-4.0391,-4.2457,-4.2969,-4.3292,-4.3647,-4.4108,-4.4192,-4.3744,-4.4016,-4.4308,-4.4511,-4.4919,-4.4939,-4.4397,-4.3893,-4.2969,-4.1589,-4.0754,-3.9762,-3.8529,-3.8008,-3.7763,-3.7767,-3.6437,-3.565,-3.5311,-3.3119,-3.1924,-3.1503,-3.015,-2.9294,-2.8811,-2.7926,-2.7754,-2.7958,-2.711,-2.6939,-2.715,-2.6688,-2.6117,-2.5555,-2.5489,-2.486,-2.406,-2.3717,-2.345,-2.3188,-2.2952,-2.2893,-2.2825,-2.2685,-2.2508,-2.2258,-2.1715,-2.1049,-2.0337,-1.959,-1.837,-1.7088,-1.6165,-1.417,-1.1762,-0.9167,-0.6537,-0.4244,-0.2768,-0.2347,-0.1816,-0.0547,-0.0,0.048,0.117,0.2355,0.3074,0.3074,0.3413,0.3638,0.3691,0.3913,0.4024,0.4079,0.4128,0.3793,0.3125,0.2569,0.2014,0.1288,0.0561,0.0112,-0.0112,-0.0449,-0.0953,-0.1624,-0.2015,-0.2631,-2.3145,-2.3815,-2.4403,-2.4055,-2.4268,-2.444,-2.4048,-2.3776,-2.3772,-2.4422,-2.4423,-2.4687,-2.6021,-2.8659,-3.0654,-3.0714,-3.3777,-3.6874,-3.8948,-3.9534,-4.0486,-4.2572,-4.2918,-4.3069,-4.3248,-4.352,-4.3712,-4.3714,-4.4221,-4.398,-4.269,-4.2391,-4.13,-3.9182,-3.8234,-3.7475,-3.6841,-3.6609,-3.6523,-3.6587,-3.5607,-3.4761,-3.3999,-3.1553,-3.0463,-3.0431,-2.8678,-2.7967,-2.7946,-2.7069,-2.7128,-2.7601,-2.6158,-2.5979,-2.6443,-2.5703,-2.5272,-2.5061,-2.5027,-2.4839,-2.45,-2.406,-2.3735,-2.341,-2.3157,-2.3095,-2.3028,-2.279,-2.2436,-2.1928,-2.087,-2.0072,-1.9232,-1.8044,-1.6738,-1.5568,-1.4765,-1.2388,-0.9341,-0.5641,-0.4195,-0.3087,-0.1623,-0.1437,-0.1089,0.0048,0.0541,0.1067,0.1785,0.2555,0.3056,0.3111,0.339,0.3561,0.3561,0.3776,0.395,0.3965,0.3796,0.3627,0.3572,0.2514,0.1846,0.179,0.0728,0.0168,0.0168,-0.0449,-0.0842,-0.0953,-0.213,-0.286,-2.1561,-2.1269,-2.0967,-2.2056,-2.1958,-2.1704,-2.2076,-2.2265,-2.2577,-2.3193,-2.3514,-2.3904,-2.4775,-2.6433,-2.8562,-3.1372,-3.3925,-3.647,-3.898,-4.0288,-4.0923,-4.0655,-4.1143,-4.1757,-4.249,-4.2683,-4.2721,-4.2654,-4.2329,-4.2016,-4.1744,-4.066,-3.9421,-3.8089,-3.673,-3.6183,-3.6483,-3.5119,-3.4436,-3.4411,-3.287,-3.1845,-3.1255,-3.0128,-2.922,-2.8529,-2.7488,-2.7035,-2.6977,-2.6097,-2.5835,-2.5916,-2.5634,-2.5609,-2.5707,-2.5605,-2.5498,-2.5386,-2.5226,-2.5077,-2.4891,-2.4278,-2.3945,-2.3732,-2.3247,-2.3095,-2.3028,-2.279,-2.2659,-2.2363,-2.1275,-2.0643,-1.9833,-1.7923,-1.657,-1.5103,-1.2914,-0.9193,-0.5626,-0.3541,-0.2056,-0.0856,-0.0142,0.0143,0.0528,0.1289,0.1652,0.2066,0.2686,0.2833,0.2902,0.3009,0.3166,0.3324,0.3433,0.3593,0.3689,0.3846,0.391,0.3799,0.3466,0.2742,0.2184,0.179,0.0728,0.0168,0.0056,-0.0112,-0.0392,-0.0895,-0.1174,-0.2068,-1.9621,-1.9424,-1.9407,-2.0517,-2.0797,-2.0742,-2.0812,-2.0862,-2.0998,-2.1268,-2.1836,-2.2622,-2.3595,-2.5447,-2.7488,-2.9612,-3.2107,-3.4594,-3.7004,-3.8645,-3.9598,-3.9572,-4.044,-4.1049,-4.1149,-4.1029,-4.0856,-4.0596,-3.9404,-3.8939,-3.95,-3.7753,-3.6521,-3.6007,-3.492,-3.4516,-3.4848,-3.3631,-3.2599,-3.1749,-3.0948,-3.0017,-2.8956,-2.8145,-2.7621,-2.7271,-2.6437,-2.61,-2.6087,-2.5714,-2.5554,-2.5567,-2.5584,-2.5584,-2.5553,-2.5593,-2.5565,-2.5498,-2.5381,-2.529,-2.5146,-2.4796,-2.4454,-2.4136,-2.3741,-2.3544,-2.3399,-2.3146,-2.267,-2.196,-2.0738,-1.9487,-1.803,-1.5926,-1.3594,-1.1281,-0.9262,-0.6329,-0.3491,-0.1643,-0.0549,0.0316,0.0948,0.1403,0.1758,0.2074,0.2412,0.2768,0.3115,0.3079,0.3089,0.3097,0.3261,0.3321,0.3205,0.3365,0.3531,0.3698,0.3809,0.3839,0.3744,0.3081,0.2635,0.241,0.1177,0.0505,0.0449,0.0449,0.0336,0.0056,-0.028,-0.1568,-1.7816,-1.7939,-1.8247,-1.9097,-1.9629,-1.9867,-1.9517,-1.9634,-1.9755,-1.9734,-2.0556,-2.1527,-2.248,-2.4298,-2.5998,-2.7088,-2.951,-3.2006,-3.4117,-3.6218,-3.773,-3.8204,-3.9372,-3.9907,-3.9368,-3.9076,-3.8695,-3.8136,-3.6464,-3.5876,-3.6924,-3.4925,-3.3849,-3.405,-3.3331,-3.2983,-3.3064,-3.2257,-3.1149,-2.9715,-2.9526,-2.8641,-2.7153,-2.6536,-2.624,-2.6188,-2.5562,-2.5324,-2.5381,-2.5467,-2.5486,-2.549,-2.5586,-2.5581,-2.5541,-2.5545,-2.5497,-2.5451,-2.546,-2.5383,-2.5284,-2.526,-2.4938,-2.4538,-2.4261,-2.3968,-2.3717,-2.3441,-2.2547,-2.1371,-2.0094,-1.8313,-1.6189,-1.3517,-1.0273,-0.7299,-0.5462,-0.3446,-0.1461,0.0324,0.11,0.1593,0.2135,0.2632,0.2943,0.2837,0.3179,0.3475,0.3543,0.3512,0.346,0.3326,0.3352,0.3284,0.3087,0.3187,0.3362,0.3467,0.3647,0.3761,0.392,0.3269,0.2952,0.2974,0.1794,0.1178,0.1178,0.0898,0.0785,0.0673,0.0224,-0.1122,-1.6472,-1.6653,-1.6837,-1.7445,-1.7737,-1.7877,-1.7769,-1.878,-1.9682,-1.9629,-2.0538,-2.1424,-2.1534,-2.1944,-2.2873,-2.4676,-2.679,-2.8919,-3.0951,-3.381,-3.5657,-3.5641,-3.6761,-3.7425,-3.7089,-3.7126,-3.6697,-3.5613,-3.4154,-3.3671,-3.4563,-3.3128,-3.2573,-3.3187,-3.2491,-3.2058,-3.1964,-3.1163,-3.0327,-2.9434,-2.8633,-2.7508,-2.6136,-2.6124,-2.5698,-2.4966,-2.4955,-2.4943,-2.4974,-2.5091,-2.5157,-2.5154,-2.5281,-2.5337,-2.5328,-2.5323,-2.5318,-2.5318,-2.533,-2.5303,-2.5317,-2.5359,-2.5139,-2.4809,-2.4463,-2.4062,-2.3642,-2.3388,-2.2314,-2.101,-1.9894,-1.8343,-1.5951,-1.155,-0.8279,-0.5392,-0.2664,-0.0388,0.1511,0.2663,0.3395,0.3754,0.3551,0.4037,0.4304,0.3922,0.4092,0.4308,0.428,0.4248,0.4083,0.3694,0.3274,0.3066,0.315,0.3115,0.3031,0.3031,0.3286,0.3512,0.3632,0.3048,0.2823,0.2972,0.241,0.2074,0.2079,0.0954,0.0336,0.0056,-0.0,-0.0617,-1.5241,-1.584,-1.6494,-1.7791,-1.7811,-1.7507,-1.765,-1.7647,-1.7594,-1.7666,-1.8803,-1.9881,-2.018,-2.0966,-2.1931,-2.3137,-2.469,-2.6573,-2.8921,-3.1011,-3.2684,-3.3849,-3.48,-3.5225,-3.474,-3.4816,-3.4314,-3.2844,-3.1618,-3.1196,-3.1795,-3.1568,-3.1208,-3.0721,-3.0358,-2.9784,-2.8919,-2.8548,-2.7749,-2.6508,-2.6162,-2.5479,-2.4503,-2.4617,-2.454,-2.4312,-2.4428,-2.4523,-2.4603,-2.4662,-2.47,-2.4755,-2.4839,-2.49,-2.4943,-2.4985,-2.5011,-2.5069,-2.5062,-2.5143,-2.5214,-2.5119,-2.4764,-2.4418,-2.4782,-2.4639,-2.4343,-2.4217,-2.3042,-2.1223,-1.8753,-1.3715,-0.8836,-0.7026,-0.3481,-0.0282,0.0675,0.2545,0.4289,0.529,0.5581,0.5692,0.5668,0.5636,0.548,0.509,0.513,0.5173,0.5173,0.5178,0.5091,0.4918,0.4104,0.3475,0.3351,0.3328,0.3351,0.3492,0.3527,0.3585,0.3714,0.3417,0.3262,0.336,0.2464,0.2298,0.3035,0.2585,0.1515,-0.0,-0.0393,-0.0729,-1.3631,-1.4917,-1.6249,-1.749,-1.7554,-1.7382,-1.7542,-1.6946,-1.6452,-1.6503,-1.7482,-1.8497,-1.8936,-1.9927,-2.0838,-2.1361,-2.2841,-2.4595,-2.6611,-2.8196,-2.9737,-3.1443,-3.1998,-3.2075,-3.1753,-3.1836,-3.1446,-3.0286,-2.9741,-2.9254,-2.8745,-2.9253,-2.9298,-2.8688,-2.8441,-2.771,-2.6428,-2.6428,-2.5754,-2.4322,-2.4389,-2.4046,-2.3392,-2.3414,-2.3548,-2.3771,-2.3798,-2.3877,0.0,-2.4007,-2.4061,-2.415,-2.4238,-2.4294,-2.4321,-2.4174,-2.4098,-2.4044,-2.3878,-2.3909,-2.4087,-2.4106,-2.3554,-2.3023,-2.3778,-2.398,-2.3944,-2.3909,-2.1369,-1.7906,-1.4658,-0.8226,-0.246,-0.1868,0.0958,0.3633,0.4065,0.5359,0.6739,0.7626,0.761,0.7398,0.7378,0.7242,0.6932,0.6392,0.6277,0.6289,0.6289,0.6198,0.607,0.5947,0.5213,0.4443,0.3751,0.3707,0.3731,0.3685,0.372,0.3717,0.3755,0.3678,0.3657,0.3583,0.2742,0.2745,0.3593,0.3604,0.2529,0.0504,0.028,0.0056,-1.1634,-1.375,-1.5799,-1.5799,-1.6491,-1.7075,-1.6995,-1.6957,-1.6863,-1.6788,-1.7221,-1.7677,-1.7852,-1.8489,-1.8967,-1.9186,-2.1236,-2.3058,-2.3728,-2.541,-2.699,-2.8124,-2.7842,-2.7691,-2.792,-2.8026,-2.8092,-2.8139,-2.874,-2.7989,-2.5406,-2.5831,-2.6623,-2.7678,-2.707,-2.6204,-2.5118,-2.5332,-2.4848,-2.369,-2.3903,-2.3691,-2.3093,-2.2919,-2.2968,-2.3189,-2.2999,-2.2957,0.0,-2.3099,-2.3186,-2.3325,-2.3469,-2.3497,-2.3428,-2.2786,-2.2363,-2.2042,-2.1442,-2.1337,-2.1542,-2.2135,-2.1383,-2.0372,-2.1043,-2.157,-2.1928,-2.1854,-1.6289,-0.9683,-0.6839,-0.2596,0.1474,0.3601,0.4445,0.5312,0.7305,0.811,0.8692,0.952,0.9328,0.8894,0.8374,0.8665,0.8699,0.7799,0.7682,0.7682,0.7682,0.7321,0.6932,0.6531,0.6525,0.5967,0.4517,0.4339,0.405,0.3452,0.3761,0.3873,0.3627,0.3752,0.3723,0.3583,0.3583,0.3583,0.3585,0.3593,0.2974,0.179,0.2415,0.2245,-1.2392,-1.4096,-1.5747,-1.6792,-1.6585,-1.6213,-1.6582,-1.578,-1.5106,-1.5468,-1.6279,-1.6866,-1.6922,-1.7902,-1.8797,-1.9383,-2.0471,-2.1617,-2.2666,-2.403,-2.531,-2.6606,-2.7057,-2.7286,-2.7328,-2.7039,-2.6929,-2.7188,-2.6728,-2.588,-2.4643,-2.3963,-2.3743,-2.393,-2.4261,-2.3859,-2.2558,-2.2965,-2.2706,-2.184,-2.1826,-2.1694,-2.154,-2.1523,-2.1595,-2.1769,-2.1802,-2.1678,-2.1504,-2.1618,-2.1312,-2.0849,-2.1562,-2.1291,-2.055,-2.1034,-2.0651,-1.984,-1.9393,-1.921,-1.9152,-1.8734,-1.7971,-1.7174,-1.6959,-1.8151,-1.8693,-1.4445,-0.9413,-0.4358,-0.0343,0.4419,0.8157,0.8117,0.9659,1.1137,1.1149,1.1536,1.1868,1.1722,1.1325,1.0814,1.0139,0.9897,0.964,0.9079,0.9013,0.8916,0.8707,0.8561,0.8342,0.8039,0.775,0.7074,0.5918,0.5415,0.5115,0.509,0.4686,0.4511,0.4632,0.4207,0.4033,0.4187,0.3805,0.3585,0.3585,0.3588,0.2856,0.1454,0.1903,0.1847,-1.2697,-1.4076,-1.5513,-1.6616,-1.643,-1.6022,-1.6477,-1.5599,-1.4711,-1.5101,-1.5625,-1.6093,-1.6161,-1.7194,-1.82,-1.8714,-1.9541,-2.0535,-2.151,-2.2564,-2.3616,-2.4553,-2.5474,-2.5932,-2.5703,-2.5422,-2.5286,-2.5589,-2.4814,-2.3851,-2.2761,-2.1901,-2.1243,-2.0844,-2.1976,-2.1975,-2.0715,-2.1159,-2.0994,-2.0255,-2.0206,-2.0156,-2.0091,-2.0107,-2.0177,-2.0346,-2.0393,-2.0198,0.0,-1.9984,-1.9609,-1.8998,-1.9531,-1.9148,-1.8355,-1.8617,-1.8024,-1.7011,-1.6545,-1.6189,-1.5871,-1.5561,-1.4693,-1.3557,-1.2232,-1.3835,-1.4854,-0.895,-0.3935,0.0741,0.5389,1.0181,1.3598,1.2801,1.3664,1.4461,1.3756,1.3679,1.3659,1.328,1.2738,1.2165,1.1516,1.1094,1.0695,1.0156,1.0166,1.0118,0.9847,0.9884,0.9746,0.9262,0.8973,0.8466,0.7627,0.6548,0.5908,0.5871,0.5319,0.5059,0.5224,0.4706,0.446,0.4515,0.4353,0.4024,0.3585,0.3585,0.3355,0.2901,0.2517,0.235,0.0,-1.3828,-1.5096,-1.5734,-1.6018,-1.6233,-1.6693,-1.6053,0.0,-1.538,-1.541,-1.5478,-1.5614,-1.6481,-1.7172,-1.7296,-1.8572,-1.9698,-2.0153,-2.1192,-2.192,-2.2188,-2.3181,-2.3649,-2.3102,-2.3162,-2.3241,-2.3305,-2.2853,-2.1821,-2.0007,-1.9642,-1.9153,-1.8411,-1.9998,-2.043,-1.9513,-1.9834,-1.9641,-1.891,-1.9016,-1.8943,-1.8722,-1.8711,-1.8772,-1.887,-1.878,-1.8503,-1.8124,-1.818,-1.7946,-1.7497,-1.7342,-1.7004,-1.651,-1.5709,-1.4738,-1.3728,-1.3134,-1.247,-1.1983,-1.2459,-1.1452,-0.9591,-0.6969,-0.853,-1.009,-0.4747,0.0648,0.5892,1.0588,1.476,1.765,1.7292,1.6488,1.5683,1.5315,1.4781,1.4332,1.4274,1.365,1.2998,1.2555,1.2247,1.1822,1.1134,1.121,1.1287,1.1126,1.1266,1.1103,1.0321,1.0225,0.9984,0.9415,0.7787,0.6575,0.5948,0.5682,0.5539,0.5531,0.5301,0.5014,0.4622,0.5062,0.4787,0.3694,0.3694,0.4359,0.5529,0.4089,0.3583,-1.4587,0.0,-1.5355,-1.6327,-1.6023,-1.5695,0.0,-1.5659,-1.4733,-1.5177,-1.5264,-1.5264,-1.542,-1.6068,-1.6546,-1.6702,-1.7403,-1.8165,-1.87,-2.0375,-2.1491,-2.1186,-2.2097,-2.197,-1.992,-2.0546,-2.0925,-2.0514,-1.9885,-1.9123,-1.8239,-1.7599,-1.7028,-1.6471,-1.7183,-1.7963,-1.866,-1.8285,-1.8011,-1.7933,-1.78,-1.7518,-1.7152,-1.7275,-1.718,-1.6868,-1.7005,-1.6824,-1.6477,-1.6388,-1.5646,-1.4656,-1.5143,-1.4245,-1.2722,-1.3383,-1.2482,-1.0878,-1.0281,-0.9648,-0.8958,-0.7949,-0.6894,-0.5327,-0.1417,-0.1257,-0.1533,0.293,0.7875,1.2733,1.6675,1.836,1.8906,1.837,1.7956,1.7496,1.6913,1.6275,1.5643,1.5079,1.4242,1.3535,1.3216,1.2911,1.2603,1.234,1.2543,1.2579,1.2199,1.2186,1.205,1.1586,1.0733,1.0137,0.9987,0.8736,0.7698,0.7223,0.7104,0.6806,0.6164,0.6101,0.599,0.5828,0.5496,0.5171,0.4897,0.4897,0.5007,0.5226,0.4838,0.4677,-1.4843,-1.5254,-1.5725,-1.7102,-1.6698,-1.614,-1.6863,-1.5995,-1.5032,-1.5099,-1.5098,-1.5147,-1.5254,-1.6043,-1.6638,-1.6618,-1.7378,-1.8092,-1.844,-1.9514,-2.0342,-2.0466,-2.0842,-2.058,-1.9313,-1.9137,-1.8929,-1.8614,-1.749,-1.6688,-1.6421,-1.5605,-1.5141,-1.5061,-1.4994,-1.5672,-1.7151,-1.7136,-1.6844,-1.6311,-1.6476,-1.6176,-1.5552,-1.546,-1.5292,-1.507,-1.4991,-1.4541,-1.3872,-1.3891,-1.3156,-1.2086,-1.2396,-1.1697,-1.0517,-1.0787,-1.006,-0.8862,-0.8166,-0.7305,-0.6324,-0.499,-0.3064,-0.0749,0.194,0.4778,0.7507,0.96,1.227,1.5299,1.8896,1.9821,1.9611,1.9024,1.8681,1.8298,1.762,1.7044,1.6522,1.6001,1.5242,1.4634,1.4401,1.4026,1.3616,1.327,1.3446,1.3461,1.3045,1.2905,1.2675,1.2294,1.156,1.0908,1.0477,0.9812,0.8949,0.7963,0.748,0.7145,0.6801,0.6579,0.6487,0.6588,0.5769,0.555,0.61,0.5769,0.5873,0.6303,0.5919,0.5756,-1.4506,-1.5115,-1.6028,-1.7647,-1.7374,-1.678,-1.7206,-1.6478,-1.5536,-1.5088,-1.497,-1.5018,-1.5329,-1.6162,-1.6812,-1.665,-1.7494,-1.8291,-1.8572,-1.862,-1.8751,-1.9356,-1.9181,-1.8984,-1.892,-1.7737,-1.6994,-1.6848,-1.5382,-1.4509,-1.4573,-1.3787,-1.3433,-1.3803,-1.3243,-1.3575,-1.4947,-1.5768,-1.5648,-1.4539,-1.4959,-1.4755,-1.4014,-1.3564,-1.3365,-1.327,-1.2869,0.0,-1.1379,-1.1362,-1.079,-0.996,-0.9701,-0.9361,-0.8918,-0.8254,-0.7713,-0.7168,-0.6295,-0.5224,-0.3963,-0.2494,0.0267,0.3334,0.5056,0.991,1.4851,1.5163,1.5434,1.6314,1.9284,2.005,1.9896,1.935,1.8998,1.8605,1.7933,1.7528,1.7166,1.6876,1.6316,1.5831,1.5605,1.511,1.4615,1.4032,1.4109,1.4124,1.3782,1.3536,1.322,1.2824,1.2401,1.1818,1.1009,1.0805,1.0095,0.8676,0.7738,0.7324,0.751,0.6989,0.6873,0.7233,0.6244,0.6258,0.73,0.6691,0.6822,0.7694,0.7143,0.687,-1.4688,-1.5434,-1.622,-1.7038,-1.6786,-1.6447,-1.7005,-1.5851,-1.4734,-1.4715,-1.4775,-1.499,-1.5908,-1.5951,-1.5932,-1.6246,-1.6252,-1.6615,-1.7733,-1.7624,-1.7153,-1.6349,-1.6542,-1.6063,-1.4469,-1.4664,-1.4563,-1.3914,-1.3386,-1.3004,-1.2709,-1.2182,-1.1917,-1.2006,-1.1831,-1.1675,-1.1536,-1.2763,-1.3412,-1.3375,-1.3097,-1.2926,-1.2851,-1.2162,-1.1661,-1.1399,0.0,-1.0939,-1.0822,-1.0006,-0.9383,-0.8844,-0.8108,-0.73,-0.6584,-0.6373,-0.5919,-0.5255,-0.4113,-0.3152,-0.1953,0.1401,0.317,0.5146,1.1338,1.3953,1.5472,1.8642,1.9505,1.9581,2.0109,2.0017,1.9688,1.943,1.9253,1.8965,1.8417,1.8159,1.7868,1.7392,1.6807,1.6249,1.5844,1.5502,1.5138,1.4645,1.4683,1.4694,1.4483,1.4245,1.3974,1.3557,1.2918,1.2342,1.1906,1.1201,1.0679,1.04,0.9486,0.8631,0.795,0.7758,0.7722,0.7758,0.7874,0.7996,0.818,0.8109,0.7988,0.7891,0.8053,0.7973,-1.4341,-1.5284,-1.6291,-1.6792,-1.7096,-1.7199,-1.7273,-1.644,-1.5457,-1.4787,-1.4687,-1.4796,-1.4908,-1.5411,-1.5909,-1.6368,-1.5833,-1.5513,-1.5837,-1.5559,-1.5175,-1.4703,-1.4504,-1.4216,-1.3755,-1.3192,-1.265,-1.2137,-1.1475,-1.0963,-1.0678,-1.0426,-1.0281,-1.0281,-1.0324,-1.001,-0.9238,-0.9893,-1.0705,-1.1639,-1.1818,-1.1729,-1.1358,-1.0637,-1.0069,-0.9717,0.0,-0.9057,-0.8882,-0.8337,-0.7795,-0.7276,-0.6641,-0.5995,-0.5422,-0.5158,-0.4465,-0.3602,-0.3287,-0.2539,-0.1085,0.2546,0.5327,0.8268,1.348,1.6385,1.8255,2.001,2.0454,2.0386,2.0311,2.0161,1.9972,1.9676,1.9481,1.9231,1.8824,1.8532,1.8258,1.7854,1.7415,1.6987,1.6668,1.6305,1.593,1.5616,1.5492,1.5323,1.4972,1.4662,1.4342,1.4044,1.3352,1.2785,1.2449,1.1877,1.1185,1.0244,0.9488,0.8889,0.844,0.8132,0.8022,0.8184,0.8311,0.8374,0.8387,0.8896,0.9092,0.8947,0.9607,0.9724,-1.3881,-1.487,-1.5947,-1.6364,-1.7016,-1.7581,-1.7254,-1.6523,-1.5662,-1.4555,-1.4401,-1.435,-1.3973,-1.4739,-1.5631,-1.6092,-1.5176,-1.4403,-1.4379,-1.3793,-1.3416,-1.3611,-1.2863,-1.2615,-1.3181,-1.1772,-1.0746,-1.0576,-0.9798,-0.9219,-0.9066,-0.8817,-0.8698,-0.8698,-0.86,-0.8178,-0.7422,-0.7587,-0.8376,-0.9776,-1.012,-1.0179,-0.9835,-0.896,-0.8488,-0.8271,-0.77,-0.7284,-0.7012,-0.6684,-0.6263,-0.5805,-0.5199,-0.469,-0.4256,-0.4085,-0.3293,-0.2413,-0.2719,-0.2186,-0.0647,0.387,0.7392,1.067,1.5103,1.8337,2.0503,2.0491,2.0482,2.0444,2.0334,2.0287,2.0188,1.9907,1.9682,1.9443,1.9172,1.8876,1.8589,1.8298,1.8005,1.7715,1.7422,1.7057,1.668,1.639,1.616,1.5853,1.5445,1.5088,1.4762,1.4491,1.3955,1.3459,1.3051,1.2716,1.1903,1.0568,0.972,0.9237,0.9169,0.8746,0.8663,0.8962,0.8913,0.8971,0.9113,0.9917,1.0285,1.0292,1.1148,1.1273,-1.3511,-1.4147,-1.4893,-1.5255,-1.5803,-1.6393,-1.6608,-1.5317,-1.3953,-1.3719,-1.3457,-1.3469,-1.3915,-1.3995,-1.4174,-1.4561,-1.3462,-1.3107,-1.4523,-1.3348,-1.2463,-1.2931,-1.1844,-1.0973,-1.0751,-0.9629,-0.8868,-0.8734,-0.8579,-0.8403,-0.8279,-0.7629,-0.7272,-0.7272,-0.647,-0.6041,-0.5932,-0.6204,-0.6838,-0.7876,-0.7362,-0.7522,-0.8258,-0.7213,-0.6966,-0.7187,-0.6317,-0.6091,-0.6225,-0.5234,-0.4848,-0.4714,-0.3795,-0.3055,-0.2499,-0.2726,-0.2502,-0.201,-0.1791,-0.1658,-0.0338,0.7217,0.9629,1.0926,1.7974,2.0297,2.0506,2.0496,2.0458,2.0399,2.0311,2.0214,2.0078,2.0019,1.9774,1.9567,1.9485,1.9346,1.913,1.8717,1.8532,1.8258,1.7687,1.7445,1.7157,1.6667,1.6401,1.6225,1.6055,1.579,1.5431,1.5002,1.4907,1.4599,1.3942,1.3591,1.3216,1.2787,1.1248,1.0339,1.0205,1.0077,1.0224,1.0596,1.0501,1.0721,1.1285,1.166,1.1748,1.1576,1.2272,1.2168,-1.195,-1.2603,-1.3325,-1.3437,-1.3739,-1.4348,-1.5634,-1.5259,-1.4284,-1.3334,-1.3454,-1.3543,-1.3244,-1.2319,-1.184,-1.2221,-1.1322,-1.0842,-1.1417,-1.1065,-1.0634,-1.0587,-1.0002,-0.9609,-0.9516,-0.8393,-0.7557,-0.737,-0.6784,-0.6337,-0.6161,-0.5859,-0.571,-0.571,-0.555,-0.5336,-0.5011,-0.4882,-0.4871,-0.4969,-0.5734,-0.6225,-0.6333,-0.5584,-0.5214,-0.516,-0.5058,-0.5117,-0.5214,-0.4776,-0.4386,-0.4012,-0.2822,-0.2089,-0.1744,-0.1791,-0.1475,-0.1028,-0.1029,0.0499,0.3337,0.8431,1.1443,1.4025,1.9044,2.0521,2.0503,2.051,2.0476,2.0443,2.0392,2.0294,2.0208,2.0098,1.999,1.9866,1.9719,1.9526,1.9265,1.8942,1.8771,1.8566,1.8177,1.7877,1.7653,1.7448,1.71,1.6743,1.6445,1.6336,1.6092,1.56,1.5271,1.488,1.4407,1.4147,1.3958,1.3801,1.2213,1.1212,1.1188,1.0834,1.0818,1.1162,1.1107,1.1398,1.1978,1.2439,1.2802,1.3086,1.3666,1.3782,-1.1219,-1.1706,-1.2256,-1.2443,-1.2459,-1.2827,-1.4403,-1.4318,-1.3784,-1.2927,-1.2634,-1.2437,-1.18,-1.0527,-0.9763,-1.0165,-0.952,-0.903,-0.9324,-0.9199,-0.8985,-0.8595,-0.8263,-0.7999,-0.7727,-0.6678,-0.6047,-0.6057,-0.5358,-0.4922,-0.4863,-0.4702,-0.4508,-0.434,-0.434,-0.4064,-0.3511,-0.3392,-0.3116,-0.2788,-0.3594,-0.4197,-0.4542,-0.411,-0.384,-0.3729,-0.3846,-0.4012,-0.4177,-0.379,-0.3363,-0.2841,-0.1999,-0.1394,-0.1074,-0.1164,-0.0805,-0.0358,-0.0626,0.175,0.5458,0.896,1.2369,1.5784,1.9458,2.0543,2.0522,2.0516,2.051,2.0472,2.0424,2.0371,2.0302,2.0161,2.0098,2.0021,1.9899,1.9695,1.9453,1.9219,1.903,1.886,1.8587,1.8318,1.8073,1.7907,1.7642,1.728,1.6811,1.6789,1.6658,1.6191,1.5749,1.5374,1.5198,1.4947,1.4795,1.4779,1.3539,1.2708,1.2482,1.197,1.1894,1.2263,1.2133,1.2446,1.327,1.3716,1.4255,1.4838,1.5369,1.5475,-1.1654,-1.1676,-1.1819,-1.2415,-1.2339,-1.2224,-1.2698,-1.2239,-1.1878,-1.2308,-1.0964,-0.9679,-0.962,-0.8755,-0.8162,-0.8515,-0.7983,-0.7923,-0.8922,-0.8193,-0.7485,-0.7316,-0.6651,-0.5958,-0.5161,-0.4339,-0.4105,-0.4543,-0.4515,-0.4524,-0.4663,-0.4251,-0.3674,-0.3118,-0.2514,-0.1902,-0.1285,-0.1621,-0.1734,-0.1566,-0.0782,-0.1282,-0.2894,-0.2845,-0.2956,-0.3063,-0.2676,-0.2681,-0.3019,-0.2124,-0.1502,-0.1101,-0.1256,-0.0929,-0.0447,-0.076,-0.0582,-0.0224,-0.0582,0.1667,0.5266,0.8924,1.2314,1.5655,1.9373,2.0543,2.0594,2.0519,2.0503,2.0496,2.0415,2.04,2.0369,2.0231,2.0106,2.0011,2.0011,1.9896,1.9738,1.9541,1.9343,1.9139,1.893,1.8734,1.8452,1.7971,1.7975,1.7786,1.7207,1.7224,1.7134,1.6773,1.6474,1.634,1.6389,1.6099,1.5877,1.5807,1.5432,1.4868,1.4149,1.3736,1.3703,1.4084,1.3657,1.4038,1.5319,1.562,1.6184,1.6902,1.7327,1.7218,-0.9939,-1.0296,-1.0645,-1.0615,-1.0828,-1.0941,-1.0767,-1.1146,-1.1389,-1.0636,-0.9428,-0.8456,-0.8542,-0.7638,-0.6954,-0.7132,-0.641,-0.5834,-0.5877,-0.5617,-0.5182,-0.46,-0.4487,-0.4403,-0.4166,-0.3485,-0.3091,-0.3271,-0.286,-0.2467,-0.2204,-0.2018,-0.1729,-0.1227,-0.1228,-0.1174,-0.1006,-0.0896,-0.0784,-0.0728,-0.0224,-0.0559,-0.1618,-0.0669,-0.0502,-0.0892,-0.0781,-0.0837,-0.0892,-0.0818,-0.0736,-0.0703,-0.0241,0.0139,0.0403,0.0492,0.0537,0.0582,0.0671,0.4161,0.8845,1.0258,1.4446,1.9122,2.023,2.0586,2.0605,2.0572,2.057,2.055,2.05,2.0437,2.0388,2.0299,2.0235,2.0211,2.0143,2.005,1.9907,1.9738,1.9545,1.939,1.9328,1.913,1.8912,1.8842,1.8717,1.8514,1.8186,1.789,1.7693,1.7681,1.7363,1.7142,1.7166,1.6872,1.6664,1.6655,1.636,1.576,1.4823,1.4687,1.4578,1.4523,1.4406,1.4789,1.5778,1.5878,1.6477,1.7558,1.7652,1.7652,-0.8959,-0.9319,-0.9581,-0.9224,-0.9321,-0.9485,-0.9029,-0.9667,-1.019,-0.9375,-0.8238,-0.7484,-0.7561,-0.6651,-0.5796,-0.5708,-0.5086,-0.4415,-0.3951,-0.3793,-0.3494,-0.2785,-0.2802,-0.2796,-0.2669,-0.2297,-0.2102,-0.2073,-0.1639,-0.1229,-0.0838,-0.0726,-0.0503,-0.0112,-0.0168,-0.0112,0.0,0.028,0.0336,0.028,0.0672,0.0448,-0.028,0.0559,0.067,0.0279,0.0168,0.0279,0.0502,0.0328,0.0319,0.041,0.1053,0.1299,0.1331,0.1492,0.1426,0.1257,0.1368,0.5432,1.0608,1.086,1.5312,2.0601,2.0565,2.0583,2.0598,2.0578,2.0578,2.0576,2.0516,2.0475,2.0418,2.0366,2.0332,2.0287,2.0254,2.0161,2.0031,1.9901,1.9774,1.9656,1.9564,1.9405,1.9271,1.9216,1.8981,1.8789,1.8681,1.8286,1.8083,1.8208,1.7915,1.7737,1.7808,1.7575,1.7555,1.7856,1.7434,1.7018,1.6689,1.5953,1.5462,1.5316,1.5594,1.6162,1.6915,1.7242,1.7892,1.8864,1.8864,1.8864,-0.8443,-0.8636,-0.867,-0.8135,-0.807,-0.8034,-0.7615,-0.7938,-0.8312,-0.8187,-0.732,-0.6588,-0.6641,-0.567,-0.4717,-0.4313,-0.3919,-0.3453,-0.2866,-0.2669,-0.2293,-0.1586,-0.1501,-0.1374,-0.1072,-0.1038,-0.1042,-0.0952,-0.067,-0.0447,-0.0168,0.0056,0.0335,0.0617,0.0895,0.1175,0.1402,0.1623,0.1623,0.1458,0.179,0.1623,0.1121,0.1119,0.1061,0.0949,0.0781,0.1005,0.1453,0.1333,0.1525,0.1964,0.2428,0.2532,0.2347,0.2415,0.2251,0.1997,0.2159,0.6073,1.1098,1.1222,1.5498,2.0585,2.0521,2.0542,2.0583,2.0526,2.0546,2.0586,2.0527,2.0507,2.0471,2.0429,2.036,2.0321,2.0308,2.0253,2.0172,2.005,2.0021,1.9926,1.9688,1.963,1.9532,1.9295,1.8977,1.8805,1.8893,1.8555,1.8367,1.848,1.8263,1.8197,1.838,1.8278,1.8527,1.9287,1.8616,1.8521,1.9275,1.7458,1.6456,1.6429,1.7214,1.7916,1.8484,1.9217,1.9908,2.055,2.0565,2.0532,-0.7473,-0.7632,-0.7737,-0.8046,-0.7744,-0.7212,-0.6936,-0.635,-0.5976,-0.6366,-0.5851,-0.5146,-0.4612,-0.4085,-0.3546,-0.3082,-0.272,-0.24,-0.1924,-0.1691,-0.1368,-0.0737,-0.0684,-0.0627,-0.0562,-0.0169,0.0057,0.0056,0.0559,0.1062,0.1454,0.1566,0.179,0.2186,0.2184,0.2184,0.2242,0.2517,0.2571,0.2402,0.279,0.2843,0.2621,0.2792,0.2905,0.2954,0.2954,0.2845,0.2732,0.2815,0.2823,0.2901,0.3434,0.3611,0.3498,0.3941,0.3802,0.3674,0.5912,0.8878,1.201,1.4228,1.7487,2.052,2.0492,2.0506,2.0521,2.05,2.0507,2.0526,2.0494,2.0497,2.0488,2.0429,2.0426,2.0437,2.0385,2.038,2.0338,2.0253,2.0156,2.0069,2.0001,1.9851,1.9738,1.9686,1.9509,1.9448,1.9569,1.9328,1.9172,1.9253,1.9127,1.9031,1.8999,1.9031,1.9373,2.0171,1.9849,2.0008,2.078,1.932,1.8375,1.817,1.8891,1.9497,1.9951,2.0114,2.0508,2.1113,2.0911,2.0814,-0.641,-0.6537,-0.6552,-0.6067,-0.5354,-0.472,-0.4446,-0.4018,-0.373,-0.3964,-0.4114,-0.3986,-0.3025,-0.2823,-0.2553,-0.1921,-0.1648,-0.1392,-0.0926,-0.0736,-0.0448,0.0168,0.0224,0.0336,0.056,0.0852,0.1082,0.1177,0.1646,0.2047,0.2298,0.2462,0.2685,0.2963,0.3074,0.313,0.3239,0.3403,0.3374,0.3157,0.3316,0.3528,0.3911,0.3712,0.3799,0.4128,0.3907,0.3793,0.3898,0.4091,0.4124,0.4167,0.5099,0.509,0.4626,0.5574,0.5741,0.5784,0.8126,1.072,1.335,1.5503,1.8204,2.0573,2.0257,2.0521,2.083,2.0425,2.0383,2.0464,2.0484,2.0477,2.0449,2.0455,2.0467,2.0494,2.0455,2.0448,2.043,2.0351,2.0262,2.0186,2.0106,1.9982,1.989,1.9901,1.9836,1.9809,1.9839,1.9669,1.9582,1.9628,1.9471,1.935,1.9402,1.9715,2.0268,2.1076,2.0619,2.0896,2.2117,2.1021,2.0135,1.9631,2.0309,2.0747,2.0974,2.1329,2.1657,2.1956,2.1831,2.1761,-0.4865,-0.5119,-0.4922,-0.3701,-0.2811,-0.2155,-0.2023,-0.1977,-0.1921,-0.1608,-0.2413,-0.2847,-0.1862,-0.1792,-0.1569,-0.0839,-0.0626,-0.0423,0.0,0.0056,0.0281,0.0904,0.0956,0.1176,0.1677,0.1901,0.2028,0.2188,0.2594,0.2894,0.2919,0.3244,0.3461,0.3566,0.3956,0.4177,0.4281,0.4431,0.4358,0.4072,0.3925,0.4221,0.4976,0.4431,0.4453,0.4922,0.456,0.459,0.4965,0.5317,0.5434,0.5491,0.6665,0.6656,0.6112,0.7267,0.7775,0.8224,1.0218,1.2499,1.4837,1.6536,1.8807,2.0802,2.0311,2.0811,2.1377,2.054,2.0437,2.0572,2.0651,2.0628,2.0638,2.0851,2.0794,2.0663,2.054,2.0511,2.0499,2.0429,2.0363,2.0289,2.0167,2.0084,2.0037,2.0033,2.0028,2.0021,1.9964,1.9858,1.9804,1.9842,1.9643,1.9606,1.9841,2.0383,2.112,2.207,2.1493,2.1808,2.3349,2.2669,2.1953,2.1304,2.1784,2.206,2.2054,2.2656,2.2954,2.2961,2.2912,2.2863,-0.2164,-0.2417,-0.2678,-0.2435,-0.2259,-0.2155,-0.1769,-0.173,-0.1448,-0.047,-0.113,-0.1743,-0.0994,-0.0759,-0.0464,0.0188,0.0309,0.0366,0.0412,0.04,0.0566,0.1281,0.1309,0.1453,0.2065,0.2758,0.3124,0.297,0.3574,0.3938,0.3808,0.4349,0.4677,0.4677,0.5222,0.5555,0.555,0.5901,0.5908,0.5535,0.5544,0.5613,0.574,0.567,0.5728,0.5897,0.6012,0.6039,0.5962,0.6659,0.6751,0.6536,0.6915,0.7746,0.8717,0.9065,0.9771,1.096,1.4136,1.537,1.6055,1.9245,2.0712,2.1274,2.1545,2.1877,2.2029,2.1337,2.1157,2.1191,2.1265,2.1313,2.1543,2.2315,2.1964,2.1289,2.0703,2.0583,2.0579,2.0492,2.0433,2.0363,2.0289,2.027,2.025,2.019,2.0176,2.0169,2.0161,2.0134,2.0103,2.0068,1.9992,2.0191,2.084,2.1054,2.179,2.335,2.3285,2.363,2.4624,2.4326,2.4116,2.407,2.3934,2.3866,2.3852,2.3941,2.4001,2.3987,2.3755,2.3548,-0.129,-0.1152,-0.1009,-0.0949,-0.0597,-0.0167,-0.0084,0.0,0.0079,0.0541,0.0299,0.0,0.0287,0.0277,0.0465,0.1146,0.1247,0.1288,0.1693,0.1643,0.179,0.2457,0.2488,0.2677,0.3186,0.368,0.3831,0.3646,0.4042,0.4358,0.4473,0.4736,0.5167,0.571,0.5982,0.6258,0.6534,0.6442,0.619,0.5799,0.5841,0.6051,0.6421,0.6227,0.6272,0.6549,0.6569,0.6862,0.7425,0.7675,0.7781,0.7818,0.8393,0.8935,0.9459,1.0312,1.1514,1.3086,1.5478,1.6701,1.7533,1.9788,2.0815,2.1159,2.0992,2.1698,2.243,2.1626,2.167,2.1899,2.1899,2.1979,2.2173,2.2628,2.2474,2.2178,2.1987,2.1559,2.1221,2.123,2.1171,2.0977,2.048,2.0815,2.1133,2.1094,2.1487,2.177,2.177,2.1275,2.1109,2.1552,2.1158,2.1174,2.199,2.2528,2.3131,2.3879,2.3892,2.4259,2.5087,2.4576,2.4503,2.4981,2.4519,2.4266,2.4302,2.4266,2.4247,2.4264,2.4137,2.4025,-0.0401,0.0,0.0409,0.0339,0.0834,0.1309,0.1331,0.1295,0.1329,0.1534,0.1491,0.153,0.1748,0.1257,0.1134,0.1812,0.1896,0.2048,0.2709,0.2694,0.2815,0.3397,0.343,0.3613,0.4086,0.4465,0.4624,0.4369,0.4701,0.502,0.5293,0.5441,0.5873,0.6627,0.6848,0.7042,0.7312,0.6817,0.6458,0.624,0.6194,0.6452,0.6969,0.6817,0.7059,0.7486,0.7254,0.7713,0.8573,0.8645,0.8751,0.8875,0.9562,1.0047,1.0477,1.1622,1.3223,1.4992,1.6525,1.7644,1.8683,1.9955,2.0747,2.116,2.0881,2.1812,2.2828,2.2045,2.2197,2.2569,2.2531,2.264,2.2804,2.3129,2.3064,2.2948,2.2987,2.2481,2.2059,2.2106,2.2089,2.187,2.1266,2.1707,2.2129,2.2138,2.2639,2.3034,2.3034,2.2372,2.2165,2.2804,2.2269,2.2236,2.3075,2.3744,2.4184,2.4411,2.4435,2.4688,2.5299,2.4739,2.4694,2.5294,2.4803,2.4569,2.4628,2.4557,2.4529,2.4532,2.4522,2.4472,0.1495,0.1521,0.1466,0.1307,0.1305,0.1303,0.1305,0.128,0.1492,0.2272,0.2261,0.2401,0.3199,0.209,0.1332,0.2002,0.2055,0.2286,0.2903,0.2934,0.3051,0.3516,0.3591,0.3799,0.4408,0.5118,0.5429,0.5238,0.5906,0.6327,0.6317,0.6853,0.723,0.7439,0.7984,0.8136,0.7873,0.7327,0.717,0.7389,0.7345,0.7342,0.7398,0.7878,0.848,0.9139,0.8639,0.8594,0.9011,0.9528,0.9617,0.9466,0.9783,1.0995,1.2623,1.3345,1.4832,1.6735,1.8062,1.8669,1.9096,2.0351,2.1117,2.1657,2.2234,2.288,2.3354,2.2883,2.2886,2.308,2.314,2.3251,2.3566,2.4392,2.4058,2.346,2.3082,2.2956,2.2923,2.2936,2.2986,2.3002,2.2962,2.3002,2.3022,2.3022,2.3066,2.3082,2.3082,2.3059,2.303,2.3069,2.2979,2.3256,2.4069,2.4116,2.4447,2.5272,2.5321,2.5337,2.5386,2.5348,2.5324,2.5297,2.527,2.5249,2.524,2.5178,2.5146,2.516,2.5088,2.4972,0.2744,0.2682,0.2708,0.315,0.2887,0.2629,0.315,0.3263,0.3363,0.3675,0.3537,0.3485,0.3849,0.3201,0.2808,0.3438,0.3508,0.3732,0.4417,0.4436,0.4414,0.4726,0.4657,0.4766,0.5292,0.5624,0.5871,0.5996,0.6449,0.6814,0.7074,0.7331,0.7605,0.8043,0.8262,0.8287,0.8099,0.7758,0.7662,0.7808,0.7453,0.7525,0.8004,0.812,0.8659,0.9409,0.9357,0.96,1.0054,1.0552,1.0779,1.0874,1.1582,1.2612,1.3686,1.4389,1.575,1.731,1.8021,1.8738,1.942,1.9925,2.0481,2.1039,2.1425,2.2173,2.2867,2.2927,2.3304,2.3713,2.3805,2.3913,2.4089,2.4526,2.4525,2.4404,2.43,2.4451,2.4449,2.3872,2.3815,2.3692,2.3131,2.3497,2.3862,2.3866,2.4346,2.4703,2.4704,2.4218,2.4101,2.47,2.4209,2.4198,2.5079,2.5149,2.5254,2.5566,2.5595,2.5586,2.5587,2.5586,2.5578,2.5567,2.555,2.5459,2.5313,2.5281,2.5254,2.5255,2.5235,2.5163,0.3834,0.3754,0.3769,0.43,0.3953,0.369,0.4302,0.4423,0.445,0.4761,0.4688,0.4627,0.4921,0.4754,0.4518,0.4498,0.448,0.4702,0.5408,0.5389,0.5304,0.5384,0.5279,0.5412,0.5994,0.6213,0.6454,0.6858,0.7196,0.756,0.7877,0.7871,0.809,0.8586,0.8541,0.8546,0.8548,0.8105,0.8044,0.8249,0.7757,0.7908,0.864,0.8716,0.9151,0.9883,1.0252,1.0554,1.0857,1.1246,1.1593,1.1923,1.2789,1.362,1.4401,1.5273,1.6487,1.7734,1.828,1.8972,1.9669,1.9797,2.0204,2.0679,2.0959,2.1694,2.2504,2.2805,2.3369,2.3899,2.4016,2.4134,2.4266,2.4422,2.4632,2.4795,2.491,2.5184,2.5228,2.4656,2.4626,2.4521,2.3945,2.4321,2.47,2.4693,2.5203,2.5567,2.5595,2.5096,2.4988,2.5625,2.5136,2.5019,2.565,2.5705,2.5705,2.5701,2.5698,2.5698,2.5698,2.5698,2.5696,2.5696,2.5693,2.5617,2.5441,2.5413,2.5391,2.5364,2.5348,2.5299,0.0,0.0,0.0,0.4528,0.445,0.445,0.453,0.453,0.4686,0.547,0.5515,0.5719,0.6477,0.6641,0.6276,0.5071,0.4827,0.5045,0.5676,0.5721,0.5664,0.5506,0.5479,0.5775,0.6495,0.6822,0.7254,0.7875,0.8256,0.8487,0.8639,0.8633,0.8732,0.9008,0.8873,0.8968,0.9211,0.8362,0.8261,0.8863,0.8429,0.8623,0.9341,0.9677,1.0088,1.0661,1.1335,1.1501,1.1368,1.1562,1.1985,1.2574,1.3181,1.3974,1.4881,1.6031,1.7076,1.8108,1.8945,1.9406,1.9762,2.001,2.0357,2.0744,2.1023,2.1639,2.2341,2.2583,2.3111,2.3616,2.3689,2.3896,2.4113,2.4173,2.4338,2.4543,2.4752,2.4986,2.5175,2.5186,2.5369,2.5492,2.5488,2.5499,2.5499,2.5505,2.5492,2.5526,2.5586,2.5605,2.5618,2.5693,2.5694,2.5681,2.5702,2.5701,2.5699,2.5691,2.5709,2.5709,2.5709,2.5709,2.5705,2.5698,2.5701,2.5698,2.569,2.5632,2.5561,2.5507,2.5441,2.5415,0.5777,0.0,0.0,0.0,0.0,0.0,0.6695,0.6709,0.6736,0.71,0.6896,0.6771,0.7002,0.7005,0.6777,0.6464,0.6242,0.6321,0.6756,0.698,0.7265,0.7729,0.7629,0.7848,0.8485,0.84,0.8497,0.9035,0.9,0.9057,0.9159,0.9064,0.9054,0.9159,0.9179,0.9275,0.9361,0.9377,0.9624,0.9969,0.9538,0.9726,1.0452,1.0243,1.0607,1.1345,1.1669,1.2152,1.2719,1.272,1.2864,1.3173,1.3994,1.4915,1.5899,1.687,1.7598,1.8254,1.9064,1.9487,1.9647,1.9848,2.0045,2.0342,2.0862,2.1383,2.1819,2.1876,2.2579,2.3365,2.3553,2.375,2.3896,2.3978,2.4134,2.4284,2.4337,2.4535,2.4771,2.5069,2.5205,2.5284,2.5284,2.5369,2.544,2.5426,2.5476,2.551,2.5517,2.5538,2.5523,2.5541,2.555,2.558,2.5618,2.5622,2.5629,2.5632,2.5629,2.5636,2.5636,2.5636,2.5659,2.5703,2.5703,2.5702,2.5703,2.5687,2.5655,2.5632,2.5591,2.5546,0.6707,0.6788,0.7019,0.7488,0.0,0.0,0.7778,0.7871,0.7727,0.7756,0.7593,0.7586,0.7877,0.7925,0.7943,0.8389,0.8475,0.8325,0.7804,0.7789,0.8168,0.9007,0.8929,0.9047,0.9723,0.9367,0.9363,0.9987,0.9717,0.9478,0.9515,0.9379,0.9372,0.9507,0.9606,0.972,0.978,0.9877,1.0147,1.0568,1.0119,1.0383,1.1375,1.1062,1.1317,1.2006,1.2403,1.2818,1.3271,1.3495,1.3712,1.3914,1.472,1.5516,1.6318,1.7188,1.7787,1.8307,1.9078,1.9465,1.9611,1.9726,1.9889,2.017,2.0597,2.0894,2.1209,2.1556,2.2375,2.3241,2.343,2.3571,2.3707,2.3795,2.3917,2.4037,2.4211,2.432,2.4474,2.4785,2.4993,2.5126,2.5149,2.5264,2.5379,2.5404,2.5432,2.5459,2.5468,2.5468,2.5464,2.5498,2.5499,2.5511,2.5547,2.5579,2.5595,2.5595,2.5595,2.5605,2.5593,2.56,2.5615,2.5668,2.5668,2.5679,2.5702,2.5709,2.5698,2.5698,2.5658,2.5648,0.7553,0.7642,0.7804,0.7804,0.7953,0.0,0.8205,0.8273,0.8206,0.8123,0.8143,0.8342,0.9061,0.9228,0.9532,1.0421,1.0818,1.0574,0.9066,0.875,0.9061,1.002,0.9944,1.0079,1.0608,1.0147,1.0142,1.0855,1.0354,0.9923,0.9749,0.9567,0.9652,0.9933,1.005,1.0235,1.0397,1.0166,1.0355,1.0997,1.054,1.0949,1.2122,1.1993,1.2179,1.2637,1.3269,1.3499,1.3424,1.4061,1.4449,1.4687,1.5252,1.5776,1.6318,1.7188,1.7787,1.8268,1.9026,1.9465,1.9611,1.969,1.9904,2.015,2.0289,2.0432,2.0718,2.152,2.2371,2.3087,2.3223,2.336,2.3499,2.3624,2.3671,2.3798,2.4155,2.421,2.421,2.4424,2.4723,2.4981,2.5037,2.5157,2.5262,2.5351,2.537,2.537,2.5397,2.5378,2.5416,2.5475,2.5483,2.55,2.5492,2.5545,2.558,2.558,2.559,2.5585,2.5581,2.5585,2.5586,2.5597,2.5597,2.5671,2.5829,2.5739,2.5707,2.5707,2.5805,2.5842,0.7681,0.7876,0.803,0.803,0.8106,0.0,0.915,0.9207,0.9266,1.0083,1.0111,1.0043,1.0193,1.043,1.0659,1.0864,1.1161,1.1366,1.1083,1.1526,1.2037,1.2587,1.2635,1.254,1.2449,1.21,1.1758,1.14,1.0911,1.0378,0.9866,0.9937,1.0092,1.0329,1.0329,1.0567,1.0951,1.1465,1.1904,1.2259,1.2319,1.2564,1.3062,1.2732,1.2861,1.3323,1.3707,1.4094,1.444,1.4563,1.4689,1.4783,1.5145,1.5624,1.6318,1.7229,1.7733,1.8002,1.9026,1.9501,1.9647,1.9848,2.001,2.017,2.0595,2.0749,2.0989,2.1857,2.2134,2.2299,2.2912,2.3193,2.3336,2.3365,2.3504,2.3664,2.3798,2.3899,2.3998,2.4153,2.4407,2.4617,2.4682,2.4809,2.4956,2.5118,2.516,2.5212,2.5313,2.5322,2.5351,2.5418,2.5427,2.5416,2.5425,2.5434,2.5443,2.5443,2.544,2.5445,2.5449,2.5437,2.5452,2.5531,2.5628,2.6001,2.6659,2.6015,2.5707,2.5726,2.641,2.6741,0.7749,0.803,0.8327,0.8775,0.8932,0.0,0.0,1.0296,1.0276,1.0726,1.0695,1.0748,1.1186,1.1371,1.1702,1.2374,1.2621,1.2868,1.3256,1.2988,1.2949,1.3691,1.3677,1.3614,1.3459,1.2942,1.2417,1.1701,1.1401,1.1039,1.0609,1.0343,1.0349,1.0735,1.0743,1.1035,1.1648,1.2197,1.2752,1.3413,1.3333,1.3515,1.3905,1.36,1.3705,1.408,1.4249,1.4643,1.5085,1.5098,1.518,1.5298,1.5139,1.5494,1.6174,1.6931,1.7612,1.8226,1.8745,1.9176,1.9479,1.928,1.9597,2.0019,1.9922,2.0396,2.1022,2.1371,2.1651,2.2012,2.2556,2.2798,2.2968,2.3199,2.336,2.3504,2.3649,2.3735,2.3837,2.4016,2.4173,2.4337,2.4604,2.4785,2.4968,2.5126,2.5149,2.5171,2.5243,2.5253,2.5253,2.5293,2.5293,2.5303,2.5293,2.5332,2.5351,2.5351,2.5388,2.5406,2.5404,2.5395,2.5616,2.6097,2.6597,2.7064,2.7511,2.7128,2.6518,2.5714,2.6145,2.6573,0.7542,0.7969,0.858,0.9442,0.9723,1.0082,0.0,0.0,0.0,1.1335,1.1285,1.1501,1.2152,1.2342,1.2767,1.3894,1.416,1.4425,1.4947,1.4104,1.3659,1.4324,1.4273,1.4152,1.408,1.3499,1.2863,1.2253,1.2027,1.1762,1.1488,1.091,1.0763,1.1191,1.1244,1.1656,1.2456,1.2845,1.3486,1.4453,1.4172,1.4276,1.4602,1.4451,1.446,1.4627,1.4754,1.5062,1.5501,1.5345,1.5453,1.5644,1.5331,1.5524,1.61,1.6754,1.7571,1.8383,1.8592,1.8988,1.9325,1.88,1.9291,1.9934,1.9402,2.0059,2.0974,2.0874,2.1387,2.2056,2.2385,2.2546,2.2678,2.3077,2.3217,2.3319,2.3602,2.3667,2.3732,2.3937,2.3996,2.4116,2.4524,2.4731,2.4907,2.5037,2.5061,2.5084,2.5149,2.5149,2.516,2.5212,2.5192,2.5192,2.5192,2.5253,2.5274,2.5274,2.5341,2.537,2.5378,2.5542,2.6053,2.6911,2.7469,2.7939,2.8335,2.8064,2.7323,2.6209,2.6365,2.6834,0.6822,0.7546,0.8407,0.9567,0.9755,1.0087,1.1797,0.0,1.2365,1.307,0.0,1.3215,1.3288,0.0,0.0,1.4201,1.4769,1.5245,1.5488,1.5642,1.5636,1.5321,1.539,1.5203,1.4809,1.4366,1.3963,1.3584,1.3187,1.2683,1.2035,1.1646,1.1514,1.1721,1.1874,1.2461,1.351,1.3923,1.4528,1.5239,1.5332,1.5257,1.5056,1.5001,1.4884,1.4708,1.4971,1.5244,1.5443,1.4802,1.4817,1.5332,1.5702,1.6003,1.6275,1.7242,1.772,1.7988,1.8898,1.9302,1.9398,1.9528,1.9793,2.01,2.0143,2.0516,2.0975,2.1318,2.1753,2.2265,2.2651,2.285,2.2952,2.3003,2.3052,2.3193,2.3453,2.3567,2.3682,2.3876,2.3976,2.4036,2.4153,2.4247,2.4375,2.4543,2.4575,2.47,2.4975,2.5025,2.5063,2.5201,2.5192,2.5192,2.5192,2.5212,2.5203,2.5203,2.5222,2.5253,2.5313,2.6111,2.693,2.774,2.7162,2.7615,2.9149,2.7671,2.732,2.8027,2.8808,2.9219,0.6716,0.7447,0.8384,0.9562,1.0171,1.0846,1.2158,1.2959,1.347,1.3775,0.0,0.0,0.0,0.0,0.0,0.0,1.4691,1.4828,1.5499,1.5528,1.551,1.5771,1.5711,1.539,1.4857,1.4975,1.4699,1.3724,1.3698,1.3339,1.2528,1.222,1.1994,1.1909,1.1963,1.2637,1.3977,1.4288,1.5059,1.6221,1.6256,1.6041,1.5598,1.5568,1.5402,1.5153,1.5289,1.5468,1.5668,1.5355,1.5381,1.5684,1.5903,1.6095,1.6265,1.7001,1.7707,1.8266,1.8707,1.9064,1.945,1.969,1.9612,1.9592,2.0112,2.0441,2.0662,2.0958,2.1182,2.1477,2.2056,2.2298,2.2463,2.285,2.2977,2.3102,2.3336,2.3476,2.3589,2.3747,2.3834,2.3896,2.3917,2.4114,2.4303,2.4493,2.4491,2.4556,2.4693,2.4712,2.4741,2.4855,2.4836,2.491,2.5019,2.5075,2.5111,2.5209,2.568,2.5959,2.6,2.7319,2.8206,2.8593,2.8767,2.9233,2.9979,2.9332,2.9214,2.9625,2.9054,2.9062,0.6002,0.6861,0.8006,0.9451,1.0454,1.1331,1.2501,1.3418,1.397,1.3943,1.3996,0.0,0.0,0.0,1.4298,1.4797,0.0,1.461,1.5358,1.535,1.5428,1.5947,1.5854,1.5636,1.5242,1.5568,1.5311,1.416,1.4271,1.3971,1.3079,1.2696,1.2474,1.2408,1.2463,1.3176,1.4658,1.4936,1.572,1.6931,1.6929,1.6638,1.6047,1.5988,1.5811,1.5513,1.5513,1.5603,1.578,1.568,1.578,1.6032,1.5917,1.6048,1.6355,1.6837,1.7571,1.8344,1.8461,1.8898,1.945,1.969,1.9552,1.9402,2.0047,2.0304,2.0441,2.0695,2.0761,2.0942,2.1705,2.1969,2.2169,2.2747,2.2944,2.3045,2.3241,2.336,2.3517,2.3656,2.3747,2.3792,2.3795,2.4018,2.4229,2.4318,2.4353,2.4371,2.4441,2.4441,2.4474,2.4556,2.4623,2.47,2.4828,2.4966,2.5076,2.5195,2.6022,2.6588,2.6818,2.8229,2.9142,2.9428,2.9824,3.0152,3.0432,3.0243,3.0285,3.0501,2.9377,2.9216,0.39,0.5222,0.7017,0.9065,1.0205,1.1209,1.2875,1.3558,1.3772,1.3582,1.3836,1.4129,1.4129,1.4129,1.4137,1.4385,1.4657,0.0,0.0,1.5769,1.6031,1.5671,1.5889,1.6154,1.6363,1.637,1.609,1.5397,1.5197,1.4697,1.3624,1.3259,1.3216,1.3442,1.3758,1.4554,1.5843,1.6153,1.6667,1.7278,1.7267,1.6916,1.6171,1.621,1.5953,1.5513,1.5513,1.5603,1.5756,1.5399,1.5624,1.6139,1.5694,1.5919,1.6539,1.6866,1.7366,1.7868,1.8344,1.8898,1.945,1.969,1.9869,2.001,2.008,2.0185,2.0392,2.0845,2.1007,2.1181,2.1994,2.2248,2.2358,2.2721,2.2902,2.3045,2.3168,2.3265,2.3383,2.3656,2.37,2.3725,2.3774,2.3858,2.3917,2.3917,2.3978,2.4095,2.4284,2.4303,2.4356,2.4489,2.4636,2.4697,2.4712,2.4959,2.5126,2.521,2.6018,2.6852,2.7625,2.8523,2.9398,3.0235,2.9468,2.9468,3.0305,2.9468,2.948,3.0316,3.046,3.0576,0.0,0.0,0.5782,0.7478,0.8623,0.9679,1.1037,1.2501,1.3494,1.3444,1.397,1.4425,1.4425,1.4425,1.4639,1.5178,1.4972,1.4909,0.0,1.5713,1.5953,1.6257,1.6421,1.6406,1.6098,1.6015,1.5771,1.532,1.4956,1.4458,1.3624,1.3679,1.3605,1.318,1.3776,1.443,1.5094,1.5797,1.6353,1.6776,1.7489,1.7345,1.64,1.6811,1.6503,1.5703,1.5703,1.5939,1.6341,1.6284,1.6663,1.7245,1.7186,1.7147,1.7125,1.74,1.7625,1.7908,1.8784,1.9302,1.956,1.969,1.9797,1.9884,1.999,2.0096,2.0254,2.0563,2.0679,2.0795,2.1432,2.1794,2.2039,2.2375,2.2703,2.297,2.3045,2.3193,2.3336,2.343,2.3499,2.3567,2.3611,2.3616,2.3682,2.3795,2.3837,2.3878,2.3959,2.3959,2.3999,2.4098,2.4155,2.4284,2.4543,2.5351,2.5848,2.5907,2.7254,2.8158,2.8485,2.9333,2.992,3.0234,2.9947,2.996,3.0292,3.0005,3.0005,3.0286,3.0375,3.046,0.3252,0.386,0.0,0.6153,0.7224,0.0,0.9497,1.1179,1.2445,1.2326,1.3226,1.395,1.3801,1.4096,1.448,1.4895,1.4768,1.4847,0.0,1.5602,1.5888,1.6476,1.6659,1.6522,1.6014,1.6039,1.5886,1.5444,1.5299,1.4944,1.4228,1.4255,1.423,1.397,1.4335,1.4799,1.5265,1.6056,1.6548,1.6696,1.7574,1.7493,1.67,1.7057,1.674,1.5804,1.5984,1.6305,1.6676,1.6951,1.7384,1.7881,1.7778,1.7585,1.7415,1.76,1.7731,1.7988,1.886,1.9376,1.9611,1.9705,1.9797,1.9884,1.999,2.0096,2.022,2.0407,2.046,2.0628,2.1151,2.1433,2.1757,2.2329,2.27,2.2939,2.3144,2.3511,2.3771,2.3742,2.3998,2.4266,2.4314,2.4314,2.4254,2.4114,2.4144,2.4274,2.4563,2.4371,2.4251,2.4293,2.4353,2.4646,2.5262,2.5796,2.625,2.6593,2.7979,2.9049,2.9684,3.028,3.0748,3.1049,3.0772,3.0513,3.0253,3.0253,3.0266,3.0266,3.0292,3.0336]},{"header":{"parameterUnit":"m.s-1","parameterCategory":1,"la1":30.6,"la2":29.2853,"lo1":-89.7004,"lo2":-87.6739,"dy":0.0162,"dx":0.0183,"nx":112,"ny":82,"refTime":"2024-05-10T06:00:00:Z","depth":0,"parameterNumber":3,"parameterNumberName":"V-component_of_WINDS"},"data":[0.0,0.0,0.0,0.0,0.0,0.0,0.0,0.0,0.0,0.0,0.0,0.0,0.0,0.0,0.0,0.0,0.0,0.0,0.0,0.0,0.0,0.0,0.0,0.0,0.0,0.0,0.0,0.0,0.0,0.0,0.0,0.0,0.0,0.0,0.0,0.0,0.0,0.0,0.0,0.0,0.0,0.0,0.0,0.0,0.0,0.0,0.0,0.0,0.0,0.0,0.0,0.0,0.0,0.0,0.0,0.0,0.0,0.0,0.0,0.0,0.0,0.0,0.0,0.0,0.0,0.0,0.0,0.0,0.0,0.0,0.0,0.0,0.0,0.0,0.0,0.0,0.0,0.0,0.0,0.0,0.0,0.0,0.0,0.0,0.0,0.0,0.0,0.0,0.0,0.0,-0.9032,-0.6232,-0.7653,-0.9795,-1.2523,-1.6267,-1.8863,-1.9778,0.0,0.0,0.0,0.0,0.0,0.0,0.0,0.0,0.0,0.0,0.0,0.0,0.0,0.0,0.0,0.0,0.0,0.0,0.0,0.0,0.0,0.0,0.0,0.0,0.0,0.0,0.0,0.0,0.0,0.0,0.0,0.0,0.0,0.0,0.0,0.0,0.0,0.0,0.0,0.0,0.0,0.0,0.0,0.0,0.0,0.0,0.0,0.0,0.0,0.0,0.0,0.0,0.0,0.0,0.0,0.0,0.0,0.0,0.0,0.0,0.0,0.0,0.0,0.0,0.0,0.0,0.0,0.0,0.0,0.0,0.0,0.0,0.0,0.0,0.0,0.0,0.0,0.0,0.0,0.0,0.0,0.0,0.0,0.0,0.0,0.0,0.0,0.0,0.0,0.0,0.0,0.0,0.0,0.0,0.0,0.0,0.0,0.0,0.0,0.0,0.0,0.0,0.0,0.0,-0.8453,-0.6462,-0.6732,-0.8737,-1.2742,-1.5383,-1.7986,-2.0651,0.0,0.0,0.0,0.0,0.0,0.0,0.0,0.0,0.0,0.0,0.0,0.0,0.0,0.0,0.0,0.0,0.0,0.0,0.0,0.0,0.0,0.0,0.0,0.0,0.0,0.0,0.0,0.0,0.0,0.0,0.0,0.0,0.0,0.0,0.0,0.0,0.0,0.0,0.0,0.0,0.0,0.0,0.0,0.0,0.0,0.0,0.0,0.0,0.0,0.0,0.0,0.0,0.0,0.0,0.0,0.0,0.0,0.0,0.0,0.0,0.0,0.0,0.0,0.0,0.0,0.0,0.0,0.0,0.0,0.0,0.0,0.0,0.0,0.0,0.0,0.0,0.0,0.0,0.0,0.0,0.0,0.0,0.0,0.0,0.0,0.0,0.0,0.0,0.0,0.0,0.0,0.0,0.0,0.0,0.0,0.0,0.0,0.0,0.0,0.0,0.0,0.0,0.0,-0.9085,-0.6827,-0.6382,-0.6602,-0.8483,-1.2762,-1.5149,-1.7631,-2.0532,-2.0849,0.0,0.0,0.0,0.0,0.0,0.0,0.0,0.0,0.0,0.0,0.0,0.0,0.0,0.0,0.0,0.0,0.0,0.0,0.0,0.0,0.0,0.0,0.0,0.0,0.0,0.0,0.0,0.0,0.0,0.0,0.0,0.0,0.0,0.0,0.0,0.0,0.0,0.0,0.0,0.0,0.0,0.0,0.0,0.0,0.0,0.0,0.0,0.0,0.0,0.0,0.0,0.0,0.0,0.0,0.0,0.0,0.0,0.0,0.0,0.0,0.0,0.0,0.0,0.0,0.0,0.0,0.0,0.0,0.0,0.0,0.0,0.0,0.0,0.0,0.0,0.0,0.0,0.0,0.0,0.0,0.0,0.0,0.0,0.0,0.0,0.0,0.0,0.0,0.0,0.0,0.0,0.0,0.0,0.0,0.0,0.0,0.0,0.0,0.0,0.0,0.0,0.0,-0.7557,-0.5681,-0.6166,-0.6691,-0.8598,-1.2603,-1.4778,-1.7282,-2.038,-2.0776,0.0,0.0,0.0,0.0,0.0,0.0,0.0,0.0,0.0,0.0,0.0,0.0,0.0,0.0,0.0,0.0,0.0,0.0,0.0,0.0,0.0,0.0,0.0,0.0,0.0,0.0,0.0,0.0,0.0,0.0,0.0,0.0,0.0,0.0,0.0,0.0,0.0,0.0,0.0,0.0,0.0,0.0,0.0,0.0,0.0,0.0,0.0,0.0,0.0,0.0,0.0,0.0,0.0,0.0,0.0,0.0,0.0,0.0,0.0,0.0,0.0,0.0,0.0,0.0,0.0,0.0,0.0,0.0,0.0,0.0,0.0,0.0,0.0,0.0,0.0,0.0,0.0,0.0,0.0,0.0,0.0,0.0,0.0,0.0,0.0,0.0,0.0,0.0,0.0,0.0,0.0,0.0,0.0,0.0,0.0,0.0,0.0,0.0,0.0,0.0,0.0,0.0,-0.6988,-0.6144,-0.613,-0.6818,-0.8779,-1.2528,-1.4041,-1.6493,-2.0467,-2.0264,0.0,0.0,0.0,0.0,0.0,0.0,0.0,0.0,0.0,0.0,0.0,0.0,0.0,0.0,0.0,0.0,0.0,0.0,0.0,0.0,0.0,0.0,0.0,0.0,0.0,0.0,0.0,0.0,0.0,0.0,0.0,0.0,0.0,0.0,0.0,0.0,0.0,0.0,0.0,0.0,0.0,0.0,0.0,0.0,0.0,0.0,0.0,0.0,0.0,0.0,0.0,0.0,0.0,0.0,0.0,0.0,0.0,0.0,0.0,0.0,0.0,0.0,0.0,0.0,0.0,0.0,0.0,0.0,0.0,0.0,0.0,0.0,0.0,0.0,0.0,0.0,0.0,0.0,0.0,0.0,0.0,0.0,0.0,0.0,0.0,0.0,0.0,0.0,0.0,0.0,0.0,0.0,0.0,0.0,0.0,0.0,0.0,0.0,0.0,0.0,0.0,0.0,-0.7167,-0.6116,-0.6476,-0.7151,-0.9074,-1.2602,-1.4323,-1.6413,-1.9494,0.0,0.0,0.0,0.0,0.0,0.0,0.0,0.0,0.0,0.0,0.0,0.0,0.0,0.0,0.0,0.0,0.0,0.0,0.0,0.0,0.0,0.0,0.0,0.0,0.0,0.0,0.0,0.0,0.0,0.0,0.0,0.0,0.0,0.0,0.0,0.0,0.0,0.0,0.0,0.0,0.0,0.0,0.0,0.0,0.0,0.0,0.0,0.0,0.0,0.0,0.0,0.0,0.0,0.0,0.0,0.0,0.0,0.0,0.0,0.0,0.0,0.0,0.0,0.0,0.0,0.0,0.0,0.0,0.0,0.0,0.0,0.0,0.0,0.0,0.0,0.0,0.0,0.0,0.0,0.0,0.0,0.0,0.0,0.0,0.0,0.0,0.0,0.0,0.0,0.0,0.0,0.0,0.0,0.0,0.0,0.0,0.0,0.0,0.0,0.0,0.0,0.0,-0.8985,-0.7245,-0.6496,-0.7133,-0.7914,-0.974,-1.2991,-1.4552,-1.6404,-1.8823,0.0,0.0,0.0,0.0,0.0,0.0,0.0,0.0,0.0,0.0,0.0,0.0,0.0,0.0,0.0,0.0,0.0,0.0,0.0,0.0,0.0,0.0,0.0,0.0,0.0,0.0,0.0,0.0,0.0,0.0,0.0,0.0,0.0,0.0,0.0,0.0,0.0,0.0,0.0,0.0,0.0,0.0,0.0,0.0,0.0,0.0,0.0,0.0,0.0,0.0,0.0,0.0,0.0,0.0,0.0,0.0,0.0,0.0,0.0,0.0,0.0,0.0,0.0,0.0,0.0,0.0,0.0,0.0,0.0,0.0,0.0,0.0,0.0,0.0,0.0,0.0,0.0,0.0,0.0,0.0,0.0,0.0,0.0,0.0,0.0,0.0,0.0,0.0,0.0,0.0,0.0,0.0,0.0,0.0,0.0,0.0,0.0,0.0,0.0,0.0,0.0,0.0,-0.7708,-0.7208,-0.7351,-0.8085,-0.9208,-1.098,-1.3676,-1.4804,-1.6347,0.0,0.0,0.0,0.0,0.0,0.0,0.0,0.0,0.0,0.0,0.0,0.0,0.0,0.0,0.0,0.0,0.0,0.0,0.0,0.0,0.0,0.0,0.0,0.0,0.0,0.0,0.0,0.0,0.0,0.0,0.0,0.0,0.0,0.0,0.0,0.0,0.0,0.0,0.0,0.0,0.0,0.0,0.0,0.0,0.0,0.0,0.0,0.0,0.0,0.0,0.0,0.0,0.0,0.0,0.0,0.0,0.0,0.0,0.0,0.0,0.0,0.0,0.0,0.0,0.0,0.0,0.0,0.0,0.0,0.0,0.0,0.0,0.0,0.0,0.0,0.0,0.0,0.0,0.0,0.0,0.0,0.0,0.0,0.0,0.0,0.0,0.0,0.0,0.0,0.0,0.0,0.0,0.0,0.0,0.0,0.0,0.0,0.0,0.0,0.0,0.0,0.0,0.0,-0.6455,-0.604,-0.6531,-0.7785,-0.9337,-1.1334,-1.3996,-1.5084,-1.6501,-1.8495,0.0,0.0,0.0,0.0,0.0,0.0,0.0,0.0,0.0,0.0,0.0,0.0,0.0,0.0,0.0,0.0,0.0,0.0,0.0,0.0,0.0,0.0,0.0,0.0,0.0,0.0,0.0,0.0,0.0,0.0,0.0,0.0,0.0,0.0,0.0,0.0,0.0,0.0,0.0,0.0,0.0,0.0,0.0,0.0,0.0,0.0,0.0,0.0,0.0,0.0,0.0,0.0,0.0,0.0,0.0,0.0,0.0,0.0,0.0,0.0,0.0,0.0,0.0,0.0,0.0,0.0,0.0,0.0,0.0,0.0,0.0,0.0,0.0,0.0,0.0,0.0,0.0,0.0,0.0,0.0,0.0,0.0,0.0,0.0,0.0,0.0,0.0,0.0,0.0,0.0,0.0,0.0,0.0,0.0,0.0,0.0,0.0,0.0,0.0,0.0,0.0,0.0,-0.5894,-0.6175,-0.7098,-0.8271,-1.0022,-1.2241,-1.5092,-1.5934,-1.6983,-1.8676,0.0,0.0,0.0,0.0,0.0,0.0,0.0,0.0,0.0,0.0,0.0,0.0,0.0,0.0,0.0,0.0,0.0,0.0,0.0,0.0,0.0,0.0,0.0,0.0,0.0,0.0,0.0,0.0,0.0,0.0,0.0,0.0,0.0,0.0,0.0,0.0,0.0,0.0,0.0,0.0,0.0,0.0,0.0,0.0,0.0,0.0,0.0,0.0,0.0,0.0,0.0,0.0,0.0,0.0,0.0,0.0,0.0,0.0,0.0,0.0,0.0,0.0,0.0,0.0,0.0,0.0,0.0,0.0,0.0,0.0,0.0,0.0,0.0,0.0,0.0,0.0,0.0,0.0,0.0,0.0,0.0,0.0,0.0,0.0,0.0,0.0,0.0,0.0,0.0,0.0,0.0,0.0,0.0,0.0,0.0,0.0,0.0,0.0,0.0,0.0,0.0,0.0,-0.6063,-0.7291,-0.8633,-0.9176,-1.1005,-1.3459,-1.6759,-1.7096,-1.7734,-1.9171,0.0,0.0,0.0,0.0,0.0,0.0,0.0,0.0,0.0,0.0,0.0,0.0,0.0,0.0,0.0,0.0,0.0,0.0,0.0,0.0,0.0,0.0,0.0,0.0,0.0,0.0,0.0,0.0,0.0,0.0,0.0,0.0,0.0,0.0,0.0,0.0,0.0,0.0,0.0,0.0,0.0,0.0,0.0,0.0,0.0,0.0,0.0,0.0,0.0,0.0,0.0,0.0,0.0,0.0,0.0,0.0,0.0,0.0,0.0,0.0,-1.8917,-2.0994,0.0,0.0,0.0,0.0,0.0,0.0,0.0,0.0,0.0,0.0,0.0,0.0,0.0,0.0,0.0,0.0,0.0,0.0,0.0,0.0,0.0,0.0,0.0,0.0,0.0,0.0,0.0,0.0,0.0,0.0,0.0,0.0,0.0,0.0,0.0,0.0,0.0,0.0,0.0,0.0,-0.736,-0.8393,-0.9125,-0.8851,-1.1682,-1.4507,-1.6828,-1.7843,-1.8764,-1.9843,-2.0706,0.0,0.0,0.0,0.0,0.0,0.0,0.0,0.0,0.0,0.0,0.0,0.0,0.0,0.0,0.0,0.0,0.0,0.0,0.0,0.0,0.0,0.0,0.0,0.0,0.0,0.0,0.0,0.0,0.0,0.0,0.0,0.0,0.0,0.0,0.0,0.0,0.0,0.0,0.0,0.0,0.0,0.0,0.0,0.0,0.0,0.0,0.0,0.0,0.0,0.0,0.0,0.0,0.0,0.0,0.0,0.0,0.0,0.0,0.0,-1.7819,-1.9415,0.0,0.0,0.0,0.0,0.0,0.0,0.0,0.0,0.0,0.0,0.0,0.0,0.0,0.0,0.0,0.0,0.0,0.0,0.0,0.0,0.0,0.0,0.0,0.0,0.0,0.0,0.0,0.0,0.0,0.0,0.0,0.0,0.0,0.0,0.0,0.0,0.0,0.0,0.0,0.0,-0.8138,-1.0564,-1.2342,-1.1939,-1.3571,-1.5478,-1.7609,-1.898,-2.0294,-2.1521,-2.1721,0.0,0.0,0.0,0.0,0.0,0.0,0.0,0.0,0.0,0.0,0.0,0.0,0.0,0.0,0.0,0.0,0.0,0.0,0.0,0.0,0.0,0.0,0.0,0.0,0.0,0.0,0.0,0.0,0.0,0.0,0.0,0.0,0.0,0.0,0.0,0.0,0.0,0.0,0.0,0.0,0.0,0.0,0.0,0.0,0.0,0.0,0.0,0.0,0.0,0.0,0.0,0.0,0.0,-1.3641,-1.4597,-1.4977,-1.6485,-1.7163,-1.7183,-1.7249,-1.8071,-1.9333,-1.886,0.0,0.0,0.0,0.0,0.0,0.0,0.0,0.0,0.0,0.0,0.0,0.0,0.0,0.0,0.0,0.0,0.0,0.0,0.0,0.0,0.0,0.0,-2.5987,-2.6822,-2.7697,-2.8311,-2.8193,0.0,0.0,0.0,0.0,0.0,0.0,0.0,0.0,0.0,0.0,0.0,-0.8788,-1.271,-1.5803,-1.5499,-1.6119,-1.7364,-1.9534,-2.0754,-2.1992,-2.3387,-2.3251,-2.3367,0.0,0.0,0.0,0.0,0.0,0.0,0.0,0.0,0.0,0.0,0.0,0.0,0.0,0.0,0.0,0.0,0.0,0.0,0.0,0.0,0.0,0.0,0.0,0.0,0.0,0.0,0.0,0.0,0.0,0.0,0.0,0.0,-0.0216,-0.4191,0.0,0.0,0.0,0.0,0.0,0.0,0.0,0.0,0.0,0.0,0.0,0.0,0.0,-1.0528,-1.1112,-1.1792,-1.2374,-1.2763,-1.4468,-1.5016,-1.4601,-1.5973,-1.6615,-1.6683,-1.6716,0.0,-1.8544,-1.8587,0.0,0.0,0.0,0.0,0.0,0.0,0.0,0.0,0.0,0.0,0.0,0.0,0.0,0.0,0.0,0.0,0.0,0.0,0.0,0.0,0.0,0.0,-2.5056,-2.5396,-2.6635,-2.7704,-2.7633,-2.8252,-2.8761,-2.8446,-2.8125,-2.7744,0.0,0.0,0.0,0.0,0.0,0.0,-0.998,-1.3722,-1.6567,-1.5903,-1.9037,-2.2022,-2.3979,-2.3802,-2.3834,-2.4451,-2.4669,-2.4743,-2.4671,-2.4502,0.0,0.0,0.0,0.0,0.0,0.0,0.0,0.0,0.0,0.0,0.0,0.0,0.0,0.0,0.0,0.0,0.0,0.0,0.0,0.0,0.0,0.0,0.0,0.0,0.0,0.0,0.0,0.0,0.0,0.3177,-0.0534,-0.2933,-0.4424,-0.5501,0.0,0.0,0.0,0.0,0.0,0.0,0.0,0.0,0.0,-1.067,-1.0816,-1.1077,-1.1566,-1.2009,-1.2644,-1.33,-1.4016,-1.4774,-1.55,-1.609,-1.6606,-1.6959,-1.7056,-1.7586,-1.833,-1.7854,-1.7925,-1.8389,0.0,0.0,0.0,0.0,-1.9972,-2.0266,-1.9692,-2.0483,-2.1762,-2.206,0.0,0.0,0.0,0.0,0.0,0.0,0.0,-2.237,-2.1971,-2.2294,-2.2949,-2.366,-2.4721,-2.5616,-2.5884,-2.655,-2.7198,-2.7631,-2.856,-2.8931,-2.785,-2.6675,0.0,0.0,0.0,-1.7399,-1.3726,-1.6794,-1.9599,-2.0373,-2.2602,-2.4417,-2.5399,-2.5527,-2.5827,-2.6492,-2.6359,-2.652,-2.7008,-2.6204,-2.5885,0.0,0.0,0.0,0.0,0.0,0.0,0.0,0.0,0.0,0.0,0.0,0.0,0.0,0.0,0.0,0.0,0.0,0.0,0.0,0.0,0.0,0.0,0.0,0.0,0.0,0.0,0.0,0.0,0.1527,-0.0473,-0.2156,-0.3546,-0.4513,0.0,0.0,0.0,0.0,0.0,0.0,-0.8451,-0.9927,-1.0982,-1.1338,-1.1526,-1.1736,-1.1968,-1.2385,-1.3063,-1.382,-1.401,-1.4779,-1.6021,-1.613,-1.6473,-1.703,-1.7346,-1.7689,-1.8145,-1.7435,-1.7519,-1.804,-1.8312,-1.8413,-1.8395,-1.8728,-1.8913,-1.9026,-1.8768,-1.943,-2.0542,-2.1052,-2.1493,-2.1901,-2.2247,0.0,0.0,0.0,0.0,-2.0403,-2.0657,-2.0752,-2.1014,-2.209,-2.3039,-2.3782,-2.4112,-2.4787,-2.5528,-2.625,-2.7583,-2.8169,-2.6843,-2.6418,0.0,-2.0226,-1.9688,-1.8955,-1.6513,-1.9083,-2.1709,-2.3178,-2.4385,-2.5297,-2.5818,-2.6409,-2.7254,-2.8335,-2.8025,-2.8113,-2.8867,-2.7914,-2.7262,-2.7031,0.0,0.0,0.0,0.0,0.0,0.0,0.0,0.0,0.0,0.0,0.0,0.0,0.0,0.0,0.0,0.0,0.0,0.0,0.0,0.0,0.0,0.0,0.0,0.0,0.0,0.0,0.0,0.0,0.0,-0.1777,-0.3763,0.0,0.0,0.0,0.0,-0.4646,-0.6319,-0.7693,-0.8543,-1.028,-1.1628,-1.2323,-1.2355,-1.2474,-1.2711,-1.3716,-1.4231,-1.4248,-1.4949,-1.5354,-1.5452,-1.5939,-1.619,-1.6285,-1.703,-1.7508,-1.7755,-1.7969,-1.8258,-1.8552,-1.8562,-1.8537,-1.8419,-1.8783,-1.8971,-1.9093,-1.9225,-1.9955,-2.0876,-2.0939,-2.0827,-2.0625,-2.0134,-1.9665,0.0,0.0,-1.8963,-1.878,-1.9356,-1.9515,-1.9864,-2.0935,-2.2179,-2.3065,-2.286,-2.336,-2.403,-2.4371,-2.3997,-2.3648,-2.368,0.0,-2.2796,-1.9599,-2.0226,-1.9837,-1.6634,-1.9194,-2.1369,-2.1527,-2.2937,-2.4414,-2.5696,-2.6471,-2.7648,-2.9396,-2.9387,-2.9274,-2.9181,-2.9399,-2.911,-2.8234,-2.8572,0.0,0.0,0.0,0.0,0.0,0.0,0.0,0.0,0.0,0.0,0.0,0.0,0.0,0.0,0.0,0.0,0.0,0.0,0.0,0.0,0.0,0.0,0.0,0.0,0.0,0.0,0.0,0.0,-0.0441,-0.1751,0.0,-0.3343,-0.3676,-0.411,-0.4787,-0.654,-0.7935,-0.8975,-1.0459,-1.1762,-1.2845,-1.2716,-1.2748,-1.298,-1.3358,-1.3496,-1.3496,-1.3794,-1.419,-1.4672,-1.4697,-1.5242,-1.6183,-1.6264,-1.697,-1.8065,-1.7697,-1.7691,-1.7958,-1.8498,-1.8642,-1.8566,-1.8799,-1.8904,-1.8922,-1.899,-1.9204,-1.9629,-2.0306,-2.0789,-2.0935,-2.0057,-1.9703,-1.9486,-1.9148,-1.8721,-1.8441,-1.8655,-1.8804,-1.915,-1.9864,-2.0738,-2.1345,-2.1361,-2.1806,-2.2076,-2.1398,-2.1829,-2.2626,-2.3529,-2.3839,-2.3265,-2.1207,-2.1515,-2.0941,-1.7975,-1.9266,-2.0681,-2.1187,-2.2646,-2.4415,-2.6503,-2.7141,-2.8135,-2.9829,-3.0046,-3.0112,-3.0102,-2.9719,-2.9454,-2.9388,-2.827,-2.7699,0.0,0.0,0.0,0.0,0.0,0.0,0.0,0.0,0.0,0.0,0.0,0.0,0.0,0.0,0.0,0.0,0.0,0.0,0.0,0.0,0.0,0.0,0.0,0.0,0.0,0.105,0.0367,0.0373,-0.0684,-0.1675,-0.2509,-0.3064,-0.3819,-0.4997,-0.6468,-0.7708,-0.8611,-1.0284,-1.1538,-1.2289,-1.2558,-1.2615,-1.2688,-1.2846,-1.2925,-1.2925,-1.3127,-1.3529,-1.4013,-1.3963,-1.4524,-1.5651,-1.5729,-1.644,-1.7738,-1.7368,-1.7326,-1.7584,-1.8335,-1.8638,-1.8534,-1.849,-1.8502,-1.8475,-1.8389,-1.871,-1.9243,-1.9845,-2.038,-2.0718,-1.9997,-1.9715,-1.951,-1.9148,-1.8721,-1.8278,-1.8278,-1.8387,-1.8548,-1.8809,-1.9366,-1.9823,-1.9777,-2.0043,-2.0127,-1.9485,-2.0261,-2.1309,-2.2199,-2.2985,-2.3034,-2.175,-2.216,-2.1854,-1.9677,-1.9945,-2.0528,-2.0865,-2.2304,-2.4058,-2.6122,-2.6937,-2.8001,-2.9555,-2.9698,-2.9871,-3.0178,-2.9641,-2.947,-2.977,-2.8103,-2.7694,-2.864,0.0,0.0,0.0,0.0,0.0,0.0,0.0,0.0,0.0,0.0,0.0,0.0,0.0,0.0,0.0,0.0,0.0,0.0,0.0,0.0,0.0,0.0,0.0,0.2275,0.1088,0.0381,0.0573,-0.0611,-0.1771,-0.2666,-0.3047,-0.3734,-0.519,-0.6215,-0.6952,-0.7512,-0.9749,-1.097,-1.0878,-1.1783,-1.2093,-1.1991,-1.242,-1.2643,-1.2756,-1.3259,-1.3459,-1.3448,-1.3745,-1.4129,-1.4619,-1.5351,-1.5934,-1.6591,-1.6916,-1.7207,-1.7392,-1.8112,-1.8353,-1.8329,-1.7957,-1.7803,-1.7752,-1.762,-1.8521,-1.9711,-1.946,-1.9563,-1.978,-1.9756,-1.9462,-1.9182,-1.917,-1.8721,-1.8278,-1.8278,-1.8278,-1.817,-1.7776,-1.8242,-1.8635,-1.8196,-1.8154,-1.8308,-1.8675,-1.9166,-1.9485,-1.954,-2.1011,-2.1919,-2.1134,-2.2114,0.0,-2.147,-2.1162,-2.0903,-2.0472,-2.1904,-2.3305,-2.4418,-2.5783,-2.723,-2.869,-2.8441,-2.8578,-2.9369,-2.9339,-2.9276,-2.9223,-2.8263,-2.8184,-2.9063,0.0,0.0,0.0,0.0,0.0,0.0,0.0,0.0,0.0,0.0,0.0,0.0,0.0,0.0,0.0,0.0,0.0,0.0,0.0,0.0,0.0,0.2571,0.2485,0.2349,0.1919,0.1687,0.1467,0.106,0.0425,-0.0637,-0.1605,-0.269,-0.3871,-0.5137,-0.6283,-0.7206,-0.8007,-0.8845,-0.9653,-1.0337,-1.0712,-1.0802,-1.1524,-1.2074,-1.2751,-1.252,-1.2647,-1.319,-1.2915,-1.3117,-1.3598,-1.3787,-1.4308,-1.5081,-1.512,-1.5384,-1.5794,-1.7456,-1.8037,-1.8005,-1.8018,-1.7866,-1.7523,-1.7013,-1.752,-1.829,-1.7683,-1.8206,-1.9006,-1.8181,-1.8437,-1.8934,-1.8548,-1.8267,-1.8147,-1.8147,-1.7875,-1.7667,-1.7667,-1.7926,-1.8022,-1.7627,-1.7661,-1.7843,-1.8047,-1.8632,-1.9333,-2.003,-2.1327,-2.2536,-2.3308,-2.388,-2.359,-2.189,-2.0992,-2.0565,-2.0666,-2.1573,-2.297,-2.4921,-2.599,-2.7,-2.7921,-2.8664,-2.9155,-2.9324,-2.9296,-2.8872,-2.7936,-2.8448,-2.8678,0.0,0.0,0.0,0.0,0.0,0.0,0.0,0.0,0.0,0.0,0.0,0.0,0.0,0.0,0.0,0.0,0.0,0.0,0.0,0.0,0.0,0.0,0.275,0.2734,0.263,0.2439,0.2174,0.1849,0.1722,0.1279,0.0214,-0.1068,-0.2249,-0.3345,-0.4578,-0.5516,-0.6221,-0.6906,-0.7626,-0.8231,-0.8959,-0.953,-0.9858,-1.044,-1.1148,-1.1889,-1.1949,-1.2237,-1.2646,-1.2379,-1.264,-1.3126,-1.3021,-1.3352,-1.4031,-1.4156,-1.4282,0.0,0.0,0.0,0.0,0.0,-1.7324,-1.6908,-1.64,-1.6641,-1.7119,-1.6537,-1.7169,-1.798,-1.7401,-1.7699,-1.8147,-1.782,-1.7929,-1.7938,-1.7289,-1.7245,-1.7308,-1.672,-1.6877,-1.7093,-1.6931,-1.7127,-1.7415,-1.7747,-1.8439,0.0,-2.0306,-2.1536,-2.2794,-2.4143,-2.4271,-2.3817,-2.2782,-2.1495,-2.0712,-2.0822,-2.1263,-2.2339,-2.4236,-2.5226,0.0,0.0,0.0,-2.8285,-2.8515,-2.8918,0.0,0.0,0.0,-2.9195,-2.903,0.0,0.0,0.0,-3.0948,-3.1333,0.0,0.0,0.0,0.0,0.0,0.0,0.0,0.0,0.0,0.0,0.0,0.0,0.0,0.0,0.0,0.0,0.3413,0.3334,0.3176,0.2664,0.2143,0.185,0.1718,0.1268,0.0313,-0.0832,-0.1988,-0.3197,-0.4135,-0.4761,-0.5202,-0.6307,0.0,0.0,0.0,-0.8355,-0.8821,-0.9164,-0.9742,-1.0554,-1.1133,-1.1609,-1.1788,-1.1838,-1.2263,-1.2864,-1.2626,-1.273,-1.3153,-1.351,-1.3534,-1.3454,-1.459,-1.5423,-1.6062,-1.6547,-1.656,-1.6181,-1.578,0.0,0.0,-1.584,-1.6332,-1.7,-1.6989,-1.7146,-1.7257,-1.7146,-1.7434,-1.7519,-1.6125,-1.6459,-1.68,-1.5447,-1.5571,-1.608,-1.6185,-1.6608,-1.716,-1.7707,-1.8496,-1.9419,-2.0457,-2.1678,-2.2901,-2.4033,-2.3818,-2.3603,-2.3875,-2.2406,-2.1276,-2.1058,0.0,0.0,-2.2987,-2.3957,-2.5175,-2.6762,-2.6685,-2.689,-2.7526,-2.85,-2.902,-2.8952,-2.9411,-2.9753,-2.9912,-3.0186,-3.0898,-3.1997,-3.1653,-3.1906,0.0,0.0,0.0,0.0,0.0,0.0,0.0,0.0,0.0,0.0,0.0,0.0,0.0,0.0,0.0,0.6048,0.5388,0.4803,0.4464,0.3512,0.2667,0.2141,0.1793,0.1686,0.1511,0.032,-0.0853,-0.1952,-0.309,-0.41,-0.5026,-0.5298,-0.5344,-0.5264,-0.6067,-0.6561,-0.6639,-0.7359,-0.7969,-0.8652,-0.8464,0.0,-1.0576,-1.0409,-1.084,-1.1658,-1.1609,-1.1536,-1.145,-1.1531,-1.1597,-1.1911,-1.4251,-1.5348,-1.565,-1.5834,-1.6017,-1.5993,-1.5405,-1.5343,-1.5397,-1.5025,-1.5864,-1.6842,-1.5884,-1.6652,0.0,-1.6754,-1.6322,-1.618,-1.6364,-1.5701,-1.5048,-1.5216,-1.5382,-1.5593,-1.5711,-1.6374,-1.716,-1.7707,-1.8712,-1.9803,-2.0831,-2.2243,-2.3293,-2.354,-2.3616,-2.3875,-2.4454,-2.324,-2.2228,-2.1987,-2.178,-2.2077,-2.3101,-2.3961,-2.468,-2.5347,-2.6552,-2.7622,-2.856,-2.9436,-2.9646,-2.9228,-3.0151,-3.0421,-2.9985,-3.0303,-3.0992,-3.1984,-3.1169,-3.1785,0.0,0.0,0.0,0.0,0.0,0.0,0.0,0.0,0.0,0.0,0.0,0.7017,0.6886,0.0,0.7392,0.7178,0.6766,0.6273,0.5847,0.5098,0.4133,0.2525,0.2071,0.1858,0.1891,0.073,-0.0313,-0.085,-0.2406,-0.3625,-0.4143,-0.4619,-0.4881,-0.4836,-0.5238,-0.5639,-0.6042,-0.6439,-0.7003,-0.7612,-0.759,-0.8002,-0.9017,-0.9012,-0.973,-1.0798,-1.057,-1.0668,-1.1028,-1.0789,-1.0827,-1.1153,-1.2868,-1.3897,-1.4569,-1.5394,-1.5632,-1.5514,-1.5177,-1.5035,-1.4893,-1.4721,-1.5294,-1.5884,-1.5381,-1.578,-1.6303,-1.57,-1.543,-1.5352,-1.5383,-1.4904,-1.4542,-1.505,-1.5078,-1.5161,-1.6037,-1.6802,-1.7571,-1.8263,-1.895,-1.9762,-2.091,-2.1754,-2.2659,-2.3826,-2.3891,-2.4057,-2.4762,-2.3915,-2.3072,-2.2534,-2.2049,-2.2036,-2.2746,-2.3815,-2.4654,-2.5164,-2.6956,-2.8111,-2.8401,-2.9241,-2.9657,-2.9494,-3.0196,-3.0419,-3.0144,-3.0426,-3.0804,-3.1283,-3.0774,-3.1502,0.0,0.0,0.0,0.0,0.0,0.0,0.0,0.7714,0.8065,0.7764,0.8635,0.9144,0.8214,0.8488,0.8721,0.8388,0.8034,0.7666,0.7328,0.6763,0.5659,0.3509,0.2951,0.2628,0.2436,0.1414,0.0609,0.0103,-0.1527,-0.2738,-0.3294,-0.4062,-0.4632,-0.4834,-0.4834,-0.5135,-0.5741,-0.572,-0.6049,-0.6608,-0.6856,-0.7178,-0.7569,-0.7768,-0.8736,-1.0195,-0.9856,-1.0151,-1.0735,-1.0539,-1.0565,-1.0718,-1.152,-1.2347,-1.3126,-1.4555,-1.4989,-1.4835,-1.4816,-1.465,-1.4506,-1.4606,-1.4787,-1.5022,-1.4974,-1.4953,-1.4924,-1.4714,-1.4757,-1.4738,-1.4326,-1.4171,-1.4261,-1.4832,-1.4709,-1.4869,-1.6343,-1.7229,-1.7959,-1.8654,-1.9105,-1.9639,-2.0588,-2.0883,-2.168,-2.3722,-2.4058,-2.4218,-2.4603,-2.42,-2.3624,-2.2996,-2.2252,-2.2019,-2.2498,-2.3715,-2.4681,-2.5269,-2.6983,-2.7907,-2.7703,-2.8606,-2.9176,-2.9311,-2.9737,-3.0021,-3.0114,-3.0126,-3.0214,-3.0381,-3.0139,-3.0877,0.7475,0.7952,0.8406,0.8743,0.873,0.8812,0.0,0.9937,1.0125,1.0153,1.082,1.1308,1.0835,1.1105,1.1283,1.1265,0.998,0.8849,0.88,0.7416,0.6374,0.6055,0.5529,0.4857,0.3914,0.3658,0.2636,0.0621,0.0204,-0.0907,-0.3132,-0.3328,-0.3827,-0.4734,-0.4834,-0.4834,-0.4935,-0.486,-0.4871,-0.4871,-0.5055,-0.5582,-0.652,-0.6734,-0.7874,-0.9672,-1.0079,-1.0167,-1.0035,-1.0176,-1.0239,-1.0254,-1.1215,-1.153,-1.1539,-1.258,-1.3316,-1.3781,-1.3691,-1.4045,-1.4515,-1.4506,-1.4763,-1.488,-1.4402,-1.4805,-1.529,-1.437,-1.421,-1.4295,-1.4243,-1.366,-1.3308,-1.4176,-1.4351,-1.4652,-1.5884,-1.7109,-1.7988,-1.8071,-1.9076,-1.9835,-1.956,-2.0153,-2.0982,-2.1897,-2.3556,-2.4391,-2.3515,-2.3638,-2.3685,-2.3376,-2.2666,-2.2446,-2.2969,-2.3707,-2.4338,-2.4836,-2.5479,-2.6206,-2.699,-2.7979,-2.831,-2.7924,-2.8714,-2.9224,-2.9401,-2.8776,-2.8867,-2.9595,-2.8696,-2.9516,0.9563,0.9706,0.9843,0.9858,1.0408,1.1076,1.1513,1.1983,1.2422,1.267,1.3076,1.3369,1.3424,1.3713,1.3636,1.2929,1.229,1.142,1.0289,0.9453,0.8801,0.8549,0.812,0.7244,0.5385,0.4446,0.3633,0.2646,0.1315,0.0202,-0.0806,-0.1913,-0.2718,-0.312,-0.3629,-0.4033,-0.4334,-0.4256,-0.4369,-0.4571,-0.4574,-0.4811,-0.5262,-0.5478,-0.6392,-0.7788,-0.8529,-0.8899,-0.903,-0.9332,-0.9645,-0.999,-1.0459,-1.0528,-1.0593,-1.1949,-1.2854,-1.3417,-1.338,-1.3731,-1.4148,-1.4148,-1.4148,-1.4076,-1.382,-1.3995,-1.4164,-1.3603,-1.3457,-1.3471,-1.3695,-1.3514,-1.3573,-1.4547,-1.5017,-1.552,-1.6574,-1.7706,-1.865,-1.9129,-1.9684,-2.0111,-2.0202,-2.0797,-2.1326,-2.1588,-2.2312,-2.3236,-2.4393,-2.3427,-2.2866,-2.3513,-2.2949,-2.2752,-2.33,-2.3845,-2.4194,-2.4338,-2.5239,-2.6005,-2.6478,-2.7358,-2.7826,-2.7824,-2.824,-2.8521,-2.8603,-2.8844,-2.8859,-2.8695,-2.8767,-2.9012,1.0742,1.0936,1.1114,1.0862,1.1566,1.247,1.3146,1.3715,1.419,1.4656,1.4893,1.5035,1.5114,1.5173,1.5127,1.4333,1.4163,1.3492,1.186,1.1349,1.0884,1.0156,0.992,0.9023,0.7226,0.5625,0.4524,0.4126,0.2417,0.121,0.0806,-0.0503,-0.151,-0.2013,-0.2318,-0.2917,-0.3603,-0.3238,-0.3369,-0.3776,-0.3679,-0.3676,-0.3762,-0.4491,-0.5341,-0.6342,-0.7282,-0.7795,-0.7997,-0.8292,-0.8679,-0.9167,-0.94,-0.9487,-0.9688,-1.1043,-1.1981,-1.2687,-1.2781,-1.3177,-1.3636,-1.3698,-1.3507,-1.3283,-1.3283,-1.3247,-1.321,-1.3159,-1.3096,-1.3152,-1.3695,-1.3658,-1.3716,-1.5017,-1.5466,-1.599,-1.7162,-1.821,-1.9119,-1.9875,-2.0146,-2.0266,-2.0437,-2.0928,-2.131,-2.1366,-2.1198,-2.2053,-2.4784,-2.3714,-2.2975,-2.3731,-2.3456,-2.3332,-2.3587,-2.4008,-2.4243,-2.4137,-2.515,-2.5794,-2.5882,-2.6485,-2.6963,-2.7252,-2.7349,-2.753,-2.7809,-2.8242,-2.8225,-2.7782,-2.8152,-2.79,1.0671,1.1373,1.2189,1.2027,1.2077,1.2662,1.4281,1.4928,1.5241,1.5624,1.603,1.5987,1.5212,1.5089,1.5263,1.5323,1.5267,1.466,1.3275,1.2638,1.1815,1.0529,1.0117,0.992,0.992,0.772,0.5824,0.4529,0.3327,0.2219,0.0907,0.0706,-0.0101,-0.1912,-0.1308,-0.1397,-0.2552,-0.1635,-0.132,-0.1663,-0.1861,-0.1843,-0.1964,-0.3921,-0.5311,-0.6179,-0.6998,-0.7265,-0.7158,-0.7158,-0.7255,-0.7423,-0.8102,-0.844,-0.863,-0.9356,-1.0231,-1.1155,-1.1593,-1.2254,-1.2952,-1.3212,-1.303,-1.2733,-1.2733,-1.2843,-1.3035,-1.3142,-1.3276,-1.3647,-1.4777,-1.3999,-1.3392,-1.5334,-1.5377,-1.554,-1.7395,-1.843,-1.9176,-1.9688,-2.0237,-2.0327,-1.947,-1.9856,-2.0396,-2.0774,-2.0489,-2.1211,-2.3899,-2.4679,-2.4762,-2.4153,-2.4358,-2.4373,-2.3928,-2.4264,-2.4489,-2.4489,-2.4832,-2.5063,-2.5143,-2.5284,-2.5449,-2.5678,-2.5663,-2.6125,-2.7027,-2.6208,-2.6195,-2.6922,-2.6037,-2.5564,1.2454,1.3647,1.4944,1.474,1.5367,1.6121,1.6699,1.7129,1.7491,1.7629,1.7338,1.6944,1.6443,1.6601,1.6586,1.5868,1.6137,1.6059,1.4832,1.3702,1.3099,1.3007,1.1492,1.0653,1.1189,0.9004,0.7021,0.5824,0.473,0.3629,0.2422,0.1916,0.131,0.0705,0.0398,-0.0197,-0.0882,-0.0758,-0.0836,-0.1291,-0.1397,-0.1534,-0.1798,-0.3105,-0.3915,-0.4295,-0.5199,-0.5808,-0.6062,-0.6198,-0.6579,-0.7087,-0.7951,-0.8364,-0.8554,-0.9285,-0.9743,-1.0172,-1.0785,-1.1522,-1.2238,-1.2333,-1.2339,-1.2328,-1.2328,-1.2426,-1.2559,-1.2608,-1.2754,-1.2997,-1.343,-1.3658,-1.3978,-1.4628,-1.5644,-1.6672,-1.7504,-1.8806,-1.9951,-2.0334,-2.0834,-2.0968,-2.0274,-2.0747,-2.1272,-2.1444,-2.2266,-2.3132,-2.3903,-2.4798,-2.5248,-2.4937,-2.4912,-2.4865,-2.4655,-2.4741,-2.4837,-2.4907,-2.4968,-2.5084,-2.5293,-2.5395,-2.5486,-2.5593,-2.5642,-2.581,-2.6148,-2.6422,-2.641,-2.6108,-2.6325,-2.6054,1.3632,1.4962,1.6269,1.6008,1.6606,1.7396,1.7831,1.7897,1.8038,1.8625,1.797,1.732,1.7372,1.7474,1.7345,1.6706,1.6956,1.6936,1.6208,1.4938,1.4225,1.4487,1.2616,1.1434,1.1965,1.0092,0.8418,0.722,0.6126,0.5131,0.4133,0.3527,0.2912,0.2295,0.1764,0.1156,0.038,0.0463,0.0273,-0.0271,-0.0347,-0.0674,-0.1242,-0.1833,-0.2384,-0.2905,-0.3763,-0.4372,-0.4736,-0.5026,-0.5516,-0.6125,-0.6903,-0.7394,-0.7644,-0.8332,-0.8772,-0.9104,-1.0071,-1.0918,-1.1578,-1.1661,-1.1873,-1.2076,-1.2076,-1.2175,-1.2274,-1.251,-1.2569,-1.2774,-1.3334,-1.3752,-1.4165,-1.472,-1.5983,-1.7229,-1.7666,-1.9141,-2.0407,-2.0575,-2.1083,-2.1277,-2.0545,-2.104,-2.1614,-2.1778,-2.3173,-2.4121,-2.3933,-2.4846,-2.5475,-2.5388,-2.5214,-2.5075,-2.505,-2.5044,-2.5038,-2.5099,-2.5138,-2.5226,-2.543,-2.5505,-2.5571,-2.5619,-2.5685,-2.5702,-2.57,-2.6262,-2.6247,-2.5718,-2.6225,-2.6101,1.4336,1.5388,1.6384,1.6057,1.616,1.6655,1.7832,1.7347,1.706,1.8658,1.7984,1.7207,1.7734,1.7542,1.7454,1.7954,1.769,1.737,1.7375,1.6244,1.535,1.5004,1.3464,1.2446,1.2436,1.1277,0.9912,0.8612,0.7515,0.652,0.5734,0.5425,0.448,0.2835,0.3072,0.2612,0.1433,0.1969,0.1948,0.1474,0.1471,0.0845,-0.0243,-0.0316,-0.0912,-0.1957,-0.275,-0.3086,-0.3203,-0.3766,-0.424,-0.4581,-0.5264,-0.5666,-0.597,-0.6708,-0.7333,-0.8033,-0.9418,-1.0324,-1.0867,-1.1175,-1.1628,-1.2076,-1.2076,-1.2076,-1.2215,-1.2774,-1.2745,-1.2852,-1.4398,-1.4212,-1.3988,-1.5412,-1.6361,-1.7151,-1.7959,-1.936,-2.0446,-2.0456,-2.1002,-2.118,-2.0264,-2.0824,-2.1498,-2.1843,-2.3259,-2.4198,-2.3961,-2.4839,-2.5511,-2.5504,-2.5269,-2.513,-2.513,-2.5118,-2.5122,-2.5122,-2.5283,-2.5425,-2.5498,-2.5556,-2.5636,-2.5707,-2.5699,-2.5703,-2.57,-2.5709,-2.5707,-2.5699,-2.5699,-2.562,1.6697,1.7741,1.8912,1.9113,1.887,1.8816,1.9555,1.8601,1.777,1.8564,1.7574,1.6592,1.6548,1.7246,1.7977,1.8549,1.9566,2.0264,1.9941,1.8845,1.7891,1.7154,1.5297,1.3906,1.3806,1.263,1.137,1.0301,0.9004,0.7813,0.6825,0.6634,0.5843,0.4496,0.4321,0.3651,0.2455,0.2844,0.2811,0.2285,0.2211,0.1763,0.087,0.0,-0.051,-0.0706,-0.1852,-0.2335,-0.2268,-0.2961,-0.3437,-0.376,-0.4864,-0.5464,-0.5864,-0.6602,-0.6925,-0.7198,-0.7994,-0.9009,-1.003,-1.0454,-1.1049,-1.1578,-1.1977,-1.2076,-1.2175,-1.2421,-1.2421,-1.2471,-1.3094,-1.3658,-1.4258,-1.5005,-1.6336,-1.7706,-1.8702,-2.0094,-2.1141,-2.1085,-2.1066,-2.0872,-2.0285,-2.1455,-2.266,-2.314,-2.437,-2.5019,-2.436,-2.4987,-2.5503,-2.5503,-2.544,-2.5388,-2.5331,-2.5331,-2.5313,-2.5322,-2.5313,-2.5382,-2.5498,-2.5515,-2.5589,-2.5707,-2.5699,-2.5703,-2.57,-2.5698,-2.5679,-2.5639,-2.5621,-2.5542,1.9238,1.9824,2.0454,2.0423,2.0003,1.9597,1.961,1.8623,1.7824,1.8315,1.7375,1.6588,1.694,1.7471,1.8123,1.8829,1.9742,2.058,2.1168,1.9923,1.8824,1.864,1.6601,1.5216,1.4956,1.3878,1.2915,1.2344,1.0681,0.9143,0.8028,0.774,0.6998,0.566,0.5275,0.453,0.354,0.366,0.3553,0.3055,0.3028,0.2571,0.1696,0.1301,0.0766,0.0206,-0.0592,-0.1151,-0.1447,-0.2137,-0.255,-0.2877,-0.3569,-0.4207,-0.4726,-0.5188,-0.573,-0.6253,-0.6592,-0.7601,-0.8817,-0.9703,-1.0379,-1.0998,-1.1569,-1.1728,-1.1819,-1.2126,-1.2412,-1.2657,-1.2855,-1.3669,-1.4506,-1.483,-1.611,-1.7465,-1.8191,-1.9593,-2.079,-2.1082,-2.0732,-2.0403,-2.034,-2.1434,-2.2446,-2.2806,-2.3789,-2.4429,-2.4366,-2.5026,-2.5499,-2.5499,-2.5495,-2.5484,-2.5456,-2.5423,-2.5406,-2.5397,-2.535,-2.5382,-2.5453,-2.5515,-2.5585,-2.5651,-2.5697,-2.5703,-2.5703,-2.5699,-2.5685,-2.5632,-2.5604,-2.5568,2.1488,2.1537,2.1495,2.1003,2.0454,1.9879,1.9214,1.8327,1.7751,1.8154,1.7421,1.7046,1.7967,1.8082,1.8419,1.9473,1.9698,2.0335,2.2148,2.058,1.9419,1.9851,1.8107,1.664,1.617,1.5305,1.4626,1.4309,1.2368,1.066,0.966,0.9204,0.8215,0.6557,0.5799,0.5183,0.4768,0.4738,0.4484,0.3926,0.39,0.3347,0.2377,0.283,0.2264,0.1063,0.0876,0.0305,-0.0427,-0.1064,-0.1481,-0.1749,-0.1944,-0.2444,-0.3071,-0.3327,-0.4116,-0.5156,-0.532,-0.6136,-0.7374,-0.8817,-0.971,-1.0423,-1.1108,-1.1326,-1.1418,-1.1927,-1.2501,-1.2916,-1.3041,-1.3795,-1.4558,-1.4742,-1.5814,-1.6915,-1.7441,-1.8806,-2.0147,-2.0872,-2.0393,-2.0057,-2.062,-2.1221,-2.1691,-2.1933,-2.2552,-2.3276,-2.4016,-2.483,-2.5344,-2.5337,-2.5321,-2.5337,-2.5337,-2.5266,-2.5299,-2.5395,-2.5401,-2.5406,-2.5414,-2.5521,-2.5598,-2.5601,-2.5673,-2.5703,-2.5703,-2.5699,-2.5709,-2.5685,-2.5634,-2.5602,2.2133,2.2413,2.2881,2.274,2.2345,2.1799,2.1226,2.0048,1.8945,1.8532,1.7962,1.7769,1.8333,1.8942,2.0093,2.2377,2.2668,2.3234,2.5073,2.3731,2.2335,2.1845,2.0738,1.9472,1.7817,1.7245,1.6292,1.4583,1.3448,1.2745,1.2564,1.1467,0.9737,0.7231,0.5817,0.565,0.6679,0.643,0.6149,0.5836,0.5574,0.4546,0.2872,0.2967,0.2814,0.2433,0.2224,0.2009,0.1709,0.0911,0.0507,0.0283,-0.0727,-0.1342,-0.1685,-0.224,-0.2736,-0.3342,-0.4278,-0.4875,-0.5575,-0.7888,-0.9072,-0.9769,-1.0964,-1.1326,-1.1418,-1.1927,-1.2175,-1.2269,-1.2407,-1.2962,-1.3695,-1.4644,-1.5793,-1.7071,-1.8615,-1.9828,-2.0816,-2.1448,-2.0876,-2.0646,-2.1718,-2.1835,-2.2005,-2.2698,-2.2909,-2.3032,-2.3126,-2.3934,-2.4516,-2.4503,-2.4464,-2.4423,-2.4428,-2.4405,-2.4687,-2.5354,-2.5404,-2.5421,-2.5468,-2.5556,-2.561,-2.5601,-2.5673,-2.5703,-2.5703,-2.5703,-2.5661,-2.5629,-2.5618,-2.5561,2.4447,2.4529,2.4618,2.4343,2.3819,2.3138,2.1931,2.068,1.9667,1.9403,1.8732,1.84,1.9278,1.9614,2.0248,2.1613,2.2691,2.3665,2.4492,2.4031,2.3209,2.2275,2.1502,2.0578,1.9297,1.8482,1.7765,1.7232,1.582,1.4365,1.293,1.1723,1.0386,0.8978,0.7982,0.7731,0.8206,0.7919,0.7526,0.7038,0.6861,0.5971,0.4457,0.4458,0.4005,0.3228,0.3129,0.2801,0.234,0.1855,0.1619,0.1396,0.0335,-0.0335,-0.0837,-0.1621,-0.2012,-0.2343,-0.3229,-0.3611,-0.4039,-0.5554,-0.7186,-0.8666,-0.9592,-1.0115,-1.0541,-1.104,-1.1303,-1.1492,-1.1853,-1.2595,-1.3525,-1.4594,-1.6129,-1.7708,-1.8886,-1.9773,-2.0585,-2.148,-2.0969,-2.072,-2.1718,-2.1399,-2.1158,-2.1541,-2.1584,-2.1758,-2.2165,-2.2623,-2.3075,-2.3527,-2.3959,-2.401,-2.3552,-2.3944,-2.4355,-2.4745,-2.4748,-2.4941,-2.5429,-2.5557,-2.5607,-2.5609,-2.5676,-2.5698,-2.5699,-2.5699,-2.5681,-2.5644,-2.5643,-2.5636,2.629,2.6347,2.6302,2.5691,2.5238,2.4425,2.2551,2.1427,2.0726,2.0258,1.9678,1.9554,2.0509,2.0479,2.0495,2.1068,2.2339,2.3468,2.4112,2.4086,2.3691,2.2955,2.2389,2.1668,2.0603,1.9589,1.9082,1.9327,1.7686,1.5599,1.2985,1.1771,1.0917,1.041,0.9952,0.9614,0.9403,0.9097,0.8638,0.8032,0.7981,0.7274,0.602,0.6005,0.5339,0.4206,0.4163,0.3785,0.3229,0.3014,0.2847,0.2623,0.1733,0.1117,0.0557,-0.0334,-0.0723,-0.0944,-0.1557,-0.1831,-0.2101,-0.2934,-0.5074,-0.7385,-0.7941,-0.8842,-0.9703,-1.0254,-1.0754,-1.1185,-1.1602,-1.2527,-1.3584,-1.4687,-1.652,-1.8179,-1.8894,-1.9542,-2.026,-2.1189,-2.0987,-2.0818,-2.1201,-2.0693,-2.0296,-2.0508,-2.0359,-2.0489,-2.117,-2.1274,-2.154,-2.2253,-2.3118,-2.3364,-2.2681,-2.3417,-2.3925,-2.391,-2.4041,-2.4439,-2.5106,-2.5258,-2.5415,-2.5609,-2.566,-2.5696,-2.5696,-2.5707,-2.5691,-2.5694,-2.5702,-2.5698,2.598,2.6651,2.7341,2.6864,2.6672,2.6011,2.3904,2.3295,2.2641,2.0684,2.1083,2.1801,2.1913,2.1753,2.2088,2.3622,2.3186,2.3628,2.6435,2.5944,2.5317,2.5305,2.5029,2.3843,2.1306,2.0685,1.9925,1.8638,1.7591,1.615,1.414,1.3049,1.1695,1.0225,0.9624,0.9572,1.0078,0.9826,0.9489,0.9139,0.8822,0.8018,0.682,0.6635,0.6407,0.6109,0.5991,0.5873,0.5651,0.5391,0.5175,0.4889,0.4061,0.3561,0.3335,0.2717,0.2382,0.2159,0.1438,0.1215,0.0884,-0.0775,-0.3421,-0.6013,-0.6727,-0.8168,-0.9732,-1.023,-1.1186,-1.2008,-1.2131,-1.2725,-1.3683,-1.5189,-1.6605,-1.7917,-1.8954,-1.9742,-2.0335,-2.0571,-2.1135,-2.1293,-2.0396,-2.0067,-2.0251,-2.1163,-2.0573,-2.005,-2.0136,-2.0203,-2.0296,-2.043,-2.1273,-2.1817,-2.1726,-2.252,-2.3024,-2.3024,-2.3758,-2.4219,-2.43,-2.4381,-2.4781,-2.559,-2.5609,-2.5639,-2.5697,-2.5705,-2.5701,-2.5703,-2.5703,-2.5696,2.7214,2.7998,2.8569,2.8334,2.7558,2.645,2.4859,2.3849,2.3033,2.211,2.2211,2.2571,2.301,2.2483,2.2317,2.3239,2.3636,2.4137,2.514,2.545,2.5421,2.4819,2.4937,2.4436,2.2994,2.1756,2.0212,1.8299,1.7889,1.7203,1.5939,1.4888,1.365,1.2179,1.2035,1.1732,1.1318,1.1246,1.0931,1.0242,1.0108,0.9653,0.8858,0.8476,0.8092,0.7782,0.741,0.709,0.6881,0.6666,0.6445,0.623,0.545,0.5066,0.4848,0.4181,0.4017,0.4027,0.3411,0.3087,0.2817,0.2198,0.027,-0.2136,-0.4091,-0.5802,-0.6866,-0.6207,-0.7265,-0.8629,-0.8349,-1.1457,-1.5151,-1.7067,-1.7907,-1.8494,-1.9324,-1.966,-1.9755,-1.9571,-1.9957,-2.0352,-2.0439,-1.9982,-1.9762,-2.0229,-2.0017,-1.9824,-1.9824,-1.9843,-1.9866,-1.9909,-2.087,-2.134,-2.0865,-2.162,-2.2091,-2.2049,-2.2914,-2.3636,-2.413,-2.4706,-2.52,-2.5522,-2.5585,-2.562,-2.5641,-2.5671,-2.5697,-2.5703,-2.57,-2.5693,2.7794,2.8655,2.9313,2.9252,2.8092,2.6765,2.5885,2.4542,2.3387,2.3351,2.3412,2.3569,2.402,2.3332,2.2841,2.3209,2.3964,2.4488,2.4385,2.5166,2.551,2.4788,2.4776,2.4612,2.4036,2.25,2.0715,1.8833,1.8856,1.8458,1.7272,1.6635,1.5414,1.353,1.3414,1.2995,1.2184,1.2184,1.1873,1.1341,1.1243,1.0959,1.0415,1.012,0.9754,0.9304,0.9016,0.875,0.0,0.8266,0.8109,0.7964,0.7295,0.6966,0.6802,0.6139,0.612,0.633,0.5623,0.5575,0.5672,0.5234,0.4419,0.3184,0.0726,-0.1993,-0.4007,-0.2883,-0.4493,-0.6873,-0.7959,-1.2026,-1.6221,-1.7773,-1.8276,-1.8474,-1.8724,-1.8843,-1.8768,-1.8299,-1.8601,-1.9148,-1.9865,-1.9499,-1.9176,-1.9383,-1.9462,-1.9499,-1.9499,-1.9508,-1.9548,-1.9606,-2.0339,-2.068,-2.0241,-2.1023,-2.1435,-2.1166,-2.223,-2.3141,-2.3708,-2.4609,-2.5224,-2.5492,-2.5556,-2.5576,-2.5569,-2.5646,-2.5676,-2.5679,-2.5682,-2.5683,2.7079,2.8193,2.9403,2.9403,2.8277,2.7193,2.7197,2.5619,2.4195,2.42,2.4708,2.5128,2.5028,2.4536,2.4168,2.412,2.4214,2.4511,2.5114,2.5633,2.595,2.5884,2.5179,2.4499,2.4058,2.2898,2.1653,2.035,2.0785,2.0057,1.779,1.8171,1.6879,1.3425,1.2839,1.2569,1.2523,1.2219,1.2186,1.2398,1.2113,1.1619,1.1015,1.124,1.114,1.0813,1.1032,1.1073,0.0,1.0588,1.0444,1.0324,0.9841,0.9673,0.9585,0.9033,0.9092,0.9356,0.8555,0.9167,1.0045,0.8166,0.8857,1.0046,0.8236,0.3272,-0.1678,-0.1337,-0.4099,-0.827,-1.2998,-1.5309,-1.6438,-1.6586,-1.7188,-1.7513,-1.6801,-1.71,-1.7338,-1.674,-1.7271,-1.7936,-1.827,-1.8372,-1.855,-1.8946,-1.9014,-1.9014,-1.9014,-1.9073,-1.9176,-1.9378,-1.936,-1.9518,-1.9964,-2.0862,-2.1079,-2.0354,-2.1886,-2.2838,-2.2898,-2.3689,-2.4543,-2.5492,-2.5492,-2.5492,-2.5511,-2.5569,-2.5609,-2.5601,-2.5668,-2.5664,2.7192,2.7517,2.7691,2.8508,2.7197,2.582,2.628,2.5376,2.453,2.4996,2.5431,2.5726,2.5689,2.5566,2.5403,2.5033,2.5393,2.5535,2.4953,2.5769,2.644,2.626,2.6358,2.6007,2.4932,2.4027,2.3204,2.2412,2.174,2.0864,1.969,1.8976,1.7329,1.4665,1.4722,1.4407,1.3689,1.4073,1.412,1.3847,1.3905,1.3821,1.359,1.358,1.3429,1.3145,1.3165,1.3219,1.3242,1.3054,1.2806,1.2589,1.2575,1.2107,1.1391,1.1361,1.133,1.1339,1.1253,1.1372,1.1508,1.1593,1.1449,1.11,1.0342,0.6607,0.2254,0.0473,-0.0865,-0.3038,-0.8724,-1.1148,-1.2681,-1.495,-1.5383,-1.5471,-1.6298,-1.6552,-1.6485,-1.606,-1.6556,-1.7056,-1.7126,-1.7582,-1.8035,-1.841,-1.8378,-1.8382,-1.8567,-1.8571,-1.8627,-1.8824,-1.8945,-1.9436,-2.047,-2.0387,-2.0706,-2.1616,-2.2286,-2.294,-2.3553,-2.4485,-2.5108,-2.536,-2.5459,-2.5511,-2.5511,-2.553,-2.5564,-2.5603,-2.5613,-2.5617,2.6922,2.733,2.742,2.8068,2.6811,2.564,2.6369,2.558,2.4974,2.5764,2.6134,2.6262,2.6243,2.6351,2.6358,2.5996,2.665,2.7005,2.6563,2.701,2.7167,2.6562,2.7199,2.7089,2.5479,2.4873,2.4312,2.3448,2.2441,2.1381,2.0315,1.9547,1.8223,1.6212,1.604,1.5674,1.505,1.5303,1.5464,1.5472,1.5504,1.5536,1.5557,1.5568,1.5413,1.5124,1.5159,1.5289,0.0,1.4923,1.4643,1.4512,1.4255,1.3785,1.3214,1.3218,1.3337,1.3471,1.3398,1.3644,1.4042,1.4385,1.4251,1.3978,1.4133,1.0907,0.6344,0.2128,0.0738,-0.0778,-0.6365,-0.8889,-1.0576,-1.2914,-1.3487,-1.3844,-1.5078,-1.5462,-1.5506,-1.5344,-1.5872,-1.6365,-1.6447,-1.6922,-1.7452,-1.7951,-1.7878,-1.7793,-1.7856,-1.7924,-1.8044,-1.8275,-1.8397,-1.9128,-2.0814,-2.0154,-2.027,-2.1721,-2.1943,-2.2585,-2.3809,-2.4493,-2.4976,-2.5284,-2.5332,-2.5406,-2.5511,-2.5511,-2.5483,-2.546,-2.556,-2.5576,0.0,2.7435,2.8096,2.7811,2.6924,2.636,2.7108,2.6195,0.0,2.6505,2.6691,2.6674,2.664,2.6895,2.7085,2.689,2.7664,2.8528,2.9187,2.8903,2.8182,2.6916,2.7996,2.7935,2.577,2.5611,2.5142,2.3923,2.3053,2.1821,2.0182,2.0075,1.9405,1.7935,1.7004,1.6544,1.6519,1.6133,1.6336,1.7177,1.6972,1.6907,1.7006,1.7221,1.7126,1.6842,1.7059,1.733,1.7502,1.6441,1.6088,1.6175,1.5209,1.4913,1.4997,1.4713,1.5063,1.5654,1.5109,1.596,1.7193,1.6534,1.7059,1.8038,1.8517,1.5548,1.0726,0.4727,0.1465,-0.1212,-0.563,-0.8139,-0.9733,-1.0545,-1.1492,-1.2475,-1.3254,-1.3904,-1.4394,-1.4589,-1.5227,-1.5838,-1.6142,-1.6401,-1.6805,-1.7477,-1.7429,-1.7216,-1.6971,-1.7183,-1.7428,-1.7698,-1.771,-1.8581,-2.0779,-2.0024,-1.994,-2.1091,-2.1205,-2.2009,-2.3719,-2.3912,-2.4372,-2.5244,-2.516,-2.5214,-2.5476,-2.5476,-2.537,-2.5201,-2.5455,-2.5492,2.6727,0.0,2.6068,2.6256,2.5893,2.5612,0.0,2.5932,2.5909,2.669,2.6842,2.6842,2.6708,2.7143,2.7267,2.6343,2.6798,2.7185,2.7081,2.8698,2.958,2.8762,2.9862,2.9421,2.6196,2.6776,2.7025,2.6257,2.4887,2.372,2.2827,2.1637,2.0565,1.963,1.9168,1.8439,1.7477,1.7813,1.809,1.8249,1.8352,1.8541,1.8801,1.8688,1.8749,1.8899,1.8803,1.9016,1.9292,1.8281,1.792,1.7938,1.7192,1.6678,1.6357,1.638,1.6639,1.6992,1.711,1.7586,1.8165,1.8501,1.8941,1.873,1.5423,1.5535,1.6687,1.6202,0.7248,-0.2562,-0.4003,-0.5613,-0.721,-0.8713,-0.9497,-1.0203,-1.1354,-1.2153,-1.2895,-1.3697,-1.462,-1.5433,-1.5961,-1.6159,-1.6351,-1.6526,-1.6495,-1.6468,-1.6412,-1.6543,-1.6739,-1.7016,-1.7429,-1.7917,-1.8491,-1.9393,-2.0726,-2.2564,-2.2704,-2.2978,-2.3623,-2.4244,-2.4714,-2.4994,-2.5049,-2.5138,-2.5192,-2.5192,-2.5171,-2.5126,-2.5184,-2.5234,2.7055,2.642,2.5914,2.6085,2.5835,2.5704,2.6217,2.623,2.63,2.6824,2.6959,2.6909,2.6825,2.7927,2.853,2.752,2.8498,2.8953,2.7729,2.8796,2.946,2.8825,2.9085,2.8719,2.7201,2.7205,2.716,2.6832,2.5211,2.4056,2.367,2.2287,2.1227,2.0635,2.0732,2.015,1.8881,1.8948,1.9207,1.9611,1.9549,1.9798,2.0268,2.0239,2.0293,2.0459,2.0445,2.048,2.0469,1.9384,1.8876,1.87,1.7952,1.7506,1.7332,1.7602,1.7871,1.8169,1.8449,1.8786,1.9179,1.965,1.8815,1.7152,1.4736,1.3309,1.219,1.0568,0.4016,-0.2766,-0.3716,-0.444,-0.5439,-0.7446,-0.8366,-0.9173,-1.0379,-1.1228,-1.1949,-1.2671,-1.3544,-1.4256,-1.4655,-1.5307,-1.5802,-1.5815,-1.6024,-1.6113,-1.5824,-1.5585,-1.5722,-1.6463,-1.6821,-1.7205,-1.7698,-1.8849,-2.0217,-2.1731,-2.1572,-2.1829,-2.2776,-2.3328,-2.4002,-2.4804,-2.4987,-2.5037,-2.4929,-2.4987,-2.4943,-2.4818,-2.4892,-2.493,2.7282,2.7128,2.694,2.6661,2.6374,2.6339,2.6879,2.6759,2.664,2.6942,2.7007,2.7093,2.7232,2.8713,2.9714,2.9132,3.0764,3.1523,3.0011,2.9798,2.9576,2.8832,2.8172,2.7881,2.8183,2.7443,2.6805,2.6574,2.4979,2.3911,2.3666,2.2498,2.1707,2.1357,2.1824,2.1619,2.0573,2.0001,2.0119,2.0958,2.0685,2.0879,2.1477,2.1602,2.1703,2.1761,2.1956,0.0,2.1401,2.0186,1.9566,1.9235,1.8245,1.7983,1.8185,1.8539,1.8854,1.9172,1.9374,1.9669,1.9922,1.9608,1.7478,1.4885,1.4081,0.9867,0.4329,-0.0629,-0.2169,-0.262,-0.3967,-0.4216,-0.4639,-0.6615,-0.7724,-0.8626,-0.9787,-1.0532,-1.1148,-1.1653,-1.2295,-1.282,-1.3094,-1.4152,-1.4938,-1.4982,-1.5601,-1.5825,-1.5239,-1.4643,-1.4747,-1.5978,-1.6161,-1.6568,-1.7533,-1.8252,-1.8987,-1.9718,-1.9644,-2.026,-2.181,-2.2166,-2.3019,-2.442,-2.4812,-2.4869,-2.4645,-2.4756,-2.4599,-2.4217,-2.4507,-2.4565,2.7051,2.7844,2.8523,2.74,2.7258,2.7372,2.7214,2.718,2.7137,2.7103,2.707,2.7465,2.8698,2.8629,2.8595,2.9158,3.0246,3.1579,3.3175,3.3498,3.3127,3.1915,3.1441,3.0369,2.8094,2.8169,2.7826,2.6446,2.5443,2.4585,2.3902,2.3032,2.2531,2.2461,2.2488,2.2547,2.2641,2.1995,2.1674,2.172,2.1797,2.1945,2.2147,2.2399,2.2642,2.2863,0.0,2.2935,2.2688,2.1216,2.0708,2.071,1.9219,1.8893,1.9257,1.9328,1.9513,1.9783,1.9991,2.0185,1.9826,1.6856,1.5579,1.4235,0.9182,0.6067,0.3395,-0.061,-0.2525,-0.3453,-0.3818,-0.4806,-0.5879,-0.6313,-0.7007,-0.7855,-0.8933,-0.9403,-0.9904,-1.0867,-1.1337,-1.186,-1.2773,-1.3065,-1.316,-1.3128,-1.4429,-1.5216,-1.4547,-1.437,-1.4661,-1.5595,-1.5953,-1.6305,-1.6769,-1.7248,-1.7599,-1.7743,-1.9668,-2.1096,-2.1695,-2.253,-2.3078,-2.3355,-2.4056,-2.4428,-2.4449,-2.4411,-2.3875,-2.2918,-2.3894,-2.4003,2.7258,2.815,2.9089,2.8938,2.9168,2.9492,2.9471,2.9206,2.8767,2.8105,2.7915,2.8122,2.8945,2.9762,3.089,3.265,3.2283,3.1983,3.2651,3.2438,3.1994,3.1352,3.0409,2.9638,2.9165,2.8781,2.8083,2.6943,2.6233,2.5518,2.4705,2.3835,2.3365,2.3365,2.3325,2.344,2.3755,2.3448,2.3088,2.272,2.2583,2.2651,2.2905,2.3206,2.3436,2.3605,0.0,2.3595,2.3139,2.2447,2.1709,2.0981,2.0288,1.9918,1.9717,1.9768,1.9936,2.0169,2.0183,2.0311,1.9873,1.6306,1.3876,1.1592,0.7588,0.3783,0.0478,-0.1399,-0.233,-0.2865,-0.3353,-0.3965,-0.4657,-0.5642,-0.6283,-0.6952,-0.8039,-0.8691,-0.9253,-1.005,-1.0568,-1.1137,-1.178,-1.2342,-1.2728,-1.2589,-1.3348,-1.398,-1.427,-1.4283,-1.4467,-1.4864,-1.5359,-1.5859,-1.6297,-1.6574,-1.6979,-1.7653,-1.8927,-2.0201,-2.1425,-2.2044,-2.281,-2.3767,-2.4137,-2.4321,-2.4358,-2.4114,-2.3686,-2.3156,-2.3482,-2.3476,2.7539,2.8414,2.9523,3.0297,3.054,3.076,3.1614,3.1076,3.0248,2.9843,2.9527,2.9421,2.9796,3.1076,3.2772,3.4907,3.3886,3.2733,3.2487,3.1912,3.1415,3.1118,2.9761,2.9187,3.0134,2.9137,2.8177,2.7551,2.6738,2.6033,2.5424,2.4559,2.4062,2.4062,2.4118,2.4264,2.4465,2.4435,2.4155,2.3602,2.3414,2.341,2.3599,2.3966,2.4137,2.4192,2.442,2.4201,2.3671,2.3502,2.2585,2.1293,2.1248,2.0726,2.0021,2.0077,2.0222,2.0385,2.0307,2.0371,1.9775,1.538,1.2488,0.995,0.5835,0.1725,-0.1614,-0.1973,-0.2062,-0.2239,-0.3084,-0.3258,-0.3605,-0.5009,-0.569,-0.6271,-0.7168,-0.7915,-0.8569,-0.9173,-0.9776,-1.0331,-1.0781,-1.156,-1.223,-1.252,-1.2626,-1.301,-1.3846,-1.3947,-1.4009,-1.4178,-1.4706,-1.5213,-1.5692,-1.5915,-1.6459,-1.7415,-1.7902,-1.8833,-2.0354,-2.0858,-2.1714,-2.3045,-2.3524,-2.3836,-2.4054,-2.3649,-2.3236,-2.2847,-2.2856,-2.286,2.7701,2.8846,3.0199,3.0935,3.0197,2.9881,3.2419,3.1579,3.0795,3.2517,3.2288,3.1923,3.2583,3.2187,3.2023,3.2898,3.3321,3.3923,3.506,3.5002,3.4476,3.3468,3.2104,3.0986,3.036,2.8989,2.8127,2.8128,2.66,2.5671,2.5671,2.4954,2.4551,2.4551,2.4795,2.4923,2.4949,2.4883,2.4655,2.4241,2.4463,2.4414,2.4155,2.4548,2.47,2.4657,2.4874,2.4891,2.4737,2.4106,2.331,2.242,2.1801,2.1069,2.0355,2.0365,2.0374,2.0409,2.0469,2.0499,1.9372,1.25,1.1578,1.1414,0.2008,-0.0797,-0.094,-0.1703,-0.2105,-0.246,-0.3353,-0.3792,-0.4176,-0.4714,-0.5437,-0.6076,-0.6331,-0.6803,-0.7391,-0.8236,-0.8691,-0.9253,-1.0263,-1.0482,-1.0983,-1.2446,-1.2699,-1.2733,-1.2885,-1.2901,-1.3179,-1.3868,-1.4084,-1.4347,-1.4692,-1.5227,-1.5681,-1.5933,-1.6914,-1.7552,-1.7766,-1.8753,-1.9228,-1.9115,-2.1062,-2.2476,-2.3267,-2.2884,-2.1979,-2.0671,-2.1691,-2.1951,2.8324,2.9872,3.1391,3.1088,3.1041,3.1667,3.3913,3.3484,3.2657,3.2593,3.3092,3.352,3.3408,3.2948,3.2978,3.4273,3.4334,3.4386,3.4878,3.4828,3.4246,3.2827,3.1722,3.0945,3.0646,2.927,2.8204,2.7749,2.6711,2.5896,2.5416,2.5127,2.4981,2.4981,2.5037,2.5103,2.519,2.5116,2.5058,2.4979,2.4835,2.4737,2.4709,2.4929,2.5069,2.508,2.5141,2.5149,2.5069,2.4858,2.4255,2.3349,2.2184,2.1206,2.0453,2.0469,2.0455,2.0462,2.0482,1.9056,1.6402,1.1498,0.9517,0.7814,0.1206,-0.1031,-0.1344,-0.1524,-0.1701,-0.2059,-0.2821,-0.3214,-0.3609,-0.4364,-0.4753,-0.5091,-0.5561,-0.6204,-0.6917,-0.7653,-0.8211,-0.8756,-0.9412,-0.9808,-1.0244,-1.085,-1.1426,-1.1943,-1.2448,-1.2366,-1.246,-1.2917,-1.357,-1.3998,-1.4096,-1.4522,-1.4838,-1.493,-1.6207,-1.7265,-1.7905,-1.8485,-1.8833,-1.8949,-2.0038,-2.0992,-2.1832,-2.1437,-2.0994,-2.0541,-2.1144,-2.1324,2.9418,3.0695,3.1928,3.1792,3.2038,3.2984,3.5426,3.4997,3.4117,3.4347,3.4477,3.4403,3.4028,3.3134,3.2959,3.4592,3.4329,3.3997,3.4201,3.4033,3.3241,3.1525,3.1109,3.0653,2.9876,2.8927,2.8147,2.7605,2.6634,2.5924,2.5617,2.5369,2.5245,2.5255,2.5255,2.5301,2.5383,2.534,2.5376,2.5453,2.5174,2.5081,2.512,2.5234,2.5316,2.5332,2.5354,2.5329,2.5302,2.5363,2.4714,2.356,2.2293,2.1263,2.0499,2.0494,2.0492,2.0505,2.0498,1.8178,1.4599,1.1065,0.8382,0.5628,0.0764,-0.0987,-0.1345,-0.1435,-0.1524,-0.1746,-0.2417,-0.2682,-0.3034,-0.3965,-0.4272,-0.453,-0.4961,-0.5647,-0.6368,-0.7043,-0.7592,-0.8103,-0.8618,-0.9133,-0.9609,-0.9875,-1.034,-1.1008,-1.1881,-1.1811,-1.1827,-1.2201,-1.2982,-1.3424,-1.3329,-1.3697,-1.3918,-1.3963,-1.5037,-1.612,-1.7101,-1.7416,-1.7633,-1.776,-1.8506,-1.9165,-1.9767,-1.9771,-1.9892,-2.0144,-2.0211,-2.0351,3.0965,3.1228,3.1613,3.3204,3.3003,3.3358,3.6879,3.5798,3.4992,3.8449,3.6718,3.4609,3.4687,3.2675,3.1559,3.3223,3.2933,3.2686,3.3298,3.2861,3.1787,2.9899,3.0634,3.0299,2.7846,2.7788,2.7883,2.7894,2.6275,2.5659,2.6447,2.5745,2.534,2.5395,2.5521,2.5593,2.5593,2.5593,2.5605,2.5597,2.5593,2.5534,2.5402,2.5466,2.5454,2.5402,2.5465,2.5504,2.5506,2.5556,2.4563,2.2923,2.2113,2.1269,2.0503,2.0494,2.05,2.0507,2.05,1.8146,1.4566,1.107,0.8463,0.5698,0.0254,-0.0987,-0.0674,-0.139,-0.1614,-0.1703,-0.2146,-0.2279,-0.2546,-0.3476,-0.4136,-0.4574,-0.4574,-0.5053,-0.5707,-0.6349,-0.6755,-0.7203,-0.7889,-0.839,-0.895,-0.9758,-0.9709,-1.0012,-1.1121,-1.1132,-1.1234,-1.1799,-1.2246,-1.2425,-1.2294,-1.2578,-1.2857,-1.2973,-1.3297,-1.3925,-1.4845,-1.5122,-1.5152,-1.4907,-1.6204,-1.6954,-1.7088,-1.7969,-1.8617,-1.9104,-1.8826,-1.8873,3.1763,3.2654,3.3506,3.3413,3.4083,3.5235,3.6939,3.5621,3.4538,3.6489,3.5811,3.4888,3.4908,3.3415,3.2367,3.2848,3.1862,3.1098,3.1328,3.0681,2.9767,2.8637,2.8734,2.8608,2.7874,2.7396,2.7129,2.7128,2.6113,2.5624,2.5844,2.5643,2.5527,2.5537,2.5576,2.5598,2.5605,2.5648,2.5672,2.5673,2.5663,2.5619,2.5535,2.5558,2.5561,2.5531,2.5554,2.5572,2.5531,2.4987,2.409,2.2997,2.2128,2.1269,2.0504,2.0502,2.0501,2.05,2.0497,1.6535,1.1579,1.2171,0.744,0.1211,-0.0397,-0.0899,-0.09,-0.1168,-0.1213,-0.1212,-0.1389,-0.1923,-0.2549,-0.3306,-0.3568,-0.37,-0.4052,-0.4491,-0.5009,-0.5567,-0.6209,-0.6677,-0.6797,-0.7391,-0.7931,-0.8095,-0.8333,-0.8683,-0.9266,-0.9865,-1.0215,-1.0157,-1.0692,-1.1079,-1.1041,-1.138,-1.1614,-1.1662,-1.2106,-1.2877,-1.3945,-1.406,-1.4201,-1.4397,-1.4788,-1.5584,-1.6772,-1.7027,-1.767,-1.8664,-1.8602,-1.8602,3.3146,3.4182,3.5143,3.5036,3.6041,3.7007,3.69,3.6394,3.613,3.6914,3.6043,3.5209,3.5572,3.3825,3.2455,3.2788,3.1229,2.9989,3.0014,2.9306,2.8458,2.7653,2.7828,2.777,2.7095,2.6933,2.6714,2.6344,2.5866,2.5595,2.5592,2.5595,2.56,2.5644,2.5605,2.5605,2.5644,2.5643,2.5662,2.5702,2.5675,2.5641,2.5643,2.5619,2.5597,2.5604,2.5605,2.5604,2.5561,2.5056,2.4334,2.3512,2.2964,2.2032,2.1013,2.1335,2.1045,2.0547,2.0873,1.6718,1.1526,1.2942,0.714,-0.0405,-0.0269,-0.0359,-0.0539,-0.0584,-0.0584,-0.0629,-0.0672,-0.1163,-0.1921,-0.2998,-0.322,-0.3258,-0.3571,-0.3965,-0.4395,-0.487,-0.5437,-0.5916,-0.6215,-0.6634,-0.7014,-0.7328,-0.7765,-0.8121,-0.8317,-0.9067,-0.9464,-0.9178,-0.9778,-1.0138,-0.9973,-1.0301,-1.0601,-1.0782,-1.0947,-1.1479,-1.235,-1.2918,-1.3323,-1.355,-1.3736,-1.4362,-1.5568,-1.5731,-1.6323,-1.7286,-1.7286,-1.7286,3.4831,3.5628,3.6464,3.7467,3.8379,3.8626,3.7018,3.7749,3.8687,3.8514,3.6799,3.5547,3.6272,3.3884,3.2037,3.2764,3.0806,2.9171,2.9097,2.8371,2.76,2.6887,2.7498,2.7368,2.5857,2.6425,2.6522,2.5666,2.5597,2.5602,2.5605,2.5605,2.5623,2.5696,2.5629,2.5637,2.5684,2.5613,2.5613,2.5681,2.5601,2.5613,2.5679,2.562,2.5583,2.5588,2.5574,2.5586,2.5584,2.5434,2.4934,2.4276,2.4116,2.3123,2.1867,2.2507,2.1877,2.0744,2.0983,1.7636,1.3226,1.2967,0.7063,0.0135,0.0493,0.0448,0.0314,0.0224,0.0134,0.0045,0.0134,-0.0134,-0.0849,-0.2373,-0.2907,-0.3037,-0.3126,-0.3344,-0.3693,-0.4216,-0.453,-0.5014,-0.5879,-0.6002,-0.6252,-0.7118,-0.7619,-0.7934,-0.7874,-0.8456,-0.881,-0.8617,-0.9156,-0.9372,-0.8964,-0.9213,-0.9542,-0.9987,-0.9794,-0.9848,-1.0303,-1.1665,-1.2401,-1.2437,-1.2855,-1.3318,-1.3929,-1.4285,-1.4731,-1.5276,-1.5287,-1.5332,3.593,3.6296,3.6793,3.8265,3.9382,3.988,3.8839,3.8464,3.7733,3.5647,3.5438,3.5488,3.503,3.3266,3.1736,3.1294,2.9602,2.814,2.7511,2.6685,2.6097,2.5966,2.6124,2.6106,2.5736,2.5878,2.5898,2.5683,2.5638,2.5603,2.5603,2.5597,2.5601,2.563,2.561,2.561,2.5625,2.556,2.5535,2.5532,2.5473,2.5447,2.5471,2.5492,2.5499,2.5434,2.5434,2.5466,2.5459,2.4703,2.4309,2.4064,2.3323,2.2802,2.2404,2.1795,2.1839,2.1663,1.767,1.4488,1.1854,0.9642,0.5056,0.0537,0.1208,0.1299,0.1031,0.0582,0.0224,0.0224,0.1164,0.0671,-0.0089,-0.0134,-0.0981,-0.1923,-0.2413,-0.2457,-0.2632,-0.3344,-0.3781,-0.422,-0.4618,-0.5226,-0.5707,-0.6019,-0.6386,-0.6507,-0.6264,-0.6797,-0.7168,-0.7007,-0.7342,-0.7641,-0.7773,-0.7641,-0.768,-0.7946,-0.8323,-0.8648,-0.8928,-1.0218,-1.1095,-1.1354,-1.1747,-1.2362,-1.3205,-1.3313,-1.3638,-1.4174,-1.4574,-1.4778,3.5897,3.6608,3.7637,3.9419,3.9995,3.9878,3.9025,3.8227,3.7039,3.4794,3.4757,3.4988,3.4575,3.3102,3.1557,3.033,2.9016,2.7719,2.6507,2.5927,2.566,2.5703,2.5702,2.5681,2.5658,2.6021,2.6091,2.5676,2.5983,2.6013,2.562,2.5565,2.5543,2.5512,2.5499,2.5492,2.5459,2.5004,2.4791,2.4819,2.4365,2.4335,2.4692,2.5216,2.5421,2.535,2.5385,2.5382,2.5327,2.4782,2.4321,2.3937,2.3736,2.2958,2.1999,2.2564,2.2199,2.1036,1.8467,1.4687,1.0763,0.9315,0.6402,0.3443,0.3663,0.2884,0.1914,0.1607,0.1381,0.1341,0.1837,0.1432,0.0893,0.0759,-0.0223,-0.1164,-0.1475,-0.1564,-0.1787,-0.2364,-0.3164,-0.3832,-0.4136,-0.4613,-0.4913,-0.487,-0.513,-0.5308,-0.527,-0.5873,-0.6221,-0.6142,-0.6562,-0.6852,-0.6823,-0.6933,-0.7127,-0.736,-0.776,-0.8021,-0.8159,-0.8761,-0.955,-1.0548,-1.1142,-1.1679,-1.2109,-1.2314,-1.2567,-1.2869,-1.3117,-1.327,3.5745,3.7011,3.8692,4.0279,4.0195,3.9472,3.8599,3.7722,3.6649,3.508,3.4506,3.4257,3.4109,3.2822,3.125,2.9578,2.8685,2.7672,2.6133,2.5781,2.5741,2.5883,2.5763,2.5657,2.559,2.6357,2.6505,2.5649,2.6337,2.6424,2.5615,2.5498,2.543,2.5376,2.5337,2.5302,2.5245,2.4505,2.4101,2.4013,2.3146,2.3054,2.3662,2.4505,2.4937,2.5028,2.5216,2.5071,2.4681,2.4748,2.4262,2.3548,2.4034,2.3022,2.1492,2.3225,2.2421,2.0355,1.9629,1.5713,1.0879,0.9985,0.8275,0.6509,0.6113,0.4757,0.3242,0.3024,0.2918,0.28,0.249,0.235,0.2078,0.1412,0.0544,-0.0225,-0.0538,-0.0806,-0.1074,-0.1563,-0.2591,-0.3486,-0.3829,-0.3949,-0.3986,-0.3803,-0.4029,-0.4256,-0.4517,-0.5043,-0.5399,-0.541,-0.5959,-0.6276,-0.6113,-0.6476,-0.6862,-0.7224,-0.7348,-0.7456,-0.7587,-0.753,-0.8153,-0.9485,-1.0449,-1.0819,-1.0697,-1.1111,-1.1258,-1.1199,-1.1299,-1.1399,3.6694,3.8146,3.9538,3.9808,3.978,3.9472,3.8592,3.7734,3.6846,3.5895,3.4513,3.3255,3.2543,3.1612,3.0407,2.873,2.8358,2.7947,2.6969,2.6188,2.5951,2.6668,2.6061,2.5584,2.5522,2.6242,2.6398,2.557,2.6262,2.6348,2.5479,2.5313,2.5234,2.5234,2.5107,2.5056,2.5037,2.4816,2.4372,2.3738,2.2873,2.2514,2.2603,2.2741,2.319,2.3872,2.4568,2.3998,2.2646,2.3224,2.2974,2.2243,2.2271,2.2182,2.1988,2.1486,2.169,2.1509,1.6334,1.4843,1.4393,0.9595,0.7335,0.6504,0.6484,0.6325,0.5851,0.473,0.416,0.388,0.3797,0.3519,0.3316,0.3435,0.2697,0.1582,0.0045,-0.0314,-0.0539,-0.1208,-0.1967,-0.2591,-0.2987,-0.2984,-0.2981,-0.3243,-0.3331,-0.3375,-0.3419,-0.3686,-0.3953,-0.4128,-0.457,-0.5081,-0.5535,-0.5641,-0.5839,-0.6202,-0.6294,-0.6442,-0.6656,-0.7206,-0.743,-0.7244,-0.8593,-0.9221,-0.9096,-0.919,-0.9033,-0.879,-0.9238,-0.9754,3.6931,3.7717,3.8522,3.952,3.9058,3.8378,3.8496,3.7461,3.623,3.5406,3.4237,3.3242,3.2889,3.1757,3.0446,2.9177,2.8566,2.8095,2.7683,2.6864,2.6424,2.6743,2.6446,2.6015,2.5485,2.6602,2.6837,2.5542,2.6648,2.6757,2.537,2.5243,2.5118,2.4981,2.4917,2.4869,2.4818,2.3832,2.2706,2.1457,2.1061,2.1103,2.1503,2.154,2.2238,2.3418,2.3291,2.2982,2.2518,2.229,2.1673,2.091,2.117,2.0671,1.9832,2.013,2.0145,1.9585,1.6598,1.5711,1.5376,1.189,1.0208,0.9476,0.9128,0.8384,0.7505,0.6819,0.5756,0.4905,0.4905,0.4722,0.4461,0.3939,0.3559,0.2871,0.1393,0.0988,0.0648,-0.0046,-0.0924,-0.1559,-0.1657,-0.1867,-0.2035,-0.2031,-0.2401,-0.2673,-0.2673,-0.3132,-0.3438,-0.351,-0.3731,-0.3972,-0.4175,-0.4379,-0.4549,-0.4696,-0.5024,-0.5267,-0.5504,-0.528,-0.5152,-0.5253,-0.7379,-0.8415,-0.8309,-0.8355,-0.8349,-0.8178,-0.8429,-0.8685,3.6716,3.7051,3.7537,3.8846,3.8213,3.7477,3.8121,3.7087,3.5815,3.5142,3.4147,3.3363,3.3353,3.1987,3.0565,2.9632,2.8922,2.8403,2.8132,2.7348,2.6786,2.6699,2.6498,2.6118,2.5436,2.668,2.691,2.5428,2.6659,2.676,2.5172,2.5061,2.4943,2.4733,2.4693,2.4557,2.4295,2.2649,2.1288,2.0252,1.9796,1.9857,2.0384,2.0374,2.1096,2.2374,2.1999,2.178,2.1624,2.1132,2.0368,1.9587,1.9935,1.9299,1.833,1.9152,1.8972,1.8268,1.749,1.6817,1.5957,1.4234,1.309,1.2217,1.1397,1.0113,0.882,0.8352,0.7212,0.61,0.609,0.5908,0.558,0.4758,0.4588,0.415,0.2518,0.1868,0.1494,0.1013,0.0145,-0.0477,-0.0371,-0.0711,-0.0918,-0.0676,-0.1286,-0.1813,-0.1813,-0.2401,-0.282,-0.2749,-0.2932,-0.3026,-0.3089,-0.339,-0.3614,-0.3812,-0.4034,-0.4409,-0.486,-0.3863,-0.3361,-0.3442,-0.5783,-0.6929,-0.6714,-0.7042,-0.7208,-0.7267,-0.7439,-0.7599,3.6043,3.6668,3.7315,3.7419,3.736,3.7301,3.736,3.6657,3.5965,3.5866,3.4496,3.3292,3.3225,3.1885,3.0498,2.9561,2.9381,2.9051,2.821,2.7343,2.678,2.6703,2.5964,2.5421,2.5322,2.6025,2.6101,2.5184,2.5837,2.5858,2.4874,2.4712,2.4604,2.4522,2.4391,2.3969,2.3192,2.1583,2.1121,2.1768,2.0044,1.9253,1.9273,1.9019,1.9272,1.9939,2.0987,2.0371,1.8682,1.9321,1.908,1.8281,1.8113,1.8481,1.9072,1.8622,1.8898,1.9251,1.7984,1.741,1.697,1.5475,1.4378,1.3402,1.2261,1.1098,0.9913,0.8841,0.8217,0.7778,0.7407,0.7053,0.6813,0.6764,0.6503,0.5524,0.2885,0.1807,0.1452,0.1554,0.1004,0.0502,0.0551,0.0502,0.0502,0.0502,-0.0,-0.0403,-0.0403,-0.1108,-0.161,-0.1613,-0.201,-0.2393,-0.2689,-0.2961,-0.3436,-0.4116,-0.3671,-0.3956,-0.5223,-0.4015,-0.2885,-0.1935,-0.3327,-0.3886,-0.3547,-0.4326,-0.4831,-0.5062,-0.5677,-0.6168,3.5872,3.6092,3.6442,3.6936,3.6683,3.6448,3.6936,3.6377,3.5741,3.571,3.4369,3.3157,3.3137,3.1792,3.0555,3.0176,2.9637,2.9334,2.9555,2.8821,2.8271,2.824,2.7459,2.6687,2.601,2.618,2.5946,2.4974,2.5627,2.5653,2.467,2.4554,2.4491,2.4392,2.4339,2.3897,2.3031,2.1909,2.1487,2.1746,2.0067,1.9476,1.9811,1.9129,1.8784,1.877,1.9079,1.9046,1.881,1.8938,1.8765,1.8461,1.8626,1.861,1.8495,1.7928,1.7802,1.7847,1.7101,1.6872,1.6808,1.6207,1.5433,1.4595,1.3914,1.2609,1.1215,1.0448,0.9475,0.8572,0.8371,0.8059,0.7711,0.7149,0.6572,0.5859,0.4779,0.3545,0.2624,0.2509,0.2084,0.1657,0.1567,0.1334,0.1094,0.099,0.0691,0.0431,0.0377,0.0106,-0.021,-0.0593,-0.0687,-0.1004,-0.1699,-0.1814,-0.1988,-0.2237,-0.2127,-0.2238,-0.2633,-0.2238,-0.1845,-0.1396,-0.1955,-0.2732,-0.3727,-0.4061,-0.4226,-0.434,-0.4563,-0.4948,3.5732,3.5721,3.5857,3.6328,3.6093,3.5865,3.6348,3.6018,3.5602,3.5562,3.4448,3.3451,3.3429,3.2289,3.1158,3.055,2.9979,2.9688,2.9906,2.9433,2.8972,2.8699,2.8142,2.752,2.6759,2.6388,2.5887,2.5156,2.5305,2.5117,2.4425,2.4407,2.4355,2.4247,2.3952,2.3639,2.3327,2.197,2.1514,2.2063,2.0077,1.945,1.999,1.9016,1.8353,1.8014,1.8121,1.8466,1.89,1.8717,1.8734,1.8897,1.8961,1.8833,1.8516,1.7804,1.7526,1.7427,1.6824,1.6638,1.6577,1.6392,1.5856,1.5232,1.4744,1.349,1.2092,1.1557,1.0466,0.9354,0.9159,0.8844,0.8415,0.7759,0.7063,0.647,0.6095,0.4838,0.377,0.363,0.3133,0.2686,0.2569,0.2342,0.2052,0.1889,0.1597,0.1396,0.1229,0.1041,0.0763,0.0112,0.0165,-0.0055,-0.084,-0.0954,-0.0954,-0.1066,-0.1122,-0.1122,-0.1122,-0.1122,-0.1178,-0.1178,-0.1234,-0.1847,-0.3067,-0.3289,-0.3456,-0.3508,-0.3619,-0.395,0.0,0.0,0.0,3.5592,3.5602,3.5602,3.5611,3.5611,3.5591,3.5538,3.482,3.4173,3.4117,3.3389,3.2286,3.0717,3.0479,3.0147,2.92,2.9091,2.8804,2.7999,2.7865,2.7765,2.7585,2.662,2.5938,2.5757,2.4856,2.4303,2.4228,2.421,2.4154,2.4094,2.3268,2.3211,2.3996,2.1644,2.1243,2.279,2.0101,1.9143,1.9694,1.8589,1.7922,1.7656,1.8228,1.8585,1.8735,1.8593,1.8904,1.9454,1.9001,1.9059,1.9306,1.8361,1.8152,1.8187,1.7284,1.6795,1.6436,1.6132,1.5691,1.521,1.4652,1.3653,1.2511,1.1944,1.1023,1.0146,0.9873,0.9413,0.8956,0.8679,0.8143,0.7503,0.6632,0.5597,0.478,0.4725,0.4132,0.3583,0.3469,0.3527,0.3527,0.3188,0.2792,0.2458,0.2238,0.1734,0.1174,0.0729,0.0673,0.0392,-0.028,-0.0336,-0.0449,-0.0785,-0.0842,-0.0842,-0.0842,-0.0842,-0.0954,-0.1122,-0.1066,-0.1122,-0.129,-0.1905,-0.2293,-0.2456,-0.2899,-0.3121,3.547,0.0,0.0,0.0,0.0,0.0,3.6123,3.5763,3.5479,3.6105,3.507,3.404,3.4033,3.3314,3.2584,3.213,3.2114,3.178,3.0791,3.1161,3.1156,3.0158,2.9498,2.9036,2.8877,2.7475,2.6544,2.6428,2.5592,2.5054,2.4996,2.4406,2.4056,2.4016,2.3757,2.3699,2.3917,2.2499,2.2267,2.3203,2.0572,1.9615,2.0079,1.8574,1.8007,1.8245,1.8317,1.8983,1.9965,1.9218,1.8982,1.9077,1.9262,1.9525,1.9721,1.8819,1.8384,1.8095,1.724,1.6791,1.6633,1.6362,1.6088,1.568,1.488,1.4086,1.3175,1.1816,1.1135,1.071,1.0241,0.9777,0.9413,0.9204,0.8844,0.8421,0.8084,0.7326,0.6406,0.5214,0.4728,0.4515,0.4515,0.4132,0.3802,0.363,0.3411,0.3302,0.3246,0.3079,0.2683,0.2066,0.1955,0.1509,0.0615,0.1063,0.1343,0.1287,0.0895,0.0671,0.0671,0.0671,0.0504,0.0112,0.0112,-0.0224,-0.101,-0.1346,-0.1569,-0.1624,-0.2183,-0.246,3.5326,3.533,3.5285,3.5229,0.0,0.0,3.5825,3.5505,3.5217,3.535,3.4606,3.3868,3.3781,3.3329,3.3083,3.3336,3.3677,3.3392,3.1891,3.2136,3.2162,3.141,3.0884,3.0544,3.0376,2.8829,2.7781,2.7625,2.6518,2.569,2.528,2.4433,2.4101,2.4447,2.4387,2.4363,2.436,2.3412,2.3062,2.3323,2.1097,2.0269,2.0626,1.9256,1.8743,1.8937,1.9099,1.9458,1.9861,1.9544,1.9583,1.9871,1.9892,1.995,1.9884,1.9006,1.85,1.8069,1.7253,1.6846,1.6675,1.6479,1.625,1.5901,1.5311,1.4427,1.3382,1.2508,1.171,1.1023,1.0616,1.0249,0.988,0.9614,0.9361,0.9047,0.8514,0.8196,0.7658,0.6352,0.5655,0.5226,0.5117,0.4625,0.419,0.391,0.3858,0.3805,0.3749,0.3749,0.3635,0.3244,0.3074,0.2794,0.2235,0.2519,0.2747,0.2747,0.2127,0.1734,0.1621,0.151,0.123,0.0896,0.0896,0.0504,-0.028,-0.0842,-0.1122,-0.1122,-0.1513,-0.1681,3.5155,3.5196,3.52,3.52,3.5147,0.0,3.5189,3.5133,3.4848,3.4165,3.3919,3.377,3.3524,3.3559,3.3799,3.4353,3.5109,3.4857,3.2692,3.2657,3.2673,3.2269,3.2272,3.221,3.1936,3.0546,2.9455,2.9033,2.751,2.6191,2.5233,2.4444,2.4348,2.5056,2.5031,2.5018,2.51,2.4244,2.3674,2.3318,2.161,2.0921,2.1102,2.0159,1.9681,1.9646,2.0143,1.9919,1.926,1.9623,2.0257,2.0975,2.0518,2.0193,1.9884,1.9006,1.85,1.8109,1.7282,1.6846,1.6675,1.6522,1.6262,1.5957,1.578,1.4642,1.339,1.3512,1.2337,1.1074,1.1015,1.0769,1.0462,1.0028,0.9865,0.9555,0.8495,0.8573,0.8633,0.7818,0.674,0.5882,0.555,0.5175,0.4739,0.4242,0.4245,0.4245,0.4079,0.4076,0.4082,0.4206,0.4036,0.3925,0.3981,0.3761,0.3652,0.3652,0.2972,0.2464,0.2294,0.2014,0.1733,0.1566,0.1566,0.1289,0.0733,-0.0393,-0.0898,-0.0898,-0.0901,-0.0959,3.5007,3.5164,3.5129,3.5129,3.5111,0.0,3.5702,3.5283,3.4884,3.5165,3.4689,3.418,3.4136,3.4656,3.5138,3.5259,3.5944,3.5777,3.3857,3.4698,3.5206,3.4348,3.4248,3.3991,3.3296,3.2363,3.1239,2.9892,2.8239,2.6686,2.5208,2.4907,2.4824,2.4937,2.4937,2.5198,2.5799,2.4587,2.3877,2.3675,2.1664,2.0705,2.0603,1.9794,1.971,2.0225,2.0132,2.0316,2.0623,1.9862,1.9671,1.9797,1.9472,1.9642,1.9884,1.8968,1.8525,1.8319,1.7282,1.6803,1.6633,1.6362,1.6132,1.5901,1.5379,1.4937,1.4358,1.3263,1.1955,1.0997,1.1299,1.1124,1.082,1.071,1.0403,0.9984,0.9555,0.9354,0.9152,0.8791,0.7871,0.7117,0.6961,0.6416,0.5819,0.5167,0.5062,0.4901,0.4463,0.4408,0.4356,0.4196,0.4141,0.4082,0.4027,0.3971,0.3916,0.3916,0.3802,0.3633,0.3463,0.3405,0.3294,0.3135,0.3147,0.2618,0.1455,-0.0114,-0.0898,-0.0898,-0.0922,-0.0934,3.4952,3.5129,3.502,3.487,3.485,0.0,0.0,3.4757,3.4416,3.4279,3.392,3.3576,3.3432,3.3741,3.4227,3.4944,3.5395,3.5597,3.5454,3.5928,3.6066,3.5435,3.5399,3.5235,3.4834,3.3715,3.2138,3.009,2.876,2.7496,2.6258,2.5439,2.5141,2.5445,2.5463,2.553,2.5707,2.5429,2.4893,2.4074,2.2635,2.184,2.1617,2.0744,2.0511,2.0776,2.0636,2.0623,2.0763,2.0219,1.9962,1.9847,1.9377,1.922,1.9191,1.9053,1.864,1.8068,1.7557,1.7115,1.671,1.625,1.6083,1.5996,1.5425,1.5024,1.4516,1.316,1.25,1.2139,1.1994,1.1742,1.1451,1.1065,1.0769,1.0403,0.9917,0.971,0.951,0.9159,0.8679,0.8084,0.723,0.6583,0.5937,0.5226,0.5117,0.5007,0.4736,0.468,0.468,0.4574,0.4574,0.4519,0.446,0.4353,0.4242,0.4242,0.4135,0.4024,0.391,0.3965,0.3943,0.39,0.3856,0.3143,0.1622,0.0237,-0.0521,-0.0673,-0.0628,-0.0696,3.4737,3.4863,3.4737,3.4634,3.4475,3.4311,0.0,0.0,0.0,3.3155,3.3007,3.2932,3.2719,3.2793,3.3259,3.4389,3.4829,3.548,3.6765,3.6741,3.6534,3.6363,3.6235,3.6157,3.6206,3.4714,3.2865,3.0712,2.9582,2.8572,2.7565,2.6177,2.5667,2.6206,2.6014,2.5875,2.5825,2.6048,2.5633,2.4536,2.3703,2.3069,2.2701,2.1937,2.1438,2.1183,2.1071,2.0827,2.0478,2.018,2.0048,2.0023,1.9623,1.9171,1.8767,1.9104,1.8679,1.7908,1.772,1.7323,1.6799,1.6271,1.6115,1.6071,1.5642,1.5116,1.4482,1.3363,1.317,1.3122,1.2472,1.2178,1.1931,1.1318,1.1074,1.0812,1.0079,0.9925,0.9769,0.9309,0.9211,0.8778,0.7498,0.6858,0.6268,0.555,0.5441,0.5332,0.5117,0.5117,0.5062,0.4901,0.4897,0.4897,0.4897,0.468,0.457,0.457,0.4411,0.4245,0.4076,0.416,0.4185,0.4262,0.4228,0.3554,0.2168,0.1103,0.0298,-0.0343,-0.0345,-0.0351,3.391,3.4037,3.4036,3.4499,3.402,3.3515,3.3781,0.0,3.3743,3.3393,0.0,3.3335,3.3306,0.0,0.0,3.4496,3.5656,3.6579,3.671,3.7302,3.7749,3.792,3.7154,3.6702,3.6884,3.5336,3.3918,3.2997,3.1448,2.988,2.8352,2.7435,2.6961,2.6956,2.6055,2.6126,2.7245,2.551,2.4787,2.5113,2.4066,2.3161,2.2427,2.2345,2.1859,2.1103,2.0893,2.0695,2.04,1.8946,1.8711,1.9275,1.9829,1.9939,1.9743,1.8983,1.8592,1.8305,1.7393,1.7002,1.6863,1.6532,1.6244,1.5988,1.5808,1.532,1.4755,1.4043,1.3396,1.2725,1.2107,1.1769,1.1569,1.1469,1.1368,1.1124,1.0565,1.0308,0.9991,0.9465,0.9263,0.9106,0.8791,0.8586,0.8215,0.7503,0.7396,0.6966,0.5823,0.5778,0.5614,0.4956,0.4897,0.4897,0.4897,0.4901,0.4842,0.4842,0.4846,0.468,0.4463,0.4311,0.4265,0.4394,0.4424,0.4436,0.4356,0.3336,0.1851,-0.0061,-0.0063,-0.0064,3.4549,3.4298,3.3941,3.448,3.3795,3.3133,3.3632,3.3541,3.3339,3.3256,0.0,0.0,0.0,0.0,0.0,0.0,3.4821,3.5145,3.6514,3.6141,3.6319,3.7841,3.7697,3.7154,3.6317,3.593,3.4839,3.2727,3.2272,3.1236,2.9161,2.8273,2.7583,2.7066,2.61,2.591,2.6567,2.5644,2.5312,2.5584,2.456,2.367,2.2909,2.2337,2.1593,2.0761,2.0662,2.0527,2.0326,1.9654,1.951,1.9718,1.9993,1.9612,1.896,1.8964,1.8577,1.8028,1.7598,1.724,1.6833,1.6522,1.6095,1.5654,1.5784,1.5614,1.5289,1.488,1.449,1.4014,1.3122,1.2745,1.2452,1.1769,1.1519,1.1267,1.082,1.0514,1.0257,0.9836,0.9569,0.9413,0.9361,0.8896,0.8368,0.7664,0.7605,0.7391,0.6848,0.6853,0.6745,0.6312,0.6308,0.6095,0.5719,0.5559,0.5395,0.5014,0.505,0.5046,0.4936,0.5002,0.5037,0.4977,0.5008,0.4826,0.448,0.4318,0.3587,0.2202,0.0697,0.0127,3.4481,3.4102,3.3671,3.4369,3.3668,3.2908,3.3214,3.3212,3.3111,3.2847,3.2973,0.0,0.0,0.0,3.3481,3.4648,0.0,3.4006,3.5747,3.5303,3.5482,3.7343,3.7807,3.7517,3.6348,3.6676,3.5852,3.3158,3.3216,3.2325,2.9901,2.9024,2.8183,2.7228,2.6276,2.586,2.6041,2.5611,2.5528,2.5824,2.5098,2.4209,2.324,2.2518,2.1563,2.0494,2.0494,2.0426,2.0289,2.007,2.0016,2.0065,1.9832,1.9296,1.8649,1.9031,1.8679,1.7948,1.7828,1.7393,1.6833,1.6522,1.6046,1.5642,1.5804,1.5792,1.5614,1.5244,1.5153,1.4869,1.3695,1.3266,1.2929,1.1968,1.1628,1.1427,1.1023,1.0769,1.047,1.0102,0.9836,0.9673,0.9614,0.9099,0.8521,0.8078,0.7972,0.7919,0.7765,0.7765,0.7658,0.7391,0.7235,0.6966,0.6421,0.6109,0.5732,0.5183,0.5235,0.5289,0.5334,0.5551,0.5665,0.5521,0.5528,0.5249,0.4752,0.5061,0.4932,0.4287,0.2376,0.1148,3.2954,3.2968,3.3012,3.4129,3.3642,3.2785,3.2272,3.2733,3.3046,3.2193,3.2595,3.3086,3.3086,3.3086,3.3104,3.3082,3.3709,0.0,0.0,3.5418,3.6434,3.6696,3.7431,3.7828,3.7632,3.765,3.7005,3.5411,3.4539,3.3009,3.06,2.9779,2.8834,2.7713,2.6571,2.6121,2.6368,2.5234,2.4944,2.5616,2.56,2.4729,2.3202,2.3151,2.216,2.0494,2.0494,2.0426,2.0258,1.9446,1.9467,1.9929,1.9209,1.9226,1.9624,1.9317,1.8869,1.8422,1.7948,1.7393,1.6833,1.6522,1.6306,1.6132,1.6044,1.5913,1.5647,1.4937,1.4709,1.4422,1.315,1.2716,1.2521,1.2017,1.1669,1.1427,1.1175,1.0972,1.0718,1.0102,0.9999,0.9888,0.9666,0.9458,0.9361,0.9361,0.9204,0.8949,0.8421,0.8368,0.815,0.7545,0.7122,0.6907,0.6853,0.6223,0.5686,0.5301,0.5352,0.5463,0.5683,0.5674,0.5781,0.5877,0.5728,0.5728,0.5822,0.5728,0.5664,0.555,0.5302,0.3551,0.0,0.0,3.2378,3.3732,3.2751,3.1659,3.2514,3.2566,3.2379,3.2061,3.2517,3.2979,3.2979,3.2979,3.3269,3.4291,3.3827,3.3684,0.0,3.5293,3.6041,3.7166,3.7542,3.7506,3.7023,3.6398,3.5631,3.4613,3.3791,3.2474,3.06,3.019,2.9343,2.7946,2.6606,2.59,2.5881,2.5159,2.4824,2.4871,2.5093,2.443,2.2992,2.2718,2.1802,2.0373,2.0373,2.0586,2.0916,2.0564,2.0761,2.1296,2.0941,2.0618,2.0229,1.9156,1.8655,1.8383,1.7516,1.7002,1.6705,1.6522,1.6392,1.6318,1.6188,1.6057,1.5824,1.5355,1.5232,1.504,1.4118,1.3552,1.3112,1.253,1.2008,1.1578,1.1427,1.1124,1.082,1.0616,1.0462,1.0308,1.0205,1.0146,0.9991,0.9614,0.951,0.9406,0.9197,0.9197,0.9093,0.8771,0.8613,0.8243,0.7503,0.6734,0.6205,0.5862,0.6105,0.6178,0.6055,0.6101,0.6155,0.6083,0.6025,0.5959,0.5888,0.5832,0.5832,0.5818,0.5767,0.4824,3.2298,3.2014,0.0,3.2409,3.1927,0.0,3.206,3.2238,3.2211,3.1901,3.2531,3.2865,3.193,3.2419,3.3104,3.3455,3.3169,3.3348,0.0,3.5043,3.5685,3.7006,3.7416,3.7327,3.6612,3.6238,3.5472,3.4086,3.3766,3.2791,3.0863,3.0397,2.9501,2.8019,2.6819,2.5893,2.528,2.5203,2.4883,2.4406,2.4866,2.43,2.2776,2.2534,2.162,2.032,2.0551,2.087,2.1249,2.1406,2.166,2.1886,2.1566,2.1143,2.0571,1.9633,1.8931,1.8305,1.7434,1.6918,1.6675,1.6534,1.6392,1.6318,1.6188,1.6057,1.5869,1.5659,1.5558,1.5334,1.4605,1.4186,1.3794,1.335,1.2908,1.252,1.2177,1.1979,1.1722,1.1197,1.1063,1.0995,1.0889,1.0889,1.0735,1.0174,1.0001,0.9992,1.0111,0.9909,0.9737,0.9631,0.9532,0.9092,0.8208,0.7397,0.685,0.6692,0.6782,0.684,0.6785,0.6713,0.6676,0.6671,0.6471,0.6277,0.6086,0.6086,0.602,0.602,0.5888,0.5554]}]]